Time,TemperatureF,DewpointF,PressureIn,WindDirection,WindDirectionDegrees,WindSpeedMPH,WindSpeedGustMPH,Humidity,HourlyPrecipIn,Conditions,Clouds,dailyrainin,SoftwareType,DateUTC
2013-02-02 00:00:00,19.6,10.4,30.22,West,271,7.0,13.0,67,0.00,,,0.00,VWS V14.01,2013-02-02 05:00:00,
2013-02-02 00:01:00,19.7,10.5,30.22,WSW,251,5.0,8.0,67,0.00,,,0.00,VWS V14.01,2013-02-02 05:01:00,
2013-02-02 00:02:00,19.6,10.4,30.22,West,267,2.0,8.0,67,0.00,,,0.00,VWS V14.01,2013-02-02 05:02:00,
2013-02-02 00:03:00,19.6,10.4,30.22,West,266,6.0,12.0,67,0.00,,,0.00,VWS V14.01,2013-02-02 05:03:00,
2013-02-02 00:04:00,19.5,10.3,30.22,WSW,254,7.0,12.0,67,0.00,,,0.00,VWS V14.01,2013-02-02 05:04:00,
2013-02-02 00:05:00,19.6,10.4,30.22,West,266,11.0,13.0,67,0.00,,,0.00,VWS V14.01,2013-02-02 05:05:00,
2013-02-02 00:06:00,19.5,10.3,30.22,WNW,288,7.0,13.0,67,0.00,,,0.00,VWS V14.01,2013-02-02 05:06:00,
2013-02-02 00:07:00,19.5,10.0,30.22,WNW,283,4.0,13.0,66,0.00,,,0.00,VWS V14.01,2013-02-02 05:07:00,
2013-02-02 00:08:00,19.5,10.0,30.22,West,271,4.0,13.0,66,0.00,,,0.00,VWS V14.01,2013-02-02 05:08:00,
2013-02-02 00:09:00,19.5,10.0,30.22,NW,324,6.0,13.0,66,0.00,,,0.00,VWS V14.01,2013-02-02 05:09:00,
2013-02-02 00:10:00,19.5,10.0,30.22,SW,219,6.0,13.0,66,0.00,,,0.00,VWS V14.01,2013-02-02 05:10:00,
2013-02-02 00:11:00,19.5,10.0,30.22,WSW,244,3.0,6.0,66,0.00,,,0.00,VWS V14.01,2013-02-02 05:11:00,
2013-02-02 00:12:00,19.5,10.0,30.22,West,273,4.0,6.0,66,0.00,,,0.00,VWS V14.01,2013-02-02 05:12:00,
2013-02-02 00:13:00,19.5,10.0,30.22,West,265,5.0,6.0,66,0.00,,,0.00,VWS V14.01,2013-02-02 05:13:00,
2013-02-02 00:14:00,19.4,9.9,30.22,West,261,1.0,6.0,66,0.00,,,0.00,VWS V14.01,2013-02-02 05:14:00,
2013-02-02 00:15:00,19.4,9.9,30.22,WNW,289,1.0,6.0,66,0.00,,,0.00,VWS V14.01,2013-02-02 05:15:00,
2013-02-02 00:16:00,19.4,9.9,30.22,West,261,5.0,6.0,66,0.00,,,0.00,VWS V14.01,2013-02-02 05:16:00,
2013-02-02 00:17:00,19.4,9.9,30.22,West,261,3.0,6.0,66,0.00,,,0.00,VWS V14.01,2013-02-02 05:17:00,
2013-02-02 00:18:00,19.4,9.9,30.22,WNW,285,2.0,6.0,66,0.00,,,0.00,VWS V14.01,2013-02-02 05:18:00,
2013-02-02 00:19:00,19.4,9.9,30.22,SW,225,1.0,6.0,66,0.00,,,0.00,VWS V14.01,2013-02-02 05:19:00,
2013-02-02 00:20:00,19.4,9.9,30.22,WSW,250,10.0,10.0,66,0.00,,,0.00,VWS V14.01,2013-02-02 05:20:00,
2013-02-02 00:21:00,19.3,9.8,30.22,WSW,243,4.0,7.0,66,0.00,,,0.00,VWS V14.01,2013-02-02 05:21:00,
2013-02-02 00:22:00,19.3,9.8,30.22,WSW,247,4.0,7.0,66,0.00,,,0.00,VWS V14.01,2013-02-02 05:22:00,
2013-02-02 00:23:00,19.3,9.8,30.22,NNW,333,2.0,7.0,66,0.00,,,0.00,VWS V14.01,2013-02-02 05:23:00,
2013-02-02 00:24:00,19.3,9.8,30.22,West,262,4.0,7.0,66,0.00,,,0.00,VWS V14.01,2013-02-02 05:24:00,
2013-02-02 00:25:00,19.3,9.8,30.22,West,272,5.0,9.0,66,0.00,,,0.00,VWS V14.01,2013-02-02 05:25:00,
2013-02-02 00:26:00,19.3,9.8,30.22,WSW,252,1.0,9.0,66,0.00,,,0.00,VWS V14.01,2013-02-02 05:26:00,
2013-02-02 00:27:00,19.3,9.8,30.22,WNW,296,2.0,9.0,66,0.00,,,0.00,VWS V14.01,2013-02-02 05:27:00,
2013-02-02 00:28:00,19.3,9.8,30.22,SW,229,5.0,10.0,66,0.00,,,0.00,VWS V14.01,2013-02-02 05:28:00,
2013-02-02 00:29:00,19.3,9.8,30.22,West,267,3.0,10.0,66,0.00,,,0.00,VWS V14.01,2013-02-02 05:29:00,
2013-02-02 00:30:00,19.2,9.7,30.22,WSW,250,5.0,10.0,66,0.00,,,0.00,VWS V14.01,2013-02-02 05:30:00,
2013-02-02 00:31:00,19.2,9.7,30.22,West,279,4.0,10.0,66,0.00,,,0.00,VWS V14.01,2013-02-02 05:31:00,
2013-02-02 00:32:00,19.2,9.7,30.22,West,268,2.0,10.0,66,0.00,,,0.00,VWS V14.01,2013-02-02 05:32:00,
2013-02-02 00:33:00,19.2,9.7,30.22,SW,225,6.0,10.0,66,0.00,,,0.00,VWS V14.01,2013-02-02 05:33:00,
2013-02-02 00:34:00,19.1,9.6,30.22,West,267,7.0,10.0,66,0.00,,,0.00,VWS V14.01,2013-02-02 05:34:00,
2013-02-02 00:35:00,19.1,9.6,30.22,West,275,5.0,10.0,66,0.00,,,0.00,VWS V14.01,2013-02-02 05:35:00,
2013-02-02 00:36:00,19.1,9.6,30.22,WSW,237,5.0,10.0,66,0.00,,,0.00,VWS V14.01,2013-02-02 05:36:00,
2013-02-02 00:37:00,19.0,9.5,30.22,West,280,3.0,10.0,66,0.00,,,0.00,VWS V14.01,2013-02-02 05:37:00,
2013-02-02 00:38:00,19.0,9.5,30.22,WSW,258,2.0,10.0,66,0.00,,,0.00,VWS V14.01,2013-02-02 05:38:00,
2013-02-02 00:39:00,18.9,9.4,30.22,WSW,255,6.0,10.0,66,0.00,,,0.00,VWS V14.01,2013-02-02 05:39:00,
2013-02-02 00:40:00,18.9,9.4,30.22,West,269,1.0,10.0,66,0.00,,,0.00,VWS V14.01,2013-02-02 05:40:00,
2013-02-02 00:41:00,18.9,9.4,30.22,WSW,252,2.0,2.0,66,0.00,,,0.00,VWS V14.01,2013-02-02 05:41:00,
2013-02-02 00:42:00,18.9,9.4,30.22,SW,225,3.0,7.0,66,0.00,,,0.00,VWS V14.01,2013-02-02 05:42:00,
2013-02-02 00:43:00,18.9,9.8,30.22,West,270,5.0,7.0,67,0.00,,,0.00,VWS V14.01,2013-02-02 05:43:00,
2013-02-02 00:44:00,18.8,9.3,30.22,SW,231,1.0,7.0,66,0.00,,,0.00,VWS V14.01,2013-02-02 05:44:00,
2013-02-02 00:45:00,18.8,9.3,30.22,NW,304,9.0,9.0,66,0.00,,,0.00,VWS V14.01,2013-02-02 05:45:00,
2013-02-02 00:46:00,18.8,9.7,30.22,SW,234,6.0,9.0,67,0.00,,,0.00,VWS V14.01,2013-02-02 05:46:00,
2013-02-02 00:47:00,18.7,9.6,30.22,WNW,288,1.0,9.0,67,0.00,,,0.00,VWS V14.01,2013-02-02 05:47:00,
2013-02-02 00:48:00,18.7,9.6,30.22,WNW,296,1.0,9.0,67,0.00,,,0.00,VWS V14.01,2013-02-02 05:48:00,
2013-02-02 00:49:00,18.7,9.6,30.22,NNW,342,1.0,9.0,67,0.00,,,0.00,VWS V14.01,2013-02-02 05:49:00,
2013-02-02 00:50:00,18.6,9.5,30.22,SW,236,3.0,9.0,67,0.00,,,0.00,VWS V14.01,2013-02-02 05:50:00,
2013-02-02 00:51:00,18.6,9.5,30.22,NW,310,8.0,8.0,67,0.00,,,0.00,VWS V14.01,2013-02-02 05:51:00,
2013-02-02 00:52:00,18.6,9.5,30.22,WNW,301,0.0,8.0,67,0.00,,,0.00,VWS V14.01,2013-02-02 05:52:00,
2013-02-02 00:53:00,18.6,9.5,30.22,West,265,0.0,8.0,67,0.00,,,0.00,VWS V14.01,2013-02-02 05:53:00,
2013-02-02 00:54:00,18.6,9.5,30.22,West,263,4.0,8.0,67,0.00,,,0.00,VWS V14.01,2013-02-02 05:54:00,
2013-02-02 00:55:00,18.5,9.4,30.22,WSW,253,3.0,8.0,67,0.00,,,0.00,VWS V14.01,2013-02-02 05:55:00,
2013-02-02 00:56:00,18.5,9.4,30.22,WNW,296,6.0,9.0,67,0.00,,,0.00,VWS V14.01,2013-02-02 05:56:00,
2013-02-02 00:57:00,18.5,9.4,30.22,WNW,288,0.0,9.0,67,0.00,,,0.00,VWS V14.01,2013-02-02 05:57:00,
2013-02-02 00:58:00,18.4,9.3,30.22,WNW,288,3.0,9.0,67,0.00,,,0.00,VWS V14.01,2013-02-02 05:58:00,
2013-02-02 00:59:00,18.4,9.3,30.22,West,281,2.0,9.0,67,0.00,,,0.00,VWS V14.01,2013-02-02 05:59:00,
2013-02-02 01:00:00,18.4,9.3,30.23,West,273,4.0,9.0,67,0.00,,,0.00,VWS V14.01,2013-02-02 06:00:00,
2013-02-02 01:01:00,18.4,9.6,30.23,WSW,258,0.0,4.0,68,0.00,,,0.00,VWS V14.01,2013-02-02 06:01:00,
2013-02-02 01:02:00,18.4,9.6,30.23,WNW,284,2.0,6.0,68,0.00,,,0.00,VWS V14.01,2013-02-02 06:02:00,
2013-02-02 01:03:00,18.4,9.6,30.23,West,272,4.0,6.0,68,0.00,,,0.00,VWS V14.01,2013-02-02 06:03:00,
2013-02-02 01:04:00,18.4,9.6,30.23,West,269,3.0,6.0,68,0.00,,,0.00,VWS V14.01,2013-02-02 06:04:00,
2013-02-02 01:05:00,18.4,9.6,30.23,West,281,1.0,6.0,68,0.00,,,0.00,VWS V14.01,2013-02-02 06:05:00,
2013-02-02 01:06:00,18.3,9.5,30.23,WSW,243,4.0,8.0,68,0.00,,,0.00,VWS V14.01,2013-02-02 06:06:00,
2013-02-02 01:07:00,18.3,9.5,30.23,West,268,5.0,8.0,68,0.00,,,0.00,VWS V14.01,2013-02-02 06:07:00,
2013-02-02 01:08:00,18.3,9.5,30.23,NNW,333,0.0,8.0,68,0.00,,,0.00,VWS V14.01,2013-02-02 06:08:00,
2013-02-02 01:09:00,18.2,9.4,30.23,WNW,286,4.0,9.0,68,0.00,,,0.00,VWS V14.01,2013-02-02 06:09:00,
2013-02-02 01:10:00,18.2,9.4,30.23,West,266,6.0,9.0,68,0.00,,,0.00,VWS V14.01,2013-02-02 06:10:00,
2013-02-02 01:11:00,18.2,9.4,30.23,West,271,9.0,9.0,68,0.00,,,0.00,VWS V14.01,2013-02-02 06:11:00,
2013-02-02 01:12:00,18.2,9.4,30.23,West,267,4.0,12.0,68,0.00,,,0.00,VWS V14.01,2013-02-02 06:12:00,
2013-02-02 01:13:00,18.1,9.3,30.23,West,263,0.0,12.0,68,0.00,,,0.00,VWS V14.01,2013-02-02 06:13:00,
2013-02-02 01:14:00,18.1,9.3,30.23,WSW,238,5.0,12.0,68,0.00,,,0.00,VWS V14.01,2013-02-02 06:14:00,
2013-02-02 01:15:00,18.1,9.3,30.23,WSW,250,5.0,12.0,68,0.00,,,0.00,VWS V14.01,2013-02-02 06:15:00,
2013-02-02 01:16:00,18.1,9.3,30.23,WSW,251,2.0,12.0,68,0.00,,,0.00,VWS V14.01,2013-02-02 06:16:00,
2013-02-02 01:17:00,18.1,9.3,30.23,WSW,246,0.0,12.0,68,0.00,,,0.00,VWS V14.01,2013-02-02 06:17:00,
2013-02-02 01:18:00,18.1,9.3,30.23,West,262,1.0,12.0,68,0.00,,,0.00,VWS V14.01,2013-02-02 06:18:00,
2013-02-02 01:19:00,18.0,9.2,30.23,SW,236,3.0,12.0,68,0.00,,,0.00,VWS V14.01,2013-02-02 06:19:00,
2013-02-02 01:20:00,18.0,9.2,30.23,West,268,7.0,12.0,68,0.00,,,0.00,VWS V14.01,2013-02-02 06:20:00,
2013-02-02 01:21:00,18.0,9.2,30.23,West,277,8.0,9.0,68,0.00,,,0.00,VWS V14.01,2013-02-02 06:21:00,
2013-02-02 01:22:00,18.0,9.2,30.23,WSW,243,4.0,9.0,68,0.00,,,0.00,VWS V14.01,2013-02-02 06:22:00,
2013-02-02 01:23:00,18.0,9.2,30.23,WNW,292,1.0,9.0,68,0.00,,,0.00,VWS V14.01,2013-02-02 06:23:00,
2013-02-02 01:24:00,18.0,9.6,30.23,WNW,292,0.0,9.0,69,0.00,,,0.00,VWS V14.01,2013-02-02 06:24:00,
2013-02-02 01:25:00,17.9,9.1,30.23,West,263,1.0,9.0,68,0.00,,,0.00,VWS V14.01,2013-02-02 06:25:00,
2013-02-02 01:26:00,17.9,9.1,30.23,West,263,4.0,9.0,68,0.00,,,0.00,VWS V14.01,2013-02-02 06:26:00,
2013-02-02 01:27:00,17.9,9.5,30.23,West,261,2.0,9.0,69,0.00,,,0.00,VWS V14.01,2013-02-02 06:27:00,
2013-02-02 01:28:00,17.9,9.5,30.23,WSW,257,3.0,9.0,69,0.00,,,0.00,VWS V14.01,2013-02-02 06:28:00,
2013-02-02 01:29:00,17.9,9.5,30.23,West,265,1.0,9.0,69,0.00,,,0.00,VWS V14.01,2013-02-02 06:29:00,
2013-02-02 01:30:00,17.9,9.5,30.24,SW,226,4.0,9.0,69,0.00,,,0.00,VWS V14.01,2013-02-02 06:30:00,
2013-02-02 01:31:00,17.9,9.5,30.24,WNW,288,4.0,6.0,69,0.00,,,0.00,VWS V14.01,2013-02-02 06:31:00,
2013-02-02 01:32:00,17.8,9.4,30.24,WNW,292,2.0,6.0,69,0.00,,,0.00,VWS V14.01,2013-02-02 06:32:00,
2013-02-02 01:33:00,17.8,9.4,30.24,WSW,252,2.0,7.0,69,0.00,,,0.00,VWS V14.01,2013-02-02 06:33:00,
2013-02-02 01:34:00,17.8,9.4,30.24,WSW,257,2.0,7.0,69,0.00,,,0.00,VWS V14.01,2013-02-02 06:34:00,
2013-02-02 01:35:00,17.8,9.4,30.24,West,261,2.0,7.0,69,0.00,,,0.00,VWS V14.01,2013-02-02 06:35:00,
2013-02-02 01:36:00,17.8,9.4,30.24,SSE,156,0.0,7.0,69,0.00,,,0.00,VWS V14.01,2013-02-02 06:36:00,
2013-02-02 01:37:00,17.8,9.4,30.24,SSE,157,0.0,7.0,69,0.00,,,0.00,VWS V14.01,2013-02-02 06:37:00,
2013-02-02 01:38:00,17.8,9.4,30.24,West,281,1.0,7.0,69,0.00,,,0.00,VWS V14.01,2013-02-02 06:38:00,
2013-02-02 01:39:00,17.8,9.4,30.24,WSW,247,0.0,7.0,69,0.00,,,0.00,VWS V14.01,2013-02-02 06:39:00,
2013-02-02 01:40:00,17.7,9.3,30.24,WSW,247,0.0,7.0,69,0.00,,,0.00,VWS V14.01,2013-02-02 06:40:00,
2013-02-02 01:41:00,17.7,9.3,30.24,WSW,242,4.0,4.0,69,0.00,,,0.00,VWS V14.01,2013-02-02 06:41:00,
2013-02-02 01:42:00,17.7,9.3,30.24,West,275,3.0,4.0,69,0.00,,,0.00,VWS V14.01,2013-02-02 06:42:00,
2013-02-02 01:43:00,17.7,9.3,30.24,West,263,0.0,4.0,69,0.00,,,0.00,VWS V14.01,2013-02-02 06:43:00,
2013-02-02 01:44:00,17.7,9.3,30.24,West,263,4.0,4.0,69,0.00,,,0.00,VWS V14.01,2013-02-02 06:44:00,
2013-02-02 01:45:00,17.7,9.3,30.24,WNW,302,2.0,6.0,69,0.00,,,0.00,VWS V14.01,2013-02-02 06:45:00,
2013-02-02 01:46:00,17.6,9.2,30.24,WNW,282,2.0,6.0,69,0.00,,,0.00,VWS V14.01,2013-02-02 06:46:00,
2013-02-02 01:47:00,17.6,9.2,30.24,WNW,282,0.0,6.0,69,0.00,,,0.00,VWS V14.01,2013-02-02 06:47:00,
2013-02-02 01:48:00,17.6,9.2,30.24,West,276,4.0,6.0,69,0.00,,,0.00,VWS V14.01,2013-02-02 06:48:00,
2013-02-02 01:49:00,17.6,9.2,30.24,NNW,344,1.0,6.0,69,0.00,,,0.00,VWS V14.01,2013-02-02 06:49:00,
2013-02-02 01:50:00,17.6,9.2,30.24,West,269,4.0,6.0,69,0.00,,,0.00,VWS V14.01,2013-02-02 06:50:00,
2013-02-02 01:51:00,17.6,9.2,30.24,West,263,4.0,4.0,69,0.00,,,0.00,VWS V14.01,2013-02-02 06:51:00,
2013-02-02 01:52:00,17.6,9.2,30.24,West,266,2.0,4.0,69,0.00,,,0.00,VWS V14.01,2013-02-02 06:52:00,
2013-02-02 01:53:00,17.5,9.1,30.24,West,266,0.0,4.0,69,0.00,,,0.00,VWS V14.01,2013-02-02 06:53:00,
2013-02-02 01:54:00,17.5,9.4,30.24,West,266,1.0,4.0,70,0.00,,,0.00,VWS V14.01,2013-02-02 06:54:00,
2013-02-02 01:55:00,17.5,9.4,30.24,WSW,257,5.0,5.0,70,0.00,,,0.00,VWS V14.01,2013-02-02 06:55:00,
2013-02-02 01:56:00,17.5,9.4,30.24,West,259,1.0,5.0,70,0.00,,,0.00,VWS V14.01,2013-02-02 06:56:00,
2013-02-02 01:57:00,17.5,9.4,30.24,West,262,1.0,5.0,70,0.00,,,0.00,VWS V14.01,2013-02-02 06:57:00,
2013-02-02 01:58:00,17.4,9.3,30.24,West,262,1.0,5.0,70,0.00,,,0.00,VWS V14.01,2013-02-02 06:58:00,
2013-02-02 01:59:00,17.4,9.0,30.24,WSW,257,6.0,8.0,69,0.00,,,0.00,VWS V14.01,2013-02-02 06:59:00,
2013-02-02 02:00:00,17.4,9.3,30.24,West,271,0.0,8.0,70,0.00,,,0.00,VWS V14.01,2013-02-02 07:00:00,
2013-02-02 02:01:00,17.4,9.3,30.24,West,279,7.0,7.0,70,0.00,,,0.00,VWS V14.01,2013-02-02 07:01:00,
2013-02-02 02:02:00,17.3,9.2,30.24,NNW,340,3.0,7.0,70,0.00,,,0.00,VWS V14.01,2013-02-02 07:02:00,
2013-02-02 02:03:00,17.3,8.9,30.24,WNW,296,3.0,7.0,69,0.00,,,0.00,VWS V14.01,2013-02-02 07:03:00,
2013-02-02 02:04:00,17.3,9.2,30.24,SW,234,0.0,10.0,70,0.00,,,0.00,VWS V14.01,2013-02-02 07:04:00,
2013-02-02 02:05:00,17.3,9.2,30.24,West,260,1.0,10.0,70,0.00,,,0.00,VWS V14.01,2013-02-02 07:05:00,
2013-02-02 02:06:00,17.3,9.2,30.24,WNW,282,3.0,10.0,70,0.00,,,0.00,VWS V14.01,2013-02-02 07:06:00,
2013-02-02 02:07:00,17.3,9.2,30.24,WNW,293,1.0,10.0,70,0.00,,,0.00,VWS V14.01,2013-02-02 07:07:00,
2013-02-02 02:08:00,17.3,9.2,30.24,SW,232,5.0,10.0,70,0.00,,,0.00,VWS V14.01,2013-02-02 07:08:00,
2013-02-02 02:09:00,17.2,9.1,30.24,WNW,292,6.0,10.0,70,0.00,,,0.00,VWS V14.01,2013-02-02 07:09:00,
2013-02-02 02:10:00,17.2,9.1,30.24,WSW,255,1.0,10.0,70,0.00,,,0.00,VWS V14.01,2013-02-02 07:10:00,
2013-02-02 02:11:00,17.2,9.1,30.24,WNW,282,0.0,4.0,70,0.00,,,0.00,VWS V14.01,2013-02-02 07:11:00,
2013-02-02 02:12:00,17.2,9.1,30.24,West,281,3.0,4.0,70,0.00,,,0.00,VWS V14.01,2013-02-02 07:12:00,
2013-02-02 02:13:00,17.2,9.1,30.24,WSW,247,6.0,7.0,70,0.00,,,0.00,VWS V14.01,2013-02-02 07:13:00,
2013-02-02 02:14:00,17.2,9.1,30.24,WSW,248,5.0,8.0,70,0.00,,,0.00,VWS V14.01,2013-02-02 07:14:00,
2013-02-02 02:15:00,17.1,9.0,30.24,NW,306,2.0,8.0,70,0.00,,,0.00,VWS V14.01,2013-02-02 07:15:00,
2013-02-02 02:16:00,17.1,9.0,30.24,NW,306,0.0,8.0,70,0.00,,,0.00,VWS V14.01,2013-02-02 07:16:00,
2013-02-02 02:17:00,17.1,9.0,30.24,WSW,254,5.0,8.0,70,0.00,,,0.00,VWS V14.01,2013-02-02 07:17:00,
2013-02-02 02:18:00,17.1,9.0,30.24,WNW,301,3.0,8.0,70,0.00,,,0.00,VWS V14.01,2013-02-02 07:18:00,
2013-02-02 02:19:00,17.1,9.0,30.24,WNW,301,1.0,8.0,70,0.00,,,0.00,VWS V14.01,2013-02-02 07:19:00,
2013-02-02 02:20:00,17.1,9.0,30.24,West,277,7.0,8.0,70,0.00,,,0.00,VWS V14.01,2013-02-02 07:20:00,
2013-02-02 02:21:00,17.1,9.0,30.24,West,263,4.0,7.0,70,0.00,,,0.00,VWS V14.01,2013-02-02 07:21:00,
2013-02-02 02:22:00,17.1,9.0,30.24,WNW,298,3.0,7.0,70,0.00,,,0.00,VWS V14.01,2013-02-02 07:22:00,
2013-02-02 02:23:00,17.0,8.9,30.24,WNW,294,2.0,7.0,70,0.00,,,0.00,VWS V14.01,2013-02-02 07:23:00,
2013-02-02 02:24:00,17.0,8.9,30.24,WNW,294,1.0,7.0,70,0.00,,,0.00,VWS V14.01,2013-02-02 07:24:00,
2013-02-02 02:25:00,17.0,8.9,30.24,West,271,4.0,7.0,70,0.00,,,0.00,VWS V14.01,2013-02-02 07:25:00,
2013-02-02 02:26:00,17.0,8.9,30.24,WSW,242,6.0,7.0,70,0.00,,,0.00,VWS V14.01,2013-02-02 07:26:00,
2013-02-02 02:27:00,17.0,8.9,30.24,WSW,254,1.0,7.0,70,0.00,,,0.00,VWS V14.01,2013-02-02 07:27:00,
2013-02-02 02:28:00,17.0,8.9,30.24,WSW,254,1.0,7.0,70,0.00,,,0.00,VWS V14.01,2013-02-02 07:28:00,
2013-02-02 02:29:00,17.0,8.9,30.24,WSW,253,2.0,7.0,70,0.00,,,0.00,VWS V14.01,2013-02-02 07:29:00,
2013-02-02 02:30:00,17.0,8.9,30.24,West,263,3.0,7.0,70,0.00,,,0.00,VWS V14.01,2013-02-02 07:30:00,
2013-02-02 02:31:00,17.0,8.9,30.24,WSW,248,4.0,6.0,70,0.00,,,0.00,VWS V14.01,2013-02-02 07:31:00,
2013-02-02 02:32:00,17.0,8.9,30.24,West,269,0.0,6.0,70,0.00,,,0.00,VWS V14.01,2013-02-02 07:32:00,
2013-02-02 02:33:00,16.9,8.8,30.24,West,268,1.0,6.0,70,0.00,,,0.00,VWS V14.01,2013-02-02 07:33:00,
2013-02-02 02:34:00,16.9,8.8,30.24,WSW,248,5.0,6.0,70,0.00,,,0.00,VWS V14.01,2013-02-02 07:34:00,
2013-02-02 02:35:00,16.9,8.8,30.24,WNW,293,7.0,8.0,70,0.00,,,0.00,VWS V14.01,2013-02-02 07:35:00,
2013-02-02 02:36:00,16.9,8.8,30.24,West,261,2.0,8.0,70,0.00,,,0.00,VWS V14.01,2013-02-02 07:36:00,
2013-02-02 02:37:00,16.8,8.7,30.24,West,265,3.0,8.0,70,0.00,,,0.00,VWS V14.01,2013-02-02 07:37:00,
2013-02-02 02:38:00,16.8,8.7,30.24,WSW,250,2.0,8.0,70,0.00,,,0.00,VWS V14.01,2013-02-02 07:38:00,
2013-02-02 02:39:00,16.8,8.7,30.24,WSW,255,2.0,8.0,70,0.00,,,0.00,VWS V14.01,2013-02-02 07:39:00,
2013-02-02 02:40:00,16.8,8.7,30.24,WSW,245,4.0,8.0,70,0.00,,,0.00,VWS V14.01,2013-02-02 07:40:00,
2013-02-02 02:41:00,16.8,8.7,30.24,WSW,252,0.0,6.0,70,0.00,,,0.00,VWS V14.01,2013-02-02 07:41:00,
2013-02-02 02:42:00,16.8,8.7,30.24,WSW,257,3.0,6.0,70,0.00,,,0.00,VWS V14.01,2013-02-02 07:42:00,
2013-02-02 02:43:00,16.8,8.7,30.24,NW,308,0.0,6.0,70,0.00,,,0.00,VWS V14.01,2013-02-02 07:43:00,
2013-02-02 02:46:00,16.7,8.6,30.25,West,265,2.0,8.0,70,0.00,,,0.00,VWS V14.01,2013-02-02 07:46:00,
2013-02-02 02:47:00,16.7,8.6,30.25,West,265,1.0,8.0,70,0.00,,,0.00,VWS V14.01,2013-02-02 07:47:00,
2013-02-02 02:48:00,16.7,8.6,30.25,WSW,244,2.0,8.0,70,0.00,,,0.00,VWS V14.01,2013-02-02 07:48:00,
2013-02-02 02:49:00,16.7,8.6,30.25,SSW,204,0.0,8.0,70,0.00,,,0.00,VWS V14.01,2013-02-02 07:49:00,
2013-02-02 02:50:00,16.6,8.5,30.25,West,259,2.0,8.0,70,0.00,,,0.00,VWS V14.01,2013-02-02 07:50:00,
2013-02-02 02:51:00,16.7,8.6,30.25,West,271,3.0,4.0,70,0.00,,,0.00,VWS V14.01,2013-02-02 07:51:00,
2013-02-02 02:52:00,16.6,8.5,30.25,WSW,254,4.0,5.0,70,0.00,,,0.00,VWS V14.01,2013-02-02 07:52:00,
2013-02-02 02:53:00,16.6,8.5,30.25,WSW,254,0.0,5.0,70,0.00,,,0.00,VWS V14.01,2013-02-02 07:53:00,
2013-02-02 02:54:00,16.6,8.5,30.25,WSW,254,1.0,5.0,70,0.00,,,0.00,VWS V14.01,2013-02-02 07:54:00,
2013-02-02 02:55:00,16.6,8.5,30.25,West,281,4.0,5.0,70,0.00,,,0.00,VWS V14.01,2013-02-02 07:55:00,
2013-02-02 02:56:00,16.6,8.5,30.25,WNW,282,2.0,5.0,70,0.00,,,0.00,VWS V14.01,2013-02-02 07:56:00,
2013-02-02 02:57:00,16.6,8.5,30.25,SW,234,4.0,5.0,70,0.00,,,0.00,VWS V14.01,2013-02-02 07:57:00,
2013-02-02 02:58:00,16.6,8.5,30.25,WSW,242,1.0,5.0,70,0.00,,,0.00,VWS V14.01,2013-02-02 07:58:00,
2013-02-02 02:59:00,16.5,8.4,30.25,WSW,250,2.0,5.0,70,0.00,,,0.00,VWS V14.01,2013-02-02 07:59:00,
2013-02-02 03:00:00,16.5,8.4,30.25,WSW,250,0.0,5.0,70,0.00,,,0.00,VWS V14.01,2013-02-02 08:00:00,
2013-02-02 03:01:00,16.5,8.4,30.25,WSW,246,0.0,3.0,70,0.00,,,0.00,VWS V14.01,2013-02-02 08:01:00,
2013-02-02 03:02:00,16.5,8.4,30.25,WSW,246,2.0,3.0,70,0.00,,,0.00,VWS V14.01,2013-02-02 08:02:00,
2013-02-02 03:03:00,16.5,8.4,30.25,WSW,250,1.0,4.0,70,0.00,,,0.00,VWS V14.01,2013-02-02 08:03:00,
2013-02-02 03:04:00,16.5,8.4,30.25,WSW,250,0.0,4.0,70,0.00,,,0.00,VWS V14.01,2013-02-02 08:04:00,
2013-02-02 03:05:00,16.5,8.4,30.25,WSW,250,2.0,4.0,70,0.00,,,0.00,VWS V14.01,2013-02-02 08:05:00,
2013-02-02 03:06:00,16.5,8.4,30.25,WSW,245,4.0,4.0,70,0.00,,,0.00,VWS V14.01,2013-02-02 08:06:00,
2013-02-02 03:07:00,16.4,8.3,30.25,WSW,258,3.0,4.0,70,0.00,,,0.00,VWS V14.01,2013-02-02 08:07:00,
2013-02-02 03:08:00,16.4,8.3,30.25,WSW,257,2.0,6.0,70,0.00,,,0.00,VWS V14.01,2013-02-02 08:08:00,
2013-02-02 03:09:00,16.4,8.3,30.25,WSW,248,4.0,6.0,70,0.00,,,0.00,VWS V14.01,2013-02-02 08:09:00,
2013-02-02 03:10:00,16.4,8.3,30.25,WSW,246,9.0,9.0,70,0.00,,,0.00,VWS V14.01,2013-02-02 08:10:00,
2013-02-02 03:11:00,16.4,8.3,30.25,WNW,298,5.0,8.0,70,0.00,,,0.00,VWS V14.01,2013-02-02 08:11:00,
2013-02-02 03:12:00,16.4,8.3,30.25,WNW,284,4.0,10.0,70,0.00,,,0.00,VWS V14.01,2013-02-02 08:12:00,
2013-02-02 03:13:00,16.4,8.3,30.25,NW,317,2.0,10.0,70,0.00,,,0.00,VWS V14.01,2013-02-02 08:13:00,
2013-02-02 03:14:00,16.3,8.2,30.25,NW,317,1.0,10.0,70,0.00,,,0.00,VWS V14.01,2013-02-02 08:14:00,
2013-02-02 03:15:00,16.3,8.2,30.25,WNW,284,5.0,10.0,70,0.00,,,0.00,VWS V14.01,2013-02-02 08:15:00,
2013-02-02 03:16:00,16.3,8.2,30.25,SW,229,9.0,10.0,70,0.00,,,0.00,VWS V14.01,2013-02-02 08:16:00,
2013-02-02 03:17:00,16.3,8.2,30.25,WNW,296,6.0,10.0,70,0.00,,,0.00,VWS V14.01,2013-02-02 08:17:00,
2013-02-02 03:18:00,16.3,8.2,30.25,West,267,9.0,10.0,70,0.00,,,0.00,VWS V14.01,2013-02-02 08:18:00,
2013-02-02 03:19:00,16.3,8.2,30.25,NW,309,2.0,10.0,70,0.00,,,0.00,VWS V14.01,2013-02-02 08:19:00,
2013-02-02 03:20:00,16.3,8.2,30.25,West,274,0.0,10.0,70,0.00,,,0.00,VWS V14.01,2013-02-02 08:20:00,
2013-02-02 03:21:00,16.3,8.2,30.25,SSW,208,4.0,4.0,70,0.00,,,0.00,VWS V14.01,2013-02-02 08:21:00,
2013-02-02 03:22:00,16.3,8.2,30.25,SSW,213,3.0,4.0,70,0.00,,,0.00,VWS V14.01,2013-02-02 08:22:00,
2013-02-02 03:23:00,16.3,8.2,30.25,West,279,5.0,9.0,70,0.00,,,0.00,VWS V14.01,2013-02-02 08:23:00,
2013-02-02 03:24:00,16.2,8.1,30.25,WSW,246,7.0,9.0,70,0.00,,,0.00,VWS V14.01,2013-02-02 08:24:00,
2013-02-02 03:25:00,16.2,8.1,30.25,WSW,256,5.0,9.0,70,0.00,,,0.00,VWS V14.01,2013-02-02 08:25:00,
2013-02-02 03:26:00,16.2,8.1,30.25,WSW,248,3.0,9.0,70,0.00,,,0.00,VWS V14.01,2013-02-02 08:26:00,
2013-02-02 03:27:00,16.2,8.1,30.25,WSW,248,2.0,9.0,70,0.00,,,0.00,VWS V14.01,2013-02-02 08:27:00,
2013-02-02 03:28:00,16.2,8.1,30.25,WSW,251,3.0,9.0,70,0.00,,,0.00,VWS V14.01,2013-02-02 08:28:00,
2013-02-02 03:29:00,16.2,8.1,30.25,ENE,69,0.0,9.0,70,0.00,,,0.00,VWS V14.01,2013-02-02 08:29:00,
2013-02-02 03:30:00,16.2,8.1,30.25,West,266,2.0,9.0,70,0.00,,,0.00,VWS V14.01,2013-02-02 08:30:00,
2013-02-02 03:31:00,16.2,8.1,30.25,WSW,240,3.0,3.0,70,0.00,,,0.00,VWS V14.01,2013-02-02 08:31:00,
2013-02-02 03:32:00,16.1,8.1,30.25,West,261,3.0,6.0,70,0.00,,,0.00,VWS V14.01,2013-02-02 08:32:00,
2013-02-02 03:33:00,16.1,8.1,30.25,West,259,0.0,6.0,70,0.00,,,0.00,VWS V14.01,2013-02-02 08:33:00,
2013-02-02 03:34:00,16.1,8.1,30.25,West,267,3.0,7.0,70,0.00,,,0.00,VWS V14.01,2013-02-02 08:34:00,
2013-02-02 03:35:00,16.1,8.1,30.25,WSW,240,4.0,7.0,70,0.00,,,0.00,VWS V14.01,2013-02-02 08:35:00,
2013-02-02 03:36:00,16.1,8.1,30.25,WSW,246,0.0,7.0,70,0.00,,,0.00,VWS V14.01,2013-02-02 08:36:00,
2013-02-02 03:37:00,16.1,8.1,30.25,WSW,248,3.0,7.0,70,0.00,,,0.00,VWS V14.01,2013-02-02 08:37:00,
2013-02-02 03:38:00,16.0,8.0,30.25,WSW,253,2.0,7.0,70,0.00,,,0.00,VWS V14.01,2013-02-02 08:38:00,
2013-02-02 03:39:00,16.1,8.1,30.25,West,271,4.0,7.0,70,0.00,,,0.00,VWS V14.01,2013-02-02 08:39:00,
2013-02-02 03:40:00,16.0,8.0,30.25,West,277,0.0,7.0,70,0.00,,,0.00,VWS V14.01,2013-02-02 08:40:00,
2013-02-02 03:41:00,16.0,8.0,30.25,West,275,2.0,3.0,70,0.00,,,0.00,VWS V14.01,2013-02-02 08:41:00,
2013-02-02 03:42:00,16.0,8.0,30.25,WNW,286,0.0,4.0,70,0.00,,,0.00,VWS V14.01,2013-02-02 08:42:00,
2013-02-02 03:43:00,16.0,8.0,30.25,WNW,286,1.0,4.0,70,0.00,,,0.00,VWS V14.01,2013-02-02 08:43:00,
2013-02-02 03:44:00,16.0,8.0,30.25,West,275,4.0,4.0,70,0.00,,,0.00,VWS V14.01,2013-02-02 08:44:00,
2013-02-02 03:45:00,16.0,8.0,30.25,WNW,288,1.0,4.0,70,0.00,,,0.00,VWS V14.01,2013-02-02 08:45:00,
2013-02-02 03:46:00,16.0,8.0,30.25,WNW,288,0.0,4.0,70,0.00,,,0.00,VWS V14.01,2013-02-02 08:46:00,
2013-02-02 03:47:00,15.9,7.9,30.25,WNW,287,3.0,4.0,70,0.00,,,0.00,VWS V14.01,2013-02-02 08:47:00,
2013-02-02 03:48:00,15.9,7.9,30.25,West,279,0.0,4.0,70,0.00,,,0.00,VWS V14.01,2013-02-02 08:48:00,
2013-02-02 03:49:00,15.9,7.9,30.25,West,275,0.0,4.0,70,0.00,,,0.00,VWS V14.01,2013-02-02 08:49:00,
2013-02-02 03:50:00,15.9,7.9,30.25,West,275,2.0,4.0,70,0.00,,,0.00,VWS V14.01,2013-02-02 08:50:00,
2013-02-02 03:51:00,15.9,8.2,30.25,WSW,240,5.0,5.0,71,0.00,,,0.00,VWS V14.01,2013-02-02 08:51:00,
2013-02-02 03:52:00,15.9,8.2,30.25,West,271,4.0,7.0,71,0.00,,,0.00,VWS V14.01,2013-02-02 08:52:00,
2013-02-02 03:53:00,15.9,8.2,30.25,NW,308,3.0,7.0,71,0.00,,,0.00,VWS V14.01,2013-02-02 08:53:00,
2013-02-02 03:54:00,15.9,7.9,30.25,WNW,296,4.0,8.0,70,0.00,,,0.00,VWS V14.01,2013-02-02 08:54:00,
2013-02-02 03:55:00,15.9,8.2,30.25,WSW,252,4.0,8.0,71,0.00,,,0.00,VWS V14.01,2013-02-02 08:55:00,
2013-02-02 03:56:00,15.8,8.1,30.25,West,265,4.0,8.0,71,0.00,,,0.00,VWS V14.01,2013-02-02 08:56:00,
2013-02-02 03:57:00,15.8,7.8,30.25,NW,315,2.0,8.0,70,0.00,,,0.00,VWS V14.01,2013-02-02 08:57:00,
2013-02-02 03:58:00,15.8,7.8,30.25,NW,306,1.0,8.0,70,0.00,,,0.00,VWS V14.01,2013-02-02 08:58:00,
2013-02-02 03:59:00,15.8,7.8,30.25,West,279,3.0,8.0,70,0.00,,,0.00,VWS V14.01,2013-02-02 08:59:00,
2013-02-02 04:00:00,15.8,7.8,30.24,West,263,4.0,8.0,70,0.00,,,0.00,VWS V14.01,2013-02-02 09:00:00,
2013-02-02 04:01:00,15.8,7.8,30.24,West,263,1.0,2.0,70,0.00,,,0.00,VWS V14.01,2013-02-02 09:01:00,
2013-02-02 04:02:00,15.8,7.8,30.24,WSW,253,4.0,4.0,70,0.00,,,0.00,VWS V14.01,2013-02-02 09:02:00,
2013-02-02 04:03:00,15.7,7.7,30.24,WSW,252,1.0,4.0,70,0.00,,,0.00,VWS V14.01,2013-02-02 09:03:00,
2013-02-02 04:04:00,15.7,7.7,30.24,WSW,252,0.0,4.0,70,0.00,,,0.00,VWS V14.01,2013-02-02 09:04:00,
2013-02-02 04:05:00,15.7,8.0,30.24,WSW,242,4.0,6.0,71,0.00,,,0.00,VWS V14.01,2013-02-02 09:05:00,
2013-02-02 04:06:00,15.7,8.0,30.24,West,260,3.0,6.0,71,0.00,,,0.00,VWS V14.01,2013-02-02 09:06:00,
2013-02-02 04:07:00,15.7,7.7,30.24,West,263,3.0,7.0,70,0.00,,,0.00,VWS V14.01,2013-02-02 09:07:00,
2013-02-02 04:08:00,15.7,7.7,30.24,WSW,243,4.0,7.0,70,0.00,,,0.00,VWS V14.01,2013-02-02 09:08:00,
2013-02-02 04:09:00,15.7,7.7,30.24,WNW,290,4.0,7.0,70,0.00,,,0.00,VWS V14.01,2013-02-02 09:09:00,
2013-02-02 04:10:00,15.7,7.7,30.24,West,272,4.0,7.0,70,0.00,,,0.00,VWS V14.01,2013-02-02 09:10:00,
2013-02-02 04:11:00,15.7,8.0,30.24,West,271,4.0,8.0,71,0.00,,,0.00,VWS V14.01,2013-02-02 09:11:00,
2013-02-02 04:12:00,15.7,7.7,30.24,WSW,241,4.0,8.0,70,0.00,,,0.00,VWS V14.01,2013-02-02 09:12:00,
2013-02-02 04:13:00,15.6,7.6,30.24,WSW,250,2.0,8.0,70,0.00,,,0.00,VWS V14.01,2013-02-02 09:13:00,
2013-02-02 04:14:00,15.7,7.7,30.24,West,260,1.0,8.0,70,0.00,,,0.00,VWS V14.01,2013-02-02 09:14:00,
2013-02-02 04:15:00,15.6,7.6,30.25,West,263,4.0,8.0,70,0.00,,,0.00,VWS V14.01,2013-02-02 09:15:00,
2013-02-02 04:16:00,15.6,7.6,30.25,WNW,285,5.0,8.0,70,0.00,,,0.00,VWS V14.01,2013-02-02 09:16:00,
2013-02-02 04:17:00,15.6,7.6,30.25,West,273,0.0,8.0,70,0.00,,,0.00,VWS V14.01,2013-02-02 09:17:00,
2013-02-02 04:18:00,15.6,7.6,30.25,WSW,254,5.0,8.0,70,0.00,,,0.00,VWS V14.01,2013-02-02 09:18:00,
2013-02-02 04:19:00,15.6,7.6,30.25,WSW,253,0.0,8.0,70,0.00,,,0.00,VWS V14.01,2013-02-02 09:19:00,
2013-02-02 04:20:00,15.6,7.6,30.25,WSW,256,1.0,8.0,70,0.00,,,0.00,VWS V14.01,2013-02-02 09:20:00,
2013-02-02 04:21:00,15.6,7.6,30.25,WSW,253,1.0,3.0,70,0.00,,,0.00,VWS V14.01,2013-02-02 09:21:00,
2013-02-02 04:22:00,15.6,7.6,30.25,WSW,252,3.0,3.0,70,0.00,,,0.00,VWS V14.01,2013-02-02 09:22:00,
2013-02-02 04:23:00,15.6,7.6,30.25,WNW,289,2.0,3.0,70,0.00,,,0.00,VWS V14.01,2013-02-02 09:23:00,
2013-02-02 04:24:00,15.6,7.9,30.25,West,266,0.0,4.0,71,0.00,,,0.00,VWS V14.01,2013-02-02 09:24:00,
2013-02-02 04:25:00,15.5,7.8,30.25,WSW,238,2.0,4.0,71,0.00,,,0.00,VWS V14.01,2013-02-02 09:25:00,
2013-02-02 04:26:00,15.6,7.9,30.25,WSW,250,3.0,4.0,71,0.00,,,0.00,VWS V14.01,2013-02-02 09:26:00,
2013-02-02 04:27:00,15.5,7.8,30.25,West,267,6.0,8.0,71,0.00,,,0.00,VWS V14.01,2013-02-02 09:27:00,
2013-02-02 04:28:00,15.5,7.8,30.25,West,273,2.0,8.0,71,0.00,,,0.00,VWS V14.01,2013-02-02 09:28:00,
2013-02-02 04:29:00,15.5,7.8,30.25,WSW,244,1.0,8.0,71,0.00,,,0.00,VWS V14.01,2013-02-02 09:29:00,
2013-02-02 04:30:00,15.5,7.8,30.25,WSW,249,2.0,8.0,71,0.00,,,0.00,VWS V14.01,2013-02-02 09:30:00,
2013-02-02 04:31:00,15.5,7.8,30.25,NNW,337,1.0,2.0,71,0.00,,,0.00,VWS V14.01,2013-02-02 09:31:00,
2013-02-02 04:32:00,15.5,7.8,30.25,NW,315,0.0,4.0,71,0.00,,,0.00,VWS V14.01,2013-02-02 09:32:00,
2013-02-02 04:33:00,15.5,7.8,30.25,NW,315,0.0,4.0,71,0.00,,,0.00,VWS V14.01,2013-02-02 09:33:00,
2013-02-02 04:34:00,15.5,7.8,30.25,NW,313,2.0,4.0,71,0.00,,,0.00,VWS V14.01,2013-02-02 09:34:00,
2013-02-02 04:35:00,15.5,7.8,30.25,WSW,253,2.0,4.0,71,0.00,,,0.00,VWS V14.01,2013-02-02 09:35:00,
2013-02-02 04:36:00,15.5,7.8,30.25,WSW,253,0.0,4.0,71,0.00,,,0.00,VWS V14.01,2013-02-02 09:36:00,
2013-02-02 04:37:00,15.5,7.8,30.25,West,268,0.0,4.0,71,0.00,,,0.00,VWS V14.01,2013-02-02 09:37:00,
2013-02-02 04:38:00,15.5,7.8,30.25,West,281,1.0,4.0,71,0.00,,,0.00,VWS V14.01,2013-02-02 09:38:00,
2013-02-02 04:39:00,15.5,7.8,30.25,West,267,2.0,4.0,71,0.00,,,0.00,VWS V14.01,2013-02-02 09:39:00,
2013-02-02 04:40:00,15.4,7.7,30.25,West,267,1.0,4.0,71,0.00,,,0.00,VWS V14.01,2013-02-02 09:40:00,
2013-02-02 04:41:00,15.4,7.7,30.25,West,267,1.0,1.0,71,0.00,,,0.00,VWS V14.01,2013-02-02 09:41:00,
2013-02-02 04:42:00,15.4,7.7,30.25,West,267,1.0,1.0,71,0.00,,,0.00,VWS V14.01,2013-02-02 09:42:00,
2013-02-02 04:43:00,15.4,7.7,30.25,West,263,2.0,4.0,71,0.00,,,0.00,VWS V14.01,2013-02-02 09:43:00,
2013-02-02 04:44:00,15.4,7.7,30.25,West,266,4.0,4.0,71,0.00,,,0.00,VWS V14.01,2013-02-02 09:44:00,
2013-02-02 04:45:00,15.4,7.7,30.25,WSW,251,0.0,4.0,71,0.00,,,0.00,VWS V14.01,2013-02-02 09:45:00,
2013-02-02 04:46:00,15.4,7.7,30.25,WSW,252,0.0,4.0,71,0.00,,,0.00,VWS V14.01,2013-02-02 09:46:00,
2013-02-02 04:47:00,15.4,7.7,30.25,NW,313,1.0,5.0,71,0.00,,,0.00,VWS V14.01,2013-02-02 09:47:00,
2013-02-02 04:48:00,15.3,7.6,30.25,NW,311,1.0,5.0,71,0.00,,,0.00,VWS V14.01,2013-02-02 09:48:00,
2013-02-02 04:49:00,15.3,7.6,30.25,NW,311,0.0,5.0,71,0.00,,,0.00,VWS V14.01,2013-02-02 09:49:00,
2013-02-02 04:50:00,15.3,7.6,30.25,WNW,293,2.0,5.0,71,0.00,,,0.00,VWS V14.01,2013-02-02 09:50:00,
2013-02-02 04:51:00,15.3,7.6,30.25,WNW,293,0.0,2.0,71,0.00,,,0.00,VWS V14.01,2013-02-02 09:51:00,
2013-02-02 04:52:00,15.3,7.6,30.25,WNW,293,0.0,2.0,71,0.00,,,0.00,VWS V14.01,2013-02-02 09:52:00,
2013-02-02 04:53:00,15.3,7.6,30.25,WNW,293,0.0,2.0,71,0.00,,,0.00,VWS V14.01,2013-02-02 09:53:00,
2013-02-02 04:54:00,15.3,7.6,30.25,WNW,293,0.0,2.0,71,0.00,,,0.00,VWS V14.01,2013-02-02 09:54:00,
2013-02-02 04:55:00,15.3,7.6,30.25,WNW,293,0.0,2.0,71,0.00,,,0.00,VWS V14.01,2013-02-02 09:55:00,
2013-02-02 04:56:00,15.3,7.6,30.25,WNW,293,1.0,2.0,71,0.00,,,0.00,VWS V14.01,2013-02-02 09:56:00,
2013-02-02 04:57:00,15.2,7.8,30.25,SW,232,0.0,4.0,72,0.00,,,0.00,VWS V14.01,2013-02-02 09:57:00,
2013-02-02 04:58:00,15.2,7.8,30.25,WSW,252,0.0,4.0,72,0.00,,,0.00,VWS V14.01,2013-02-02 09:58:00,
2013-02-02 04:59:00,15.2,7.8,30.25,WSW,252,3.0,4.0,72,0.00,,,0.00,VWS V14.01,2013-02-02 09:59:00,
2013-02-02 05:00:00,15.2,7.8,30.24,West,264,3.0,4.0,72,0.00,,,0.00,VWS V14.01,2013-02-02 10:00:00,
2013-02-02 05:01:00,15.2,7.8,30.24,West,264,0.0,2.0,72,0.00,,,0.00,VWS V14.01,2013-02-02 10:01:00,
2013-02-02 05:02:00,15.2,7.8,30.24,West,264,0.0,2.0,72,0.00,,,0.00,VWS V14.01,2013-02-02 10:02:00,
2013-02-02 05:03:00,15.2,7.8,30.24,West,263,4.0,6.0,72,0.00,,,0.00,VWS V14.01,2013-02-02 10:03:00,
2013-02-02 05:04:00,15.2,7.8,30.24,West,267,2.0,6.0,72,0.00,,,0.00,VWS V14.01,2013-02-02 10:04:00,
2013-02-02 05:05:00,15.1,7.7,30.24,West,277,2.0,6.0,72,0.00,,,0.00,VWS V14.01,2013-02-02 10:05:00,
2013-02-02 05:06:00,15.1,7.7,30.24,WNW,296,7.0,7.0,72,0.00,,,0.00,VWS V14.01,2013-02-02 10:06:00,
2013-02-02 05:07:00,15.1,7.7,30.24,West,261,2.0,7.0,72,0.00,,,0.00,VWS V14.01,2013-02-02 10:07:00,
2013-02-02 05:08:00,15.1,7.7,30.24,WSW,256,0.0,7.0,72,0.00,,,0.00,VWS V14.01,2013-02-02 10:08:00,
2013-02-02 05:09:00,15.1,7.7,30.24,WSW,256,0.0,7.0,72,0.00,,,0.00,VWS V14.01,2013-02-02 10:09:00,
2013-02-02 05:10:00,15.1,7.7,30.24,West,261,2.0,7.0,72,0.00,,,0.00,VWS V14.01,2013-02-02 10:10:00,
2013-02-02 05:11:00,15.1,7.7,30.24,West,261,1.0,3.0,72,0.00,,,0.00,VWS V14.01,2013-02-02 10:11:00,
2013-02-02 05:12:00,15.0,7.6,30.24,West,261,0.0,3.0,72,0.00,,,0.00,VWS V14.01,2013-02-02 10:12:00,
2013-02-02 05:13:00,15.0,7.6,30.24,West,261,1.0,3.0,72,0.00,,,0.00,VWS V14.01,2013-02-02 10:13:00,
2013-02-02 05:14:00,15.0,7.6,30.24,West,261,0.0,3.0,72,0.00,,,0.00,VWS V14.01,2013-02-02 10:14:00,
2013-02-02 05:15:00,15.0,7.6,30.25,West,261,0.0,3.0,72,0.00,,,0.00,VWS V14.01,2013-02-02 10:15:00,
2013-02-02 05:16:00,15.0,7.6,30.25,WSW,251,1.0,3.0,72,0.00,,,0.00,VWS V14.01,2013-02-02 10:16:00,
2013-02-02 05:17:00,15.0,7.6,30.25,WSW,251,1.0,3.0,72,0.00,,,0.00,VWS V14.01,2013-02-02 10:17:00,
2013-02-02 05:18:00,15.0,7.6,30.25,WSW,252,0.0,3.0,72,0.00,,,0.00,VWS V14.01,2013-02-02 10:18:00,
2013-02-02 05:19:00,15.0,7.6,30.25,WSW,252,0.0,3.0,72,0.00,,,0.00,VWS V14.01,2013-02-02 10:19:00,
2013-02-02 05:20:00,15.0,7.6,30.25,WSW,252,4.0,4.0,72,0.00,,,0.00,VWS V14.01,2013-02-02 10:20:00,
2013-02-02 05:21:00,15.0,7.6,30.25,West,267,3.0,4.0,72,0.00,,,0.00,VWS V14.01,2013-02-02 10:21:00,
2013-02-02 05:22:00,15.0,7.6,30.25,WNW,290,2.0,4.0,72,0.00,,,0.00,VWS V14.01,2013-02-02 10:22:00,
2013-02-02 05:23:00,14.9,7.5,30.25,WNW,290,0.0,4.0,72,0.00,,,0.00,VWS V14.01,2013-02-02 10:23:00,
2013-02-02 05:24:00,14.9,7.5,30.25,WNW,290,2.0,4.0,72,0.00,,,0.00,VWS V14.01,2013-02-02 10:24:00,
2013-02-02 05:25:00,14.9,7.5,30.25,WNW,296,1.0,4.0,72,0.00,,,0.00,VWS V14.01,2013-02-02 10:25:00,
2013-02-02 05:26:00,14.9,7.5,30.25,West,267,0.0,4.0,72,0.00,,,0.00,VWS V14.01,2013-02-02 10:26:00,
2013-02-02 05:27:00,14.9,7.5,30.25,West,267,0.0,4.0,72,0.00,,,0.00,VWS V14.01,2013-02-02 10:27:00,
2013-02-02 05:28:00,14.9,7.5,30.25,West,268,2.0,4.0,72,0.00,,,0.00,VWS V14.01,2013-02-02 10:28:00,
2013-02-02 05:29:00,14.9,7.5,30.25,West,268,0.0,4.0,72,0.00,,,0.00,VWS V14.01,2013-02-02 10:29:00,
2013-02-02 05:30:00,14.9,7.5,30.24,West,269,0.0,4.0,72,0.00,,,0.00,VWS V14.01,2013-02-02 10:30:00,
2013-02-02 05:31:00,14.9,7.5,30.24,West,269,2.0,2.0,72,0.00,,,0.00,VWS V14.01,2013-02-02 10:31:00,
2013-02-02 05:32:00,14.9,7.5,30.24,West,269,1.0,2.0,72,0.00,,,0.00,VWS V14.01,2013-02-02 10:32:00,
2013-02-02 05:33:00,14.9,7.5,30.24,West,268,4.0,4.0,72,0.00,,,0.00,VWS V14.01,2013-02-02 10:33:00,
2013-02-02 05:34:00,14.8,7.4,30.24,West,270,2.0,4.0,72,0.00,,,0.00,VWS V14.01,2013-02-02 10:34:00,
2013-02-02 05:35:00,14.8,7.4,30.24,West,269,0.0,4.0,72,0.00,,,0.00,VWS V14.01,2013-02-02 10:35:00,
2013-02-02 05:36:00,14.8,7.7,30.24,WSW,242,2.0,4.0,73,0.00,,,0.00,VWS V14.01,2013-02-02 10:36:00,
2013-02-02 05:37:00,14.8,7.7,30.24,West,261,4.0,4.0,73,0.00,,,0.00,VWS V14.01,2013-02-02 10:37:00,
2013-02-02 05:38:00,14.8,7.7,30.24,West,263,0.0,4.0,73,0.00,,,0.00,VWS V14.01,2013-02-02 10:38:00,
2013-02-02 05:39:00,14.8,7.7,30.24,West,263,1.0,4.0,73,0.00,,,0.00,VWS V14.01,2013-02-02 10:39:00,
2013-02-02 05:40:00,14.8,7.7,30.24,West,263,0.0,4.0,73,0.00,,,0.00,VWS V14.01,2013-02-02 10:40:00,
2013-02-02 05:41:00,14.8,7.7,30.24,West,263,0.0,0.0,73,0.00,,,0.00,VWS V14.01,2013-02-02 10:41:00,
2013-02-02 05:42:00,14.8,7.7,30.24,West,263,0.0,0.0,73,0.00,,,0.00,VWS V14.01,2013-02-02 10:42:00,
2013-02-02 05:43:00,14.8,7.7,30.24,West,263,0.0,0.0,73,0.00,,,0.00,VWS V14.01,2013-02-02 10:43:00,
2013-02-02 05:44:00,14.8,7.7,30.24,West,263,0.0,1.0,73,0.00,,,0.00,VWS V14.01,2013-02-02 10:44:00,
2013-02-02 05:45:00,14.8,7.7,30.24,West,263,0.0,1.0,73,0.00,,,0.00,VWS V14.01,2013-02-02 10:45:00,
2013-02-02 05:46:00,14.8,7.7,30.24,West,263,2.0,2.0,73,0.00,,,0.00,VWS V14.01,2013-02-02 10:46:00,
2013-02-02 05:47:00,14.7,7.6,30.24,WNW,288,0.0,2.0,73,0.00,,,0.00,VWS V14.01,2013-02-02 10:47:00,
2013-02-02 05:48:00,14.7,7.6,30.24,WNW,288,0.0,2.0,73,0.00,,,0.00,VWS V14.01,2013-02-02 10:48:00,
2013-02-02 05:49:00,14.6,7.5,30.24,WNW,288,0.0,2.0,73,0.00,,,0.00,VWS V14.01,2013-02-02 10:49:00,
2013-02-02 05:50:00,14.7,7.6,30.24,WNW,288,2.0,2.0,73,0.00,,,0.00,VWS V14.01,2013-02-02 10:50:00,
2013-02-02 05:51:00,14.7,7.6,30.24,WNW,288,0.0,1.0,73,0.00,,,0.00,VWS V14.01,2013-02-02 10:51:00,
2013-02-02 05:52:00,14.6,7.5,30.24,WNW,287,1.0,3.0,73,0.00,,,0.00,VWS V14.01,2013-02-02 10:52:00,
2013-02-02 05:53:00,14.6,7.5,30.24,WNW,287,0.0,3.0,73,0.00,,,0.00,VWS V14.01,2013-02-02 10:53:00,
2013-02-02 05:54:00,14.6,7.5,30.24,WNW,286,0.0,3.0,73,0.00,,,0.00,VWS V14.01,2013-02-02 10:54:00,
2013-02-02 05:55:00,14.6,7.5,30.24,WNW,286,0.0,3.0,73,0.00,,,0.00,VWS V14.01,2013-02-02 10:55:00,
2013-02-02 05:56:00,14.6,7.5,30.24,WNW,287,0.0,3.0,73,0.00,,,0.00,VWS V14.01,2013-02-02 10:56:00,
2013-02-02 05:57:00,14.6,7.5,30.24,WNW,287,1.0,3.0,73,0.00,,,0.00,VWS V14.01,2013-02-02 10:57:00,
2013-02-02 05:58:00,14.6,7.5,30.24,WNW,286,2.0,3.0,73,0.00,,,0.00,VWS V14.01,2013-02-02 10:58:00,
2013-02-02 05:59:00,14.5,7.4,30.24,WNW,286,0.0,3.0,73,0.00,,,0.00,VWS V14.01,2013-02-02 10:59:00,
2013-02-02 06:00:00,14.5,7.4,30.25,WNW,286,0.0,3.0,73,0.00,,,0.00,VWS V14.01,2013-02-02 11:00:00,
2013-02-02 06:01:00,14.5,7.4,30.25,WNW,286,0.0,0.0,73,0.00,,,0.00,VWS V14.01,2013-02-02 11:01:00,
2013-02-02 06:02:00,14.5,7.4,30.25,WNW,286,0.0,0.0,73,0.00,,,0.00,VWS V14.01,2013-02-02 11:02:00,
2013-02-02 06:03:00,14.5,7.4,30.25,WNW,286,0.0,0.0,73,0.00,,,0.00,VWS V14.01,2013-02-02 11:03:00,
2013-02-02 06:04:00,14.5,7.4,30.25,WNW,286,0.0,1.0,73,0.00,,,0.00,VWS V14.01,2013-02-02 11:04:00,
2013-02-02 06:05:00,14.5,7.4,30.25,WNW,286,0.0,1.0,73,0.00,,,0.00,VWS V14.01,2013-02-02 11:05:00,
2013-02-02 06:06:00,14.5,7.4,30.25,WNW,287,2.0,2.0,73,0.00,,,0.00,VWS V14.01,2013-02-02 11:06:00,
2013-02-02 06:07:00,14.4,7.3,30.25,WNW,287,0.0,2.0,73,0.00,,,0.00,VWS V14.01,2013-02-02 11:07:00,
2013-02-02 06:08:00,14.5,7.4,30.25,WNW,287,0.0,2.0,73,0.00,,,0.00,VWS V14.01,2013-02-02 11:08:00,
2013-02-02 06:09:00,14.4,7.3,30.25,West,259,0.0,3.0,73,0.00,,,0.00,VWS V14.01,2013-02-02 11:09:00,
2013-02-02 06:10:00,14.4,7.3,30.25,West,259,1.0,3.0,73,0.00,,,0.00,VWS V14.01,2013-02-02 11:10:00,
2013-02-02 06:11:00,14.4,7.3,30.25,West,259,0.0,3.0,73,0.00,,,0.00,VWS V14.01,2013-02-02 11:11:00,
2013-02-02 06:12:00,14.4,7.3,30.25,West,260,0.0,3.0,73,0.00,,,0.00,VWS V14.01,2013-02-02 11:12:00,
2013-02-02 06:13:00,14.4,7.3,30.25,West,259,0.0,3.0,73,0.00,,,0.00,VWS V14.01,2013-02-02 11:13:00,
2013-02-02 06:14:00,14.4,7.3,30.25,West,260,0.0,3.0,73,0.00,,,0.00,VWS V14.01,2013-02-02 11:14:00,
2013-02-02 06:15:00,14.4,7.3,30.25,West,260,0.0,3.0,73,0.00,,,0.00,VWS V14.01,2013-02-02 11:15:00,
2013-02-02 06:16:00,14.4,7.3,30.25,West,262,0.0,3.0,73,0.00,,,0.00,VWS V14.01,2013-02-02 11:16:00,
2013-02-02 06:17:00,14.4,7.3,30.25,West,263,0.0,3.0,73,0.00,,,0.00,VWS V14.01,2013-02-02 11:17:00,
2013-02-02 06:18:00,14.4,7.3,30.25,West,263,0.0,3.0,73,0.00,,,0.00,VWS V14.01,2013-02-02 11:18:00,
2013-02-02 06:19:00,14.4,7.3,30.25,West,262,0.0,3.0,73,0.00,,,0.00,VWS V14.01,2013-02-02 11:19:00,
2013-02-02 06:20:00,14.4,7.3,30.25,West,262,0.0,3.0,73,0.00,,,0.00,VWS V14.01,2013-02-02 11:20:00,
2013-02-02 06:21:00,14.4,7.3,30.25,West,262,0.0,0.0,73,0.00,,,0.00,VWS V14.01,2013-02-02 11:21:00,
2013-02-02 06:22:00,14.4,7.6,30.25,West,262,0.0,1.0,74,0.00,,,0.00,VWS V14.01,2013-02-02 11:22:00,
2013-02-02 06:23:00,14.3,7.6,30.25,West,262,0.0,1.0,74,0.00,,,0.00,VWS V14.01,2013-02-02 11:23:00,
2013-02-02 06:24:00,14.3,7.6,30.25,West,263,0.0,1.0,74,0.00,,,0.00,VWS V14.01,2013-02-02 11:24:00,
2013-02-02 06:25:00,14.3,7.6,30.25,West,262,0.0,1.0,74,0.00,,,0.00,VWS V14.01,2013-02-02 11:25:00,
2013-02-02 06:26:00,14.3,7.6,30.25,West,262,0.0,1.0,74,0.00,,,0.00,VWS V14.01,2013-02-02 11:26:00,
2013-02-02 06:27:00,14.3,7.6,30.25,West,262,1.0,3.0,74,0.00,,,0.00,VWS V14.01,2013-02-02 11:27:00,
2013-02-02 06:28:00,14.3,7.6,30.25,West,262,0.0,3.0,74,0.00,,,0.00,VWS V14.01,2013-02-02 11:28:00,
2013-02-02 06:29:00,14.3,7.6,30.25,West,265,0.0,3.0,74,0.00,,,0.00,VWS V14.01,2013-02-02 11:29:00,
2013-02-02 06:30:00,14.3,7.6,30.26,West,265,0.0,3.0,74,0.00,,,0.00,VWS V14.01,2013-02-02 11:30:00,
2013-02-02 06:31:00,14.3,7.6,30.26,West,265,0.0,0.0,74,0.00,,,0.00,VWS V14.01,2013-02-02 11:31:00,
2013-02-02 06:32:00,14.2,7.4,30.26,West,265,0.0,1.0,74,0.00,,,0.00,VWS V14.01,2013-02-02 11:32:00,
2013-02-02 06:33:00,14.2,7.4,30.26,West,265,0.0,1.0,74,0.00,,,0.00,VWS V14.01,2013-02-02 11:33:00,
2013-02-02 06:34:00,14.2,7.4,30.26,West,265,0.0,1.0,74,0.00,,,0.00,VWS V14.01,2013-02-02 11:34:00,
2013-02-02 06:35:00,14.2,7.4,30.26,West,265,0.0,1.0,74,0.00,,,0.00,VWS V14.01,2013-02-02 11:35:00,
2013-02-02 06:36:00,14.2,7.4,30.26,West,265,0.0,1.0,74,0.00,,,0.00,VWS V14.01,2013-02-02 11:36:00,
2013-02-02 06:37:00,14.2,7.4,30.26,West,265,0.0,1.0,74,0.00,,,0.00,VWS V14.01,2013-02-02 11:37:00,
2013-02-02 06:38:00,14.2,7.4,30.26,West,265,0.0,1.0,74,0.00,,,0.00,VWS V14.01,2013-02-02 11:38:00,
2013-02-02 06:39:00,14.1,7.3,30.26,West,265,0.0,1.0,74,0.00,,,0.00,VWS V14.01,2013-02-02 11:39:00,
2013-02-02 06:40:00,14.1,7.3,30.26,West,265,0.0,1.0,74,0.00,,,0.00,VWS V14.01,2013-02-02 11:40:00,
2013-02-02 06:41:00,14.2,7.4,30.26,West,265,0.0,1.0,74,0.00,,,0.00,VWS V14.01,2013-02-02 11:41:00,
2013-02-02 06:42:00,14.1,7.3,30.26,West,265,0.0,1.0,74,0.00,,,0.00,VWS V14.01,2013-02-02 11:42:00,
2013-02-02 06:43:00,14.1,7.3,30.26,West,265,1.0,1.0,74,0.00,,,0.00,VWS V14.01,2013-02-02 11:43:00,
2013-02-02 06:44:00,14.1,7.3,30.26,West,265,0.0,2.0,74,0.00,,,0.00,VWS V14.01,2013-02-02 11:44:00,
2013-02-02 06:45:00,14.1,7.3,30.26,West,265,0.0,2.0,74,0.00,,,0.00,VWS V14.01,2013-02-02 11:45:00,
2013-02-02 06:46:00,14.1,7.3,30.26,West,265,0.0,2.0,74,0.00,,,0.00,VWS V14.01,2013-02-02 11:46:00,
2013-02-02 06:47:00,14.1,7.3,30.26,West,265,0.0,2.0,74,0.00,,,0.00,VWS V14.01,2013-02-02 11:47:00,
2013-02-02 06:48:00,14.1,7.3,30.26,West,265,0.0,2.0,74,0.00,,,0.00,VWS V14.01,2013-02-02 11:48:00,
2013-02-02 06:49:00,14.1,7.7,30.26,West,266,0.0,2.0,75,0.00,,,0.00,VWS V14.01,2013-02-02 11:49:00,
2013-02-02 06:50:00,14.1,7.3,30.26,West,270,0.0,2.0,74,0.00,,,0.00,VWS V14.01,2013-02-02 11:50:00,
2013-02-02 06:51:00,14.1,7.3,30.26,West,270,0.0,0.0,74,0.00,,,0.00,VWS V14.01,2013-02-02 11:51:00,
2013-02-02 06:52:00,14.1,7.3,30.26,West,270,0.0,0.0,74,0.00,,,0.00,VWS V14.01,2013-02-02 11:52:00,
2013-02-02 06:53:00,14.1,7.3,30.26,WSW,246,5.0,5.0,74,0.00,,,0.00,VWS V14.01,2013-02-02 11:53:00,
2013-02-02 06:54:00,14.1,7.7,30.26,WNW,294,3.0,5.0,75,0.00,,,0.00,VWS V14.01,2013-02-02 11:54:00,
2013-02-02 06:55:00,14.1,7.7,30.26,WNW,294,0.0,5.0,75,0.00,,,0.00,VWS V14.01,2013-02-02 11:55:00,
2013-02-02 06:56:00,14.0,7.6,30.26,WNW,294,0.0,5.0,75,0.00,,,0.00,VWS V14.01,2013-02-02 11:56:00,
2013-02-02 06:57:00,14.1,7.7,30.26,WNW,294,1.0,5.0,75,0.00,,,0.00,VWS V14.01,2013-02-02 11:57:00,
2013-02-02 06:58:00,14.1,7.7,30.26,WSW,253,3.0,5.0,75,0.00,,,0.00,VWS V14.01,2013-02-02 11:58:00,
2013-02-02 06:59:00,14.1,7.7,30.26,WSW,258,0.0,5.0,75,0.00,,,0.00,VWS V14.01,2013-02-02 11:59:00,
2013-02-02 07:00:00,14.0,7.6,30.26,WSW,258,0.0,5.0,75,0.00,,,0.00,VWS V14.01,2013-02-02 12:00:00,
2013-02-02 07:01:00,14.0,7.6,30.26,WSW,258,1.0,1.0,75,0.00,,,0.00,VWS V14.01,2013-02-02 12:01:00,
2013-02-02 07:02:00,14.0,7.6,30.26,WSW,258,0.0,3.0,75,0.00,,,0.00,VWS V14.01,2013-02-02 12:02:00,
2013-02-02 07:03:00,14.0,7.6,30.26,WSW,258,0.0,3.0,75,0.00,,,0.00,VWS V14.01,2013-02-02 12:03:00,
2013-02-02 07:04:00,14.0,7.6,30.26,West,265,1.0,3.0,75,0.00,,,0.00,VWS V14.01,2013-02-02 12:04:00,
2013-02-02 07:05:00,14.0,7.6,30.26,West,265,0.0,3.0,75,0.00,,,0.00,VWS V14.01,2013-02-02 12:05:00,
2013-02-02 07:06:00,14.0,7.6,30.26,West,265,0.0,3.0,75,0.00,,,0.00,VWS V14.01,2013-02-02 12:06:00,
2013-02-02 07:07:00,14.0,7.6,30.26,WSW,253,0.0,3.0,75,0.00,,,0.00,VWS V14.01,2013-02-02 12:07:00,
2013-02-02 07:08:00,14.0,7.6,30.26,WSW,244,2.0,3.0,75,0.00,,,0.00,VWS V14.01,2013-02-02 12:08:00,
2013-02-02 07:09:00,14.0,7.6,30.26,WSW,257,6.0,6.0,75,0.00,,,0.00,VWS V14.01,2013-02-02 12:09:00,
2013-02-02 07:10:00,14.0,7.6,30.26,WSW,258,1.0,6.0,75,0.00,,,0.00,VWS V14.01,2013-02-02 12:10:00,
2013-02-02 07:11:00,14.0,7.6,30.26,WSW,258,0.0,0.0,75,0.00,,,0.00,VWS V14.01,2013-02-02 12:11:00,
2013-02-02 07:12:00,14.1,7.7,30.26,West,261,0.0,2.0,75,0.00,,,0.00,VWS V14.01,2013-02-02 12:12:00,
2013-02-02 07:13:00,14.0,7.6,30.26,West,259,0.0,2.0,75,0.00,,,0.00,VWS V14.01,2013-02-02 12:13:00,
2013-02-02 07:14:00,14.0,7.8,30.26,West,259,0.0,2.0,76,0.00,,,0.00,VWS V14.01,2013-02-02 12:14:00,
2013-02-02 07:15:00,14.1,7.9,30.27,West,259,0.0,2.0,76,0.00,,,0.00,VWS V14.01,2013-02-02 12:15:00,
2013-02-02 07:16:00,14.1,7.7,30.27,NW,311,3.0,3.0,75,0.00,,,0.00,VWS V14.01,2013-02-02 12:16:00,
2013-02-02 07:17:00,14.1,7.7,30.27,WNW,288,3.0,3.0,75,0.00,,,0.00,VWS V14.01,2013-02-02 12:17:00,
2013-02-02 07:18:00,14.1,7.7,30.27,WNW,288,1.0,3.0,75,0.00,,,0.00,VWS V14.01,2013-02-02 12:18:00,
2013-02-02 07:19:00,14.1,7.7,30.27,WSW,250,0.0,6.0,75,0.00,,,0.00,VWS V14.01,2013-02-02 12:19:00,
2013-02-02 07:20:00,14.1,7.7,30.27,WSW,250,0.0,6.0,75,0.00,,,0.00,VWS V14.01,2013-02-02 12:20:00,
2013-02-02 07:21:00,14.1,7.7,30.27,WSW,250,0.0,1.0,75,0.00,,,0.00,VWS V14.01,2013-02-02 12:21:00,
2013-02-02 07:22:00,14.1,7.9,30.27,WSW,250,0.0,1.0,76,0.00,,,0.00,VWS V14.01,2013-02-02 12:22:00,
2013-02-02 07:23:00,14.1,7.9,30.27,WSW,250,0.0,1.0,76,0.00,,,0.00,VWS V14.01,2013-02-02 12:23:00,
2013-02-02 07:24:00,14.1,7.9,30.27,WSW,250,0.0,1.0,76,0.00,,,0.00,VWS V14.01,2013-02-02 12:24:00,
2013-02-02 07:25:00,14.2,8.0,30.27,WSW,247,4.0,4.0,76,0.00,,,0.00,VWS V14.01,2013-02-02 12:25:00,
2013-02-02 07:26:00,14.2,8.0,30.27,WSW,248,1.0,4.0,76,0.00,,,0.00,VWS V14.01,2013-02-02 12:26:00,
2013-02-02 07:27:00,14.2,8.0,30.27,WSW,248,1.0,4.0,76,0.00,,,0.00,VWS V14.01,2013-02-02 12:27:00,
2013-02-02 07:28:00,14.2,8.0,30.27,WSW,248,0.0,4.0,76,0.00,,,0.00,VWS V14.01,2013-02-02 12:28:00,
2013-02-02 07:29:00,14.2,8.0,30.27,WSW,250,1.0,4.0,76,0.00,,,0.00,VWS V14.01,2013-02-02 12:29:00,
2013-02-02 07:30:00,14.3,8.1,30.27,WSW,250,0.0,4.0,76,0.00,,,0.00,VWS V14.01,2013-02-02 12:30:00,
2013-02-02 07:31:00,14.3,8.1,30.27,WSW,250,0.0,0.0,76,0.00,,,0.00,VWS V14.01,2013-02-02 12:31:00,
2013-02-02 07:32:00,14.3,8.1,30.27,West,276,6.0,7.0,76,0.00,,,0.00,VWS V14.01,2013-02-02 12:32:00,
2013-02-02 07:33:00,14.3,8.1,30.27,West,279,2.0,7.0,76,0.00,,,0.00,VWS V14.01,2013-02-02 12:33:00,
2013-02-02 07:34:00,14.3,8.1,30.27,West,279,1.0,7.0,76,0.00,,,0.00,VWS V14.01,2013-02-02 12:34:00,
2013-02-02 07:35:00,14.3,8.1,30.27,West,279,0.0,7.0,76,0.00,,,0.00,VWS V14.01,2013-02-02 12:35:00,
2013-02-02 07:36:00,14.3,8.1,30.27,West,279,0.0,7.0,76,0.00,,,0.00,VWS V14.01,2013-02-02 12:36:00,
2013-02-02 07:37:00,14.4,8.2,30.27,West,279,0.0,7.0,76,0.00,,,0.00,VWS V14.01,2013-02-02 12:37:00,
2013-02-02 07:38:00,14.4,8.2,30.27,West,279,4.0,7.0,76,0.00,,,0.00,VWS V14.01,2013-02-02 12:38:00,
2013-02-02 07:39:00,14.4,8.2,30.27,WNW,284,4.0,7.0,76,0.00,,,0.00,VWS V14.01,2013-02-02 12:39:00,
2013-02-02 07:40:00,14.5,8.3,30.27,WNW,289,3.0,7.0,76,0.00,,,0.00,VWS V14.01,2013-02-02 12:40:00,
2013-02-02 07:41:00,14.5,8.3,30.27,WNW,291,1.0,3.0,76,0.00,,,0.00,VWS V14.01,2013-02-02 12:41:00,
2013-02-02 07:42:00,14.6,8.4,30.27,WNW,291,0.0,3.0,76,0.00,,,0.00,VWS V14.01,2013-02-02 12:42:00,
2013-02-02 07:43:00,14.6,8.4,30.27,WNW,291,0.0,3.0,76,0.00,,,0.00,VWS V14.01,2013-02-02 12:43:00,
2013-02-02 07:44:00,14.6,8.4,30.27,West,276,4.0,7.0,76,0.00,,,0.00,VWS V14.01,2013-02-02 12:44:00,
2013-02-02 07:45:00,14.7,8.5,30.26,West,275,1.0,7.0,76,0.00,,,0.00,VWS V14.01,2013-02-02 12:45:00,
2013-02-02 07:46:00,14.8,8.6,30.26,West,267,5.0,7.0,76,0.00,,,0.00,VWS V14.01,2013-02-02 12:46:00,
2013-02-02 07:47:00,14.8,8.6,30.26,West,270,3.0,7.0,76,0.00,,,0.00,VWS V14.01,2013-02-02 12:47:00,
2013-02-02 07:48:00,14.8,8.6,30.26,West,271,0.0,7.0,76,0.00,,,0.00,VWS V14.01,2013-02-02 12:48:00,
2013-02-02 07:49:00,14.9,8.7,30.26,West,271,1.0,7.0,76,0.00,,,0.00,VWS V14.01,2013-02-02 12:49:00,
2013-02-02 07:50:00,14.9,8.7,30.26,West,272,0.0,7.0,76,0.00,,,0.00,VWS V14.01,2013-02-02 12:50:00,
2013-02-02 07:51:00,15.0,8.8,30.26,West,272,0.0,2.0,76,0.00,,,0.00,VWS V14.01,2013-02-02 12:51:00,
2013-02-02 07:52:00,15.0,8.8,30.26,West,274,3.0,3.0,76,0.00,,,0.00,VWS V14.01,2013-02-02 12:52:00,
2013-02-02 07:53:00,15.0,8.8,30.26,West,279,0.0,3.0,76,0.00,,,0.00,VWS V14.01,2013-02-02 12:53:00,
2013-02-02 07:54:00,15.1,8.9,30.26,West,279,0.0,3.0,76,0.00,,,0.00,VWS V14.01,2013-02-02 12:54:00,
2013-02-02 07:55:00,15.2,9.0,30.26,WNW,302,1.0,3.0,76,0.00,,,0.00,VWS V14.01,2013-02-02 12:55:00,
2013-02-02 07:56:00,15.3,9.1,30.26,WNW,302,3.0,3.0,76,0.00,,,0.00,VWS V14.01,2013-02-02 12:56:00,
2013-02-02 07:57:00,15.3,9.1,30.26,WNW,300,1.0,3.0,76,0.00,,,0.00,VWS V14.01,2013-02-02 12:57:00,
2013-02-02 07:58:00,15.4,9.2,30.26,WNW,300,2.0,3.0,76,0.00,,,0.00,VWS V14.01,2013-02-02 12:58:00,
2013-02-02 07:59:00,15.5,9.0,30.26,WNW,300,0.0,3.0,75,0.00,,,0.00,VWS V14.01,2013-02-02 12:59:00,
2013-02-02 08:00:00,15.5,9.0,30.27,West,271,1.0,6.0,75,0.00,,,0.00,VWS V14.01,2013-02-02 13:00:00,
2013-02-02 08:01:00,15.6,9.1,30.27,West,271,2.0,3.0,75,0.00,,,0.00,VWS V14.01,2013-02-02 13:01:00,
2013-02-02 08:02:00,15.7,9.2,30.27,West,271,1.0,4.0,75,0.00,,,0.00,VWS V14.01,2013-02-02 13:02:00,
2013-02-02 08:03:00,15.7,9.2,30.27,West,270,1.0,4.0,75,0.00,,,0.00,VWS V14.01,2013-02-02 13:03:00,
2013-02-02 08:04:00,15.8,9.3,30.27,West,269,3.0,4.0,75,0.00,,,0.00,VWS V14.01,2013-02-02 13:04:00,
2013-02-02 08:05:00,15.8,9.3,30.27,West,269,2.0,4.0,75,0.00,,,0.00,VWS V14.01,2013-02-02 13:05:00,
2013-02-02 08:06:00,15.8,9.3,30.27,NW,317,0.0,4.0,75,0.00,,,0.00,VWS V14.01,2013-02-02 13:06:00,
2013-02-02 08:07:00,15.9,9.1,30.27,West,269,4.0,4.0,74,0.00,,,0.00,VWS V14.01,2013-02-02 13:07:00,
2013-02-02 08:08:00,16.0,9.2,30.27,NW,312,2.0,4.0,74,0.00,,,0.00,VWS V14.01,2013-02-02 13:08:00,
2013-02-02 08:09:00,16.1,9.3,30.27,WSW,242,4.0,4.0,74,0.00,,,0.00,VWS V14.01,2013-02-02 13:09:00,
2013-02-02 08:10:00,16.1,9.3,30.27,West,269,1.0,8.0,74,0.00,,,0.00,VWS V14.01,2013-02-02 13:10:00,
2013-02-02 08:11:00,16.2,9.4,30.27,West,269,2.0,2.0,74,0.00,,,0.00,VWS V14.01,2013-02-02 13:11:00,
2013-02-02 08:12:00,16.2,9.4,30.27,WSW,252,2.0,4.0,74,0.00,,,0.00,VWS V14.01,2013-02-02 13:12:00,
2013-02-02 08:13:00,16.3,9.5,30.27,WSW,239,3.0,4.0,74,0.00,,,0.00,VWS V14.01,2013-02-02 13:13:00,
2013-02-02 08:14:00,16.4,9.6,30.27,WNW,291,2.0,5.0,74,0.00,,,0.00,VWS V14.01,2013-02-02 13:14:00,
2013-02-02 08:15:00,16.5,9.7,30.27,West,278,0.0,5.0,74,0.00,,,0.00,VWS V14.01,2013-02-02 13:15:00,
2013-02-02 08:16:00,16.6,9.8,30.27,NW,309,3.0,5.0,74,0.00,,,0.00,VWS V14.01,2013-02-02 13:16:00,
2013-02-02 08:17:00,16.6,9.8,30.27,WNW,284,5.0,5.0,74,0.00,,,0.00,VWS V14.01,2013-02-02 13:17:00,
2013-02-02 08:18:00,16.7,9.9,30.27,NNW,340,3.0,5.0,74,0.00,,,0.00,VWS V14.01,2013-02-02 13:18:00,
2013-02-02 08:19:00,16.8,9.7,30.27,West,267,4.0,6.0,73,0.00,,,0.00,VWS V14.01,2013-02-02 13:19:00,
2013-02-02 08:20:00,16.8,9.7,30.27,WNW,300,2.0,6.0,73,0.00,,,0.00,VWS V14.01,2013-02-02 13:20:00,
2013-02-02 08:21:00,16.9,9.8,30.27,WNW,298,3.0,4.0,73,0.00,,,0.00,VWS V14.01,2013-02-02 13:21:00,
2013-02-02 08:22:00,17.0,9.9,30.27,NW,314,2.0,4.0,73,0.00,,,0.00,VWS V14.01,2013-02-02 13:22:00,
2013-02-02 08:23:00,17.0,9.9,30.27,WNW,294,3.0,6.0,73,0.00,,,0.00,VWS V14.01,2013-02-02 13:23:00,
2013-02-02 08:24:00,17.1,9.9,30.27,West,277,3.0,6.0,73,0.00,,,0.00,VWS V14.01,2013-02-02 13:24:00,
2013-02-02 08:25:00,17.1,9.6,30.27,West,275,3.0,7.0,72,0.00,,,0.00,VWS V14.01,2013-02-02 13:25:00,
2013-02-02 08:26:00,17.1,9.6,30.27,West,279,4.0,7.0,72,0.00,,,0.00,VWS V14.01,2013-02-02 13:26:00,
2013-02-02 08:27:00,17.1,9.6,30.27,West,277,1.0,7.0,72,0.00,,,0.00,VWS V14.01,2013-02-02 13:27:00,
2013-02-02 08:28:00,17.1,9.3,30.27,West,277,0.0,7.0,71,0.00,,,0.00,VWS V14.01,2013-02-02 13:28:00,
2013-02-02 08:29:00,17.2,9.7,30.27,West,277,0.0,7.0,72,0.00,,,0.00,VWS V14.01,2013-02-02 13:29:00,
2013-02-02 08:30:00,17.3,9.8,30.26,WSW,257,3.0,7.0,72,0.00,,,0.00,VWS V14.01,2013-02-02 13:30:00,
2013-02-02 08:31:00,17.3,9.8,30.26,WNW,284,3.0,8.0,72,0.00,,,0.00,VWS V14.01,2013-02-02 13:31:00,
2013-02-02 08:32:00,17.4,9.6,30.26,West,272,4.0,8.0,71,0.00,,,0.00,VWS V14.01,2013-02-02 13:32:00,
2013-02-02 08:33:00,17.5,10.0,30.26,WSW,258,7.0,8.0,72,0.00,,,0.00,VWS V14.01,2013-02-02 13:33:00,
2013-02-02 08:34:00,17.5,9.7,30.26,West,260,2.0,8.0,71,0.00,,,0.00,VWS V14.01,2013-02-02 13:34:00,
2013-02-02 08:35:00,17.5,9.7,30.26,West,261,4.0,8.0,71,0.00,,,0.00,VWS V14.01,2013-02-02 13:35:00,
2013-02-02 08:36:00,17.6,9.8,30.26,West,270,7.0,8.0,71,0.00,,,0.00,VWS V14.01,2013-02-02 13:36:00,
2013-02-02 08:37:00,17.6,9.8,30.26,West,261,3.0,8.0,71,0.00,,,0.00,VWS V14.01,2013-02-02 13:37:00,
2013-02-02 08:38:00,17.7,9.9,30.26,WNW,303,2.0,8.0,71,0.00,,,0.00,VWS V14.01,2013-02-02 13:38:00,
2013-02-02 08:39:00,17.8,10.0,30.26,NW,304,1.0,8.0,71,0.00,,,0.00,VWS V14.01,2013-02-02 13:39:00,
2013-02-02 08:40:00,17.9,10.1,30.26,NW,304,0.0,8.0,71,0.00,,,0.00,VWS V14.01,2013-02-02 13:40:00,
2013-02-02 08:41:00,18.0,10.2,30.26,WNW,290,4.0,4.0,71,0.00,,,0.00,VWS V14.01,2013-02-02 13:41:00,
2013-02-02 08:42:00,18.0,10.2,30.26,West,271,0.0,4.0,71,0.00,,,0.00,VWS V14.01,2013-02-02 13:42:00,
2013-02-02 08:43:00,18.1,10.3,30.26,West,274,2.0,4.0,71,0.00,,,0.00,VWS V14.01,2013-02-02 13:43:00,
2013-02-02 08:44:00,18.2,10.1,30.26,SW,229,4.0,4.0,70,0.00,,,0.00,VWS V14.01,2013-02-02 13:44:00,
2013-02-02 08:45:00,18.3,10.2,30.26,SW,229,0.0,4.0,70,0.00,,,0.00,VWS V14.01,2013-02-02 13:45:00,
2013-02-02 08:46:00,18.4,10.3,30.26,WNW,294,6.0,6.0,70,0.00,,,0.00,VWS V14.01,2013-02-02 13:46:00,
2013-02-02 08:47:00,18.5,10.4,30.26,WNW,298,2.0,6.0,70,0.00,,,0.00,VWS V14.01,2013-02-02 13:47:00,
2013-02-02 08:48:00,18.6,10.5,30.26,West,261,4.0,6.0,70,0.00,,,0.00,VWS V14.01,2013-02-02 13:48:00,
2013-02-02 08:49:00,18.7,10.2,30.26,West,264,5.0,6.0,69,0.00,,,0.00,VWS V14.01,2013-02-02 13:49:00,
2013-02-02 08:50:00,18.7,10.2,30.26,West,264,1.0,6.0,69,0.00,,,0.00,VWS V14.01,2013-02-02 13:50:00,
2013-02-02 08:51:00,18.7,10.2,30.26,West,264,0.0,1.0,69,0.00,,,0.00,VWS V14.01,2013-02-02 13:51:00,
2013-02-02 08:52:00,18.8,10.3,30.26,West,263,6.0,7.0,69,0.00,,,0.00,VWS V14.01,2013-02-02 13:52:00,
2013-02-02 08:53:00,18.8,10.0,30.26,West,265,3.0,7.0,68,0.00,,,0.00,VWS V14.01,2013-02-02 13:53:00,
2013-02-02 08:54:00,18.8,10.0,30.26,West,259,4.0,7.0,68,0.00,,,0.00,VWS V14.01,2013-02-02 13:54:00,
2013-02-02 08:55:00,18.8,9.7,30.26,WNW,284,2.0,7.0,67,0.00,,,0.00,VWS V14.01,2013-02-02 13:55:00,
2013-02-02 08:56:00,18.8,9.7,30.26,WNW,285,2.0,7.0,67,0.00,,,0.00,VWS V14.01,2013-02-02 13:56:00,
2013-02-02 08:57:00,18.9,9.8,30.26,West,280,3.0,7.0,67,0.00,,,0.00,VWS V14.01,2013-02-02 13:57:00,
2013-02-02 08:58:00,18.9,9.8,30.26,NW,319,4.0,7.0,67,0.00,,,0.00,VWS V14.01,2013-02-02 13:58:00,
2013-02-02 08:59:00,18.9,9.8,30.26,WNW,294,3.0,7.0,67,0.00,,,0.00,VWS V14.01,2013-02-02 13:59:00,
2013-02-02 09:00:00,19.0,9.9,30.26,WSW,256,4.0,7.0,67,0.00,,,0.00,VWS V14.01,2013-02-02 14:00:00,
2013-02-02 09:01:00,19.0,9.9,30.26,West,266,7.0,8.0,67,0.00,,,0.00,VWS V14.01,2013-02-02 14:01:00,
2013-02-02 09:02:00,19.0,9.9,30.26,WSW,248,4.0,8.0,67,0.00,,,0.00,VWS V14.01,2013-02-02 14:02:00,
2013-02-02 09:03:00,19.0,9.5,30.26,WSW,258,3.0,8.0,66,0.00,,,0.00,VWS V14.01,2013-02-02 14:03:00,
2013-02-02 09:04:00,19.0,9.5,30.26,West,261,2.0,8.0,66,0.00,,,0.00,VWS V14.01,2013-02-02 14:04:00,
2013-02-02 09:05:00,19.1,9.6,30.26,NW,314,3.0,8.0,66,0.00,,,0.00,VWS V14.01,2013-02-02 14:05:00,
2013-02-02 09:06:00,19.1,9.6,30.26,WNW,286,1.0,8.0,66,0.00,,,0.00,VWS V14.01,2013-02-02 14:06:00,
2013-02-02 09:07:00,19.2,10.1,30.26,West,275,3.0,8.0,67,0.00,,,0.00,VWS V14.01,2013-02-02 14:07:00,
2013-02-02 09:08:00,19.3,9.8,30.26,NNW,346,1.0,8.0,66,0.00,,,0.00,VWS V14.01,2013-02-02 14:08:00,
2013-02-02 09:09:00,19.4,9.9,30.26,WNW,301,2.0,8.0,66,0.00,,,0.00,VWS V14.01,2013-02-02 14:09:00,
2013-02-02 09:10:00,19.5,10.3,30.26,WNW,283,2.0,8.0,67,0.00,,,0.00,VWS V14.01,2013-02-02 14:10:00,
2013-02-02 09:11:00,19.5,10.0,30.26,West,276,4.0,4.0,66,0.00,,,0.00,VWS V14.01,2013-02-02 14:11:00,
2013-02-02 09:12:00,19.6,9.8,30.26,West,273,0.0,4.0,65,0.00,,,0.00,VWS V14.01,2013-02-02 14:12:00,
2013-02-02 09:13:00,19.7,9.9,30.26,West,273,0.0,4.0,65,0.00,,,0.00,VWS V14.01,2013-02-02 14:13:00,
2013-02-02 09:14:00,19.7,9.9,30.26,West,274,1.0,4.0,65,0.00,,,0.00,VWS V14.01,2013-02-02 14:14:00,
2013-02-02 09:15:00,19.8,9.9,30.25,West,265,0.0,4.0,65,0.00,,,0.00,VWS V14.01,2013-02-02 14:15:00,
2013-02-02 09:16:00,19.9,10.1,30.25,West,265,0.0,4.0,65,0.00,,,0.00,VWS V14.01,2013-02-02 14:16:00,
2013-02-02 09:17:00,20.0,10.1,30.25,West,264,0.0,4.0,65,0.00,,,0.00,VWS V14.01,2013-02-02 14:17:00,
2013-02-02 09:18:00,20.2,10.3,30.25,SW,224,1.0,4.0,65,0.00,,,0.00,VWS V14.01,2013-02-02 14:18:00,
2013-02-02 09:19:00,20.4,10.9,30.25,SW,226,0.0,4.0,66,0.00,,,0.00,VWS V14.01,2013-02-02 14:19:00,
2013-02-02 09:20:00,20.5,11.0,30.25,SW,235,3.0,4.0,66,0.00,,,0.00,VWS V14.01,2013-02-02 14:20:00,
2013-02-02 09:21:00,20.6,11.1,30.25,WNW,292,4.0,6.0,66,0.00,,,0.00,VWS V14.01,2013-02-02 14:21:00,
2013-02-02 09:22:00,20.6,10.4,30.25,West,281,5.0,7.0,64,0.00,,,0.00,VWS V14.01,2013-02-02 14:22:00,
2013-02-02 09:23:00,20.6,10.0,30.25,West,278,3.0,7.0,63,0.00,,,0.00,VWS V14.01,2013-02-02 14:23:00,
2013-02-02 09:24:00,20.6,9.7,30.25,WNW,285,1.0,7.0,62,0.00,,,0.00,VWS V14.01,2013-02-02 14:24:00,
2013-02-02 09:25:00,20.6,9.7,30.25,SSW,205,3.0,7.0,62,0.00,,,0.00,VWS V14.01,2013-02-02 14:25:00,
2013-02-02 09:26:00,20.6,10.0,30.25,SW,214,4.0,7.0,63,0.00,,,0.00,VWS V14.01,2013-02-02 14:26:00,
2013-02-02 09:27:00,20.7,10.1,30.25,SW,225,0.0,7.0,63,0.00,,,0.00,VWS V14.01,2013-02-02 14:27:00,
2013-02-02 09:28:00,20.8,10.2,30.25,SW,229,4.0,7.0,63,0.00,,,0.00,VWS V14.01,2013-02-02 14:28:00,
2013-02-02 09:29:00,20.8,10.2,30.25,SW,229,0.0,7.0,63,0.00,,,0.00,VWS V14.01,2013-02-02 14:29:00,
2013-02-02 09:30:00,20.8,9.9,30.24,West,268,4.0,7.0,62,0.00,,,0.00,VWS V14.01,2013-02-02 14:30:00,
2013-02-02 09:31:00,20.8,9.9,30.24,WSW,250,0.0,5.0,62,0.00,,,0.00,VWS V14.01,2013-02-02 14:31:00,
2013-02-02 09:32:00,20.8,9.9,30.24,WSW,250,1.0,5.0,62,0.00,,,0.00,VWS V14.01,2013-02-02 14:32:00,
2013-02-02 09:33:00,20.9,9.9,30.24,SSW,202,3.0,5.0,62,0.00,,,0.00,VWS V14.01,2013-02-02 14:33:00,
2013-02-02 09:34:00,21.0,10.4,30.24,SSW,200,2.0,5.0,63,0.00,,,0.00,VWS V14.01,2013-02-02 14:34:00,
2013-02-02 09:35:00,21.2,10.6,30.24,South,186,3.0,5.0,63,0.00,,,0.00,VWS V14.01,2013-02-02 14:35:00,
2013-02-02 09:36:00,21.2,10.6,30.24,South,188,1.0,5.0,63,0.00,,,0.00,VWS V14.01,2013-02-02 14:36:00,
2013-02-02 09:37:00,21.5,10.9,30.24,South,183,2.0,5.0,63,0.00,,,0.00,VWS V14.01,2013-02-02 14:37:00,
2013-02-02 09:38:00,21.6,11.0,30.24,South,184,1.0,5.0,63,0.00,,,0.00,VWS V14.01,2013-02-02 14:38:00,
2013-02-02 09:39:00,21.7,11.1,30.24,South,187,5.0,5.0,63,0.00,,,0.00,VWS V14.01,2013-02-02 14:39:00,
2013-02-02 09:40:00,21.8,10.8,30.24,SSW,197,4.0,5.0,62,0.00,,,0.00,VWS V14.01,2013-02-02 14:40:00,
2013-02-02 09:41:00,21.9,10.9,30.24,SSW,197,1.0,4.0,62,0.00,,,0.00,VWS V14.01,2013-02-02 14:41:00,
2013-02-02 09:42:00,22.0,11.0,30.24,SW,225,3.0,5.0,62,0.00,,,0.00,VWS V14.01,2013-02-02 14:42:00,
2013-02-02 09:43:00,22.1,10.7,30.24,West,277,3.0,5.0,61,0.00,,,0.00,VWS V14.01,2013-02-02 14:43:00,
2013-02-02 09:44:00,22.2,10.8,30.24,SW,225,4.0,5.0,61,0.00,,,0.00,VWS V14.01,2013-02-02 14:44:00,
2013-02-02 09:45:00,22.3,10.9,30.24,WSW,245,2.0,6.0,61,0.00,,,0.00,VWS V14.01,2013-02-02 14:45:00,
2013-02-02 09:46:00,22.4,11.0,30.24,WSW,248,2.0,6.0,61,0.00,,,0.00,VWS V14.01,2013-02-02 14:46:00,
2013-02-02 09:47:00,22.4,10.6,30.24,West,264,3.0,6.0,60,0.00,,,0.00,VWS V14.01,2013-02-02 14:47:00,
2013-02-02 09:48:00,22.5,10.4,30.24,WSW,257,2.0,6.0,59,0.00,,,0.00,VWS V14.01,2013-02-02 14:48:00,
2013-02-02 09:49:00,22.5,10.4,30.24,SW,227,4.0,6.0,59,0.00,,,0.00,VWS V14.01,2013-02-02 14:49:00,
2013-02-02 09:50:00,22.5,10.4,30.24,SSW,196,3.0,6.0,59,0.00,,,0.00,VWS V14.01,2013-02-02 14:50:00,
2013-02-02 09:51:00,22.6,10.4,30.24,SSW,203,2.0,5.0,59,0.00,,,0.00,VWS V14.01,2013-02-02 14:51:00,
2013-02-02 09:52:00,22.6,10.4,30.24,WSW,244,0.0,7.0,59,0.00,,,0.00,VWS V14.01,2013-02-02 14:52:00,
2013-02-02 09:53:00,22.6,10.1,30.24,WSW,246,0.0,7.0,58,0.00,,,0.00,VWS V14.01,2013-02-02 14:53:00,
2013-02-02 09:54:00,22.6,10.1,30.24,WSW,245,3.0,7.0,58,0.00,,,0.00,VWS V14.01,2013-02-02 14:54:00,
2013-02-02 09:55:00,22.7,10.2,30.24,WSW,240,4.0,7.0,58,0.00,,,0.00,VWS V14.01,2013-02-02 14:55:00,
2013-02-02 09:56:00,22.7,10.2,30.24,SW,214,4.0,7.0,58,0.00,,,0.00,VWS V14.01,2013-02-02 14:56:00,
2013-02-02 09:57:00,22.7,10.2,30.24,SW,216,3.0,7.0,58,0.00,,,0.00,VWS V14.01,2013-02-02 14:57:00,
2013-02-02 09:58:00,22.8,10.2,30.24,WSW,251,4.0,7.0,58,0.00,,,0.00,VWS V14.01,2013-02-02 14:58:00,
2013-02-02 09:59:00,22.7,9.8,30.24,WSW,240,7.0,8.0,57,0.00,,,0.00,VWS V14.01,2013-02-02 14:59:00,
2013-02-02 10:00:00,22.7,9.8,30.23,SW,229,3.0,8.0,57,0.00,,,0.00,VWS V14.01,2013-02-02 15:00:00,
2013-02-02 10:01:00,22.6,9.7,30.23,West,280,4.0,5.0,57,0.00,,,0.00,VWS V14.01,2013-02-02 15:01:00,
2013-02-02 10:02:00,22.6,9.7,30.23,WSW,257,1.0,8.0,57,0.00,,,0.00,VWS V14.01,2013-02-02 15:02:00,
2013-02-02 10:03:00,22.6,9.7,30.23,West,271,1.0,8.0,57,0.00,,,0.00,VWS V14.01,2013-02-02 15:03:00,
2013-02-02 10:04:00,22.7,10.2,30.23,WSW,257,3.0,8.0,58,0.00,,,0.00,VWS V14.01,2013-02-02 15:04:00,
2013-02-02 10:05:00,22.7,10.2,30.23,West,275,2.0,8.0,58,0.00,,,0.00,VWS V14.01,2013-02-02 15:05:00,
2013-02-02 10:06:00,22.7,10.2,30.23,SW,235,3.0,8.0,58,0.00,,,0.00,VWS V14.01,2013-02-02 15:06:00,
2013-02-02 10:07:00,22.7,10.2,30.23,SW,233,3.0,8.0,58,0.00,,,0.00,VWS V14.01,2013-02-02 15:07:00,
2013-02-02 10:08:00,22.7,9.8,30.23,West,265,3.0,8.0,57,0.00,,,0.00,VWS V14.01,2013-02-02 15:08:00,
2013-02-02 10:09:00,22.7,9.8,30.23,WNW,289,3.0,8.0,57,0.00,,,0.00,VWS V14.01,2013-02-02 15:09:00,
2013-02-02 10:10:00,22.7,9.8,30.23,WSW,248,0.0,8.0,57,0.00,,,0.00,VWS V14.01,2013-02-02 15:10:00,
2013-02-02 10:11:00,22.7,9.4,30.23,SW,231,3.0,3.0,56,0.00,,,0.00,VWS V14.01,2013-02-02 15:11:00,
2013-02-02 10:12:00,22.8,9.9,30.23,SW,229,0.0,3.0,57,0.00,,,0.00,VWS V14.01,2013-02-02 15:12:00,
2013-02-02 10:13:00,23.0,10.1,30.23,SW,236,1.0,3.0,57,0.00,,,0.00,VWS V14.01,2013-02-02 15:13:00,
2013-02-02 10:14:00,23.1,10.5,30.23,WSW,240,1.0,3.0,58,0.00,,,0.00,VWS V14.01,2013-02-02 15:14:00,
2013-02-02 10:15:00,23.2,10.6,30.23,WNW,284,1.0,4.0,58,0.00,,,0.00,VWS V14.01,2013-02-02 15:15:00,
2013-02-02 10:16:00,23.3,10.7,30.23,SW,226,5.0,5.0,58,0.00,,,0.00,VWS V14.01,2013-02-02 15:16:00,
2013-02-02 10:17:00,23.4,10.8,30.23,West,269,5.0,9.0,58,0.00,,,0.00,VWS V14.01,2013-02-02 15:17:00,
2013-02-02 10:18:00,23.4,10.4,30.23,West,281,9.0,9.0,57,0.00,,,0.00,VWS V14.01,2013-02-02 15:18:00,
2013-02-02 10:19:00,23.3,9.9,30.23,West,268,4.0,9.0,56,0.00,,,0.00,VWS V14.01,2013-02-02 15:19:00,
2013-02-02 10:20:00,23.3,9.5,30.23,SW,233,5.0,9.0,55,0.00,,,0.00,VWS V14.01,2013-02-02 15:20:00,
2013-02-02 10:21:00,23.2,9.4,30.23,West,277,0.0,4.0,55,0.00,,,0.00,VWS V14.01,2013-02-02 15:21:00,
2013-02-02 10:22:00,23.2,9.8,30.23,West,275,3.0,4.0,56,0.00,,,0.00,VWS V14.01,2013-02-02 15:22:00,
2013-02-02 10:23:00,23.1,9.4,30.23,SW,221,3.0,5.0,55,0.00,,,0.00,VWS V14.01,2013-02-02 15:23:00,
2013-02-02 10:24:00,23.1,9.4,30.23,West,277,0.0,6.0,55,0.00,,,0.00,VWS V14.01,2013-02-02 15:24:00,
2013-02-02 10:25:00,23.1,9.4,30.23,West,270,2.0,6.0,55,0.00,,,0.00,VWS V14.01,2013-02-02 15:25:00,
2013-02-02 10:26:00,23.1,9.8,30.23,NW,311,5.0,6.0,56,0.00,,,0.00,VWS V14.01,2013-02-02 15:26:00,
2013-02-02 10:27:00,23.1,9.8,30.23,SSW,210,9.0,9.0,56,0.00,,,0.00,VWS V14.01,2013-02-02 15:27:00,
2013-02-02 10:28:00,23.1,9.8,30.23,West,259,5.0,9.0,56,0.00,,,0.00,VWS V14.01,2013-02-02 15:28:00,
2013-02-02 10:29:00,23.1,9.4,30.23,WSW,252,3.0,9.0,55,0.00,,,0.00,VWS V14.01,2013-02-02 15:29:00,
2013-02-02 10:30:00,23.1,9.4,30.22,SSW,213,3.0,9.0,55,0.00,,,0.00,VWS V14.01,2013-02-02 15:30:00,
2013-02-02 10:31:00,23.2,9.8,30.22,SW,236,6.0,6.0,56,0.00,,,0.00,VWS V14.01,2013-02-02 15:31:00,
2013-02-02 10:32:00,23.2,9.8,30.22,SW,216,4.0,6.0,56,0.00,,,0.00,VWS V14.01,2013-02-02 15:32:00,
2013-02-02 10:33:00,23.2,9.4,30.22,SW,218,2.0,6.0,55,0.00,,,0.00,VWS V14.01,2013-02-02 15:33:00,
2013-02-02 10:34:00,23.3,9.5,30.22,WNW,285,1.0,6.0,55,0.00,,,0.00,VWS V14.01,2013-02-02 15:34:00,
2013-02-02 10:35:00,23.3,9.5,30.22,WNW,285,0.0,6.0,55,0.00,,,0.00,VWS V14.01,2013-02-02 15:35:00,
2013-02-02 10:36:00,23.4,9.6,30.22,West,263,2.0,6.0,55,0.00,,,0.00,VWS V14.01,2013-02-02 15:36:00,
2013-02-02 10:37:00,23.4,9.6,30.22,West,259,1.0,6.0,55,0.00,,,0.00,VWS V14.01,2013-02-02 15:37:00,
2013-02-02 10:38:00,23.5,9.7,30.22,SSW,207,2.0,6.0,55,0.00,,,0.00,VWS V14.01,2013-02-02 15:38:00,
2013-02-02 10:39:00,23.6,9.8,30.22,SW,214,5.0,7.0,55,0.00,,,0.00,VWS V14.01,2013-02-02 15:39:00,
2013-02-02 10:40:00,23.7,10.3,30.22,SSW,212,3.0,7.0,56,0.00,,,0.00,VWS V14.01,2013-02-02 15:40:00,
2013-02-02 10:41:00,23.8,10.0,30.22,SSW,209,5.0,5.0,55,0.00,,,0.00,VWS V14.01,2013-02-02 15:41:00,
2013-02-02 10:42:00,23.8,10.4,30.22,SW,228,1.0,5.0,56,0.00,,,0.00,VWS V14.01,2013-02-02 15:42:00,
2013-02-02 10:43:00,23.9,10.5,30.22,SW,235,3.0,5.0,56,0.00,,,0.00,VWS V14.01,2013-02-02 15:43:00,
2013-02-02 10:44:00,24.0,10.6,30.22,West,277,4.0,5.0,56,0.00,,,0.00,VWS V14.01,2013-02-02 15:44:00,
2013-02-02 10:45:00,24.1,10.3,30.21,West,260,7.0,7.0,55,0.00,,,0.00,VWS V14.01,2013-02-02 15:45:00,
2013-02-02 10:46:00,24.1,10.3,30.21,West,274,4.0,7.0,55,0.00,,,0.00,VWS V14.01,2013-02-02 15:46:00,
2013-02-02 10:47:00,24.1,9.9,30.21,West,271,1.0,7.0,54,0.00,,,0.00,VWS V14.01,2013-02-02 15:47:00,
2013-02-02 10:48:00,24.1,9.5,30.21,WSW,251,4.0,7.0,53,0.00,,,0.00,VWS V14.01,2013-02-02 15:48:00,
2013-02-02 10:49:00,24.1,9.5,30.21,WSW,250,5.0,10.0,53,0.00,,,0.00,VWS V14.01,2013-02-02 15:49:00,
2013-02-02 10:50:00,24.1,9.0,30.21,SW,225,3.0,10.0,52,0.00,,,0.00,VWS V14.01,2013-02-02 15:50:00,
2013-02-02 10:51:00,24.1,8.6,30.21,SSW,213,5.0,9.0,51,0.00,,,0.00,VWS V14.01,2013-02-02 15:51:00,
2013-02-02 10:52:00,24.1,8.2,30.21,West,259,10.0,11.0,50,0.00,,,0.00,VWS V14.01,2013-02-02 15:52:00,
2013-02-02 10:53:00,24.1,7.7,30.21,West,271,4.0,11.0,49,0.00,,,0.00,VWS V14.01,2013-02-02 15:53:00,
2013-02-02 10:54:00,24.2,8.3,30.21,SW,218,4.0,11.0,50,0.00,,,0.00,VWS V14.01,2013-02-02 15:54:00,
2013-02-02 10:55:00,24.2,8.3,30.21,SW,221,2.0,11.0,50,0.00,,,0.00,VWS V14.01,2013-02-02 15:55:00,
2013-02-02 10:56:00,24.2,8.3,30.21,SSW,207,6.0,11.0,50,0.00,,,0.00,VWS V14.01,2013-02-02 15:56:00,
2013-02-02 10:57:00,24.3,8.4,30.21,West,262,1.0,11.0,50,0.00,,,0.00,VWS V14.01,2013-02-02 15:57:00,
2013-02-02 10:58:00,24.3,8.4,30.21,West,269,5.0,12.0,50,0.00,,,0.00,VWS V14.01,2013-02-02 15:58:00,
2013-02-02 10:59:00,24.4,8.9,30.21,West,261,0.0,12.0,51,0.00,,,0.00,VWS V14.01,2013-02-02 15:59:00,
2013-02-02 11:00:00,24.5,9.0,30.20,WNW,288,7.0,12.0,51,0.00,,,0.00,VWS V14.01,2013-02-02 16:00:00,
2013-02-02 11:01:00,24.6,9.5,30.20,SW,221,4.0,7.0,52,0.00,,,0.00,VWS V14.01,2013-02-02 16:01:00,
2013-02-02 11:02:00,24.6,9.1,30.20,West,272,4.0,8.0,51,0.00,,,0.00,VWS V14.01,2013-02-02 16:02:00,
2013-02-02 11:03:00,24.6,9.1,30.20,WNW,288,3.0,13.0,51,0.00,,,0.00,VWS V14.01,2013-02-02 16:03:00,
2013-02-02 11:04:00,24.6,8.6,30.20,WSW,247,7.0,13.0,50,0.00,,,0.00,VWS V14.01,2013-02-02 16:04:00,
2013-02-02 11:05:00,24.6,8.6,30.20,West,280,9.0,13.0,50,0.00,,,0.00,VWS V14.01,2013-02-02 16:05:00,
2013-02-02 11:06:00,24.5,8.5,30.20,West,274,3.0,13.0,50,0.00,,,0.00,VWS V14.01,2013-02-02 16:06:00,
2013-02-02 11:07:00,24.5,8.5,30.20,West,265,10.0,13.0,50,0.00,,,0.00,VWS V14.01,2013-02-02 16:07:00,
2013-02-02 11:08:00,24.4,8.4,30.20,West,265,6.0,13.0,50,0.00,,,0.00,VWS V14.01,2013-02-02 16:08:00,
2013-02-02 11:09:00,24.4,8.4,30.20,West,270,9.0,13.0,50,0.00,,,0.00,VWS V14.01,2013-02-02 16:09:00,
2013-02-02 11:10:00,24.3,8.8,30.20,WSW,244,6.0,13.0,51,0.00,,,0.00,VWS V14.01,2013-02-02 16:10:00,
2013-02-02 11:11:00,24.3,8.8,30.20,WSW,252,9.0,9.0,51,0.00,,,0.00,VWS V14.01,2013-02-02 16:11:00,
2013-02-02 11:12:00,24.3,8.8,30.20,West,272,7.0,11.0,51,0.00,,,0.00,VWS V14.01,2013-02-02 16:12:00,
2013-02-02 11:13:00,24.3,8.8,30.20,WSW,242,4.0,11.0,51,0.00,,,0.00,VWS V14.01,2013-02-02 16:13:00,
2013-02-02 11:14:00,24.3,9.2,30.20,WSW,246,2.0,11.0,52,0.00,,,0.00,VWS V14.01,2013-02-02 16:14:00,
2013-02-02 11:15:00,24.3,9.2,30.19,West,265,3.0,11.0,52,0.00,,,0.00,VWS V14.01,2013-02-02 16:15:00,
2013-02-02 11:16:00,24.3,9.2,30.19,WSW,256,4.0,11.0,52,0.00,,,0.00,VWS V14.01,2013-02-02 16:16:00,
2013-02-02 11:17:00,24.3,9.2,30.19,WSW,257,7.0,11.0,52,0.00,,,0.00,VWS V14.01,2013-02-02 16:17:00,
2013-02-02 11:18:00,24.4,9.3,30.19,WNW,289,3.0,11.0,52,0.00,,,0.00,VWS V14.01,2013-02-02 16:18:00,
2013-02-02 11:19:00,24.4,9.7,30.19,SSW,203,5.0,11.0,53,0.00,,,0.00,VWS V14.01,2013-02-02 16:19:00,
2013-02-02 11:20:00,24.5,9.8,30.19,NW,325,3.0,11.0,53,0.00,,,0.00,VWS V14.01,2013-02-02 16:20:00,
2013-02-02 11:21:00,24.5,9.8,30.19,WSW,242,7.0,7.0,53,0.00,,,0.00,VWS V14.01,2013-02-02 16:21:00,
2013-02-02 11:22:00,24.6,9.9,30.19,West,267,5.0,7.0,53,0.00,,,0.00,VWS V14.01,2013-02-02 16:22:00,
2013-02-02 11:23:00,24.6,9.9,30.19,West,271,5.0,7.0,53,0.00,,,0.00,VWS V14.01,2013-02-02 16:23:00,
2013-02-02 11:24:00,24.6,9.5,30.19,West,269,1.0,9.0,52,0.00,,,0.00,VWS V14.01,2013-02-02 16:24:00,
2013-02-02 11:25:00,24.6,9.1,30.19,South,190,3.0,9.0,51,0.00,,,0.00,VWS V14.01,2013-02-02 16:25:00,
2013-02-02 11:26:00,24.6,9.1,30.19,SW,223,3.0,9.0,51,0.00,,,0.00,VWS V14.01,2013-02-02 16:26:00,
2013-02-02 11:27:00,24.6,9.1,30.19,SSW,197,2.0,9.0,51,0.00,,,0.00,VWS V14.01,2013-02-02 16:27:00,
2013-02-02 11:28:00,24.6,9.5,30.19,WSW,253,6.0,9.0,52,0.00,,,0.00,VWS V14.01,2013-02-02 16:28:00,
2013-02-02 11:29:00,24.6,9.5,30.19,West,279,5.0,9.0,52,0.00,,,0.00,VWS V14.01,2013-02-02 16:29:00,
2013-02-02 11:30:00,24.5,9.4,30.19,NW,320,5.0,9.0,52,0.00,,,0.00,VWS V14.01,2013-02-02 16:30:00,
2013-02-02 11:31:00,24.5,9.0,30.19,West,277,2.0,6.0,51,0.00,,,0.00,VWS V14.01,2013-02-02 16:31:00,
2013-02-02 11:32:00,24.4,8.9,30.19,West,270,5.0,9.0,51,0.00,,,0.00,VWS V14.01,2013-02-02 16:32:00,
2013-02-02 11:33:00,24.4,8.9,30.19,WSW,243,2.0,9.0,51,0.00,,,0.00,VWS V14.01,2013-02-02 16:33:00,
2013-02-02 11:34:00,24.3,8.8,30.19,SW,236,4.0,9.0,51,0.00,,,0.00,VWS V14.01,2013-02-02 16:34:00,
2013-02-02 11:35:00,24.3,8.8,30.19,SW,221,2.0,9.0,51,0.00,,,0.00,VWS V14.01,2013-02-02 16:35:00,
2013-02-02 11:36:00,24.2,8.7,30.19,West,274,6.0,9.0,51,0.00,,,0.00,VWS V14.01,2013-02-02 16:36:00,
2013-02-02 11:37:00,24.2,9.1,30.19,West,263,5.0,10.0,52,0.00,,,0.00,VWS V14.01,2013-02-02 16:37:00,
2013-02-02 11:38:00,24.2,9.1,30.19,West,259,7.0,10.0,52,0.00,,,0.00,VWS V14.01,2013-02-02 16:38:00,
2013-02-02 11:39:00,24.1,9.0,30.19,West,265,2.0,10.0,52,0.00,,,0.00,VWS V14.01,2013-02-02 16:39:00,
2013-02-02 11:40:00,24.0,8.9,30.19,West,263,7.0,10.0,52,0.00,,,0.00,VWS V14.01,2013-02-02 16:40:00,
2013-02-02 11:41:00,24.0,8.9,30.19,WNW,290,2.0,7.0,52,0.00,,,0.00,VWS V14.01,2013-02-02 16:41:00,
2013-02-02 11:42:00,24.0,9.4,30.19,WSW,254,6.0,10.0,53,0.00,,,0.00,VWS V14.01,2013-02-02 16:42:00,
2013-02-02 11:43:00,24.0,8.9,30.19,WSW,253,8.0,10.0,52,0.00,,,0.00,VWS V14.01,2013-02-02 16:43:00,
2013-02-02 11:44:00,23.9,8.9,30.19,WSW,254,3.0,10.0,52,0.00,,,0.00,VWS V14.01,2013-02-02 16:44:00,
2013-02-02 11:45:00,23.9,8.9,30.18,West,265,3.0,10.0,52,0.00,,,0.00,VWS V14.01,2013-02-02 16:45:00,
2013-02-02 11:46:00,23.8,8.8,30.18,West,271,3.0,10.0,52,0.00,,,0.00,VWS V14.01,2013-02-02 16:46:00,
2013-02-02 11:47:00,23.9,9.3,30.18,WSW,244,0.0,10.0,53,0.00,,,0.00,VWS V14.01,2013-02-02 16:47:00,
2013-02-02 11:48:00,23.9,9.7,30.18,SSW,213,3.0,10.0,54,0.00,,,0.00,VWS V14.01,2013-02-02 16:48:00,
2013-02-02 11:49:00,24.0,9.8,30.18,SSW,213,2.0,10.0,54,0.00,,,0.00,VWS V14.01,2013-02-02 16:49:00,
2013-02-02 11:50:00,24.1,9.9,30.18,West,275,2.0,10.0,54,0.00,,,0.00,VWS V14.01,2013-02-02 16:50:00,
2013-02-02 11:51:00,24.1,9.9,30.18,WSW,255,1.0,6.0,54,0.00,,,0.00,VWS V14.01,2013-02-02 16:51:00,
2013-02-02 11:52:00,24.2,10.0,30.18,SSW,208,0.0,6.0,54,0.00,,,0.00,VWS V14.01,2013-02-02 16:52:00,
2013-02-02 11:53:00,24.3,10.1,30.18,SW,217,3.0,6.0,54,0.00,,,0.00,VWS V14.01,2013-02-02 16:53:00,
2013-02-02 11:54:00,24.4,10.6,30.18,SW,217,1.0,6.0,55,0.00,,,0.00,VWS V14.01,2013-02-02 16:54:00,
2013-02-02 11:55:00,24.4,10.6,30.18,West,267,2.0,7.0,55,0.00,,,0.00,VWS V14.01,2013-02-02 16:55:00,
2013-02-02 11:56:00,24.5,10.7,30.18,WSW,238,3.0,7.0,55,0.00,,,0.00,VWS V14.01,2013-02-02 16:56:00,
2013-02-02 11:57:00,24.6,10.8,30.18,WSW,240,6.0,9.0,55,0.00,,,0.00,VWS V14.01,2013-02-02 16:57:00,
2013-02-02 11:58:00,24.8,10.9,30.18,West,280,4.0,9.0,55,0.00,,,0.00,VWS V14.01,2013-02-02 16:58:00,
2013-02-02 11:59:00,24.8,10.9,30.18,West,277,1.0,9.0,55,0.00,,,0.00,VWS V14.01,2013-02-02 16:59:00,
2013-02-02 12:00:00,24.9,11.0,30.17,WSW,257,3.0,9.0,55,0.00,,,0.00,VWS V14.01,2013-02-02 17:00:00,
2013-02-02 12:01:00,24.9,11.0,30.17,WNW,286,8.0,8.0,55,0.00,,,0.00,VWS V14.01,2013-02-02 17:01:00,
2013-02-02 12:02:00,25.0,10.7,30.17,SW,229,6.0,8.0,54,0.00,,,0.00,VWS V14.01,2013-02-02 17:02:00,
2013-02-02 12:03:00,25.0,10.3,30.17,WSW,242,7.0,8.0,53,0.00,,,0.00,VWS V14.01,2013-02-02 17:03:00,
2013-02-02 12:04:00,24.9,10.2,30.17,SSW,196,1.0,8.0,53,0.00,,,0.00,VWS V14.01,2013-02-02 17:04:00,
2013-02-02 12:05:00,24.9,10.2,30.17,West,259,3.0,8.0,53,0.00,,,0.00,VWS V14.01,2013-02-02 17:05:00,
2013-02-02 12:06:00,25.0,10.3,30.17,West,266,3.0,9.0,53,0.00,,,0.00,VWS V14.01,2013-02-02 17:06:00,
2013-02-02 12:07:00,25.0,10.3,30.17,SSW,211,3.0,9.0,53,0.00,,,0.00,VWS V14.01,2013-02-02 17:07:00,
2013-02-02 12:08:00,25.0,10.3,30.17,WSW,248,6.0,9.0,53,0.00,,,0.00,VWS V14.01,2013-02-02 17:08:00,
2013-02-02 12:09:00,25.1,10.4,30.17,WSW,242,5.0,9.0,53,0.00,,,0.00,VWS V14.01,2013-02-02 17:09:00,
2013-02-02 12:10:00,25.1,10.0,30.17,WSW,255,3.0,9.0,52,0.00,,,0.00,VWS V14.01,2013-02-02 17:10:00,
2013-02-02 12:11:00,25.0,9.9,30.17,West,261,7.0,7.0,52,0.00,,,0.00,VWS V14.01,2013-02-02 17:11:00,
2013-02-02 12:12:00,25.0,9.9,30.17,WSW,256,6.0,8.0,52,0.00,,,0.00,VWS V14.01,2013-02-02 17:12:00,
2013-02-02 12:13:00,24.9,9.4,30.17,West,275,6.0,8.0,51,0.00,,,0.00,VWS V14.01,2013-02-02 17:13:00,
2013-02-02 12:14:00,24.9,9.4,30.17,West,271,7.0,8.0,51,0.00,,,0.00,VWS V14.01,2013-02-02 17:14:00,
2013-02-02 12:15:00,24.8,9.7,30.17,West,278,5.0,8.0,52,0.00,,,0.00,VWS V14.01,2013-02-02 17:15:00,
2013-02-02 12:16:00,24.8,9.7,30.17,SSW,193,4.0,8.0,52,0.00,,,0.00,VWS V14.01,2013-02-02 17:16:00,
2013-02-02 12:17:00,24.8,9.7,30.17,WSW,251,8.0,10.0,52,0.00,,,0.00,VWS V14.01,2013-02-02 17:17:00,
2013-02-02 12:18:00,24.6,9.1,30.17,West,265,5.0,10.0,51,0.00,,,0.00,VWS V14.01,2013-02-02 17:18:00,
2013-02-02 12:19:00,24.5,9.0,30.17,SW,236,6.0,10.0,51,0.00,,,0.00,VWS V14.01,2013-02-02 17:19:00,
2013-02-02 12:20:00,24.4,8.9,30.17,WSW,245,0.0,10.0,51,0.00,,,0.00,VWS V14.01,2013-02-02 17:20:00,
2013-02-02 12:21:00,24.3,9.2,30.17,WSW,248,4.0,9.0,52,0.00,,,0.00,VWS V14.01,2013-02-02 17:21:00,
2013-02-02 12:22:00,24.3,8.8,30.17,West,261,0.0,9.0,51,0.00,,,0.00,VWS V14.01,2013-02-02 17:22:00,
2013-02-02 12:23:00,24.2,9.1,30.17,SW,215,2.0,9.0,52,0.00,,,0.00,VWS V14.01,2013-02-02 17:23:00,
2013-02-02 12:24:00,24.2,9.1,30.17,West,272,4.0,9.0,52,0.00,,,0.00,VWS V14.01,2013-02-02 17:24:00,
2013-02-02 12:25:00,24.1,9.0,30.17,WSW,257,6.0,9.0,52,0.00,,,0.00,VWS V14.01,2013-02-02 17:25:00,
2013-02-02 12:26:00,24.0,8.9,30.17,West,267,4.0,9.0,52,0.00,,,0.00,VWS V14.01,2013-02-02 17:26:00,
2013-02-02 12:27:00,24.0,8.9,30.17,SW,229,4.0,10.0,52,0.00,,,0.00,VWS V14.01,2013-02-02 17:27:00,
2013-02-02 12:28:00,24.0,8.9,30.17,WSW,243,5.0,10.0,52,0.00,,,0.00,VWS V14.01,2013-02-02 17:28:00,
2013-02-02 12:29:00,23.9,9.3,30.17,West,267,3.0,10.0,53,0.00,,,0.00,VWS V14.01,2013-02-02 17:29:00,
2013-02-02 12:30:00,23.9,9.3,30.16,WNW,282,6.0,10.0,53,0.00,,,0.00,VWS V14.01,2013-02-02 17:30:00,
2013-02-02 12:31:00,23.9,9.3,30.16,WSW,238,3.0,6.0,53,0.00,,,0.00,VWS V14.01,2013-02-02 17:31:00,
2013-02-02 12:32:00,23.9,9.3,30.16,SW,234,2.0,6.0,53,0.00,,,0.00,VWS V14.01,2013-02-02 17:32:00,
2013-02-02 12:33:00,23.8,9.2,30.16,SW,231,7.0,9.0,53,0.00,,,0.00,VWS V14.01,2013-02-02 17:33:00,
2013-02-02 12:34:00,23.8,9.2,30.16,SSW,200,3.0,9.0,53,0.00,,,0.00,VWS V14.01,2013-02-02 17:34:00,
2013-02-02 12:35:00,23.8,9.2,30.16,SW,219,4.0,9.0,53,0.00,,,0.00,VWS V14.01,2013-02-02 17:35:00,
2013-02-02 12:36:00,23.8,9.6,30.16,WNW,286,7.0,9.0,54,0.00,,,0.00,VWS V14.01,2013-02-02 17:36:00,
2013-02-02 12:37:00,23.8,9.6,30.16,West,277,8.0,9.0,54,0.00,,,0.00,VWS V14.01,2013-02-02 17:37:00,
2013-02-02 12:38:00,23.8,9.6,30.16,SW,228,6.0,12.0,54,0.00,,,0.00,VWS V14.01,2013-02-02 17:38:00,
2013-02-02 12:39:00,23.8,9.6,30.16,West,269,2.0,12.0,54,0.00,,,0.00,VWS V14.01,2013-02-02 17:39:00,
2013-02-02 12:40:00,23.8,9.2,30.16,SW,219,3.0,12.0,53,0.00,,,0.00,VWS V14.01,2013-02-02 17:40:00,
2013-02-02 12:41:00,23.9,9.7,30.16,NW,304,3.0,6.0,54,0.00,,,0.00,VWS V14.01,2013-02-02 17:41:00,
2013-02-02 12:42:00,24.0,9.8,30.16,SSW,195,4.0,6.0,54,0.00,,,0.00,VWS V14.01,2013-02-02 17:42:00,
2013-02-02 12:43:00,24.0,9.8,30.16,WSW,256,8.0,8.0,54,0.00,,,0.00,VWS V14.01,2013-02-02 17:43:00,
2013-02-02 12:44:00,24.1,9.5,30.16,West,272,6.0,9.0,53,0.00,,,0.00,VWS V14.01,2013-02-02 17:44:00,
2013-02-02 12:45:00,24.0,9.4,30.15,West,277,8.0,9.0,53,0.00,,,0.00,VWS V14.01,2013-02-02 17:45:00,
2013-02-02 12:46:00,24.0,8.9,30.15,WSW,237,7.0,10.0,52,0.00,,,0.00,VWS V14.01,2013-02-02 17:46:00,
2013-02-02 12:47:00,24.0,8.9,30.15,WSW,238,6.0,10.0,52,0.00,,,0.00,VWS V14.01,2013-02-02 17:47:00,
2013-02-02 12:48:00,24.0,8.9,30.15,WSW,247,2.0,10.0,52,0.00,,,0.00,VWS V14.01,2013-02-02 17:48:00,
2013-02-02 12:49:00,24.1,9.5,30.15,SSW,202,6.0,10.0,53,0.00,,,0.00,VWS V14.01,2013-02-02 17:49:00,
2013-02-02 12:50:00,24.1,9.5,30.15,SSW,204,4.0,10.0,53,0.00,,,0.00,VWS V14.01,2013-02-02 17:50:00,
2013-02-02 12:51:00,24.1,9.5,30.15,West,265,2.0,7.0,53,0.00,,,0.00,VWS V14.01,2013-02-02 17:51:00,
2013-02-02 12:52:00,24.1,9.5,30.15,West,277,5.0,8.0,53,0.00,,,0.00,VWS V14.01,2013-02-02 17:52:00,
2013-02-02 12:53:00,24.2,9.6,30.15,South,186,7.0,9.0,53,0.00,,,0.00,VWS V14.01,2013-02-02 17:53:00,
2013-02-02 12:54:00,24.2,9.6,30.15,West,275,9.0,9.0,53,0.00,,,0.00,VWS V14.01,2013-02-02 17:54:00,
2013-02-02 12:55:00,24.2,9.6,30.15,WSW,242,9.0,10.0,53,0.00,,,0.00,VWS V14.01,2013-02-02 17:55:00,
2013-02-02 12:56:00,24.2,9.6,30.15,SW,225,3.0,10.0,53,0.00,,,0.00,VWS V14.01,2013-02-02 17:56:00,
2013-02-02 12:57:00,24.2,9.6,30.15,West,261,6.0,10.0,53,0.00,,,0.00,VWS V14.01,2013-02-02 17:57:00,
2013-02-02 12:58:00,24.3,9.6,30.15,SW,223,5.0,10.0,53,0.00,,,0.00,VWS V14.01,2013-02-02 17:58:00,
2013-02-02 12:59:00,24.3,10.1,30.15,NW,317,9.0,10.0,54,0.00,,,0.00,VWS V14.01,2013-02-02 17:59:00,
2013-02-02 13:00:00,24.3,10.1,30.15,SW,223,2.0,10.0,54,0.00,,,0.00,VWS V14.01,2013-02-02 18:00:00,
2013-02-02 13:01:00,24.4,9.7,30.15,WSW,244,3.0,8.0,53,0.00,,,0.00,VWS V14.01,2013-02-02 18:01:00,
2013-02-02 13:02:00,24.4,10.1,30.15,WSW,243,12.0,13.0,54,0.00,,,0.00,VWS V14.01,2013-02-02 18:02:00,
2013-02-02 13:03:00,24.4,9.7,30.15,WSW,244,6.0,13.0,53,0.00,,,0.00,VWS V14.01,2013-02-02 18:03:00,
2013-02-02 13:04:00,24.4,9.3,30.15,West,265,6.0,13.0,52,0.00,,,0.00,VWS V14.01,2013-02-02 18:04:00,
2013-02-02 13:05:00,24.3,9.2,30.15,West,265,0.0,13.0,52,0.00,,,0.00,VWS V14.01,2013-02-02 18:05:00,
2013-02-02 13:06:00,24.3,9.6,30.15,West,274,6.0,13.0,53,0.00,,,0.00,VWS V14.01,2013-02-02 18:06:00,
2013-02-02 13:07:00,24.4,9.7,30.15,West,277,1.0,13.0,53,0.00,,,0.00,VWS V14.01,2013-02-02 18:07:00,
2013-02-02 13:08:00,24.4,9.7,30.15,West,275,6.0,13.0,53,0.00,,,0.00,VWS V14.01,2013-02-02 18:08:00,
2013-02-02 13:09:00,24.4,9.7,30.15,WSW,238,6.0,13.0,53,0.00,,,0.00,VWS V14.01,2013-02-02 18:09:00,
2013-02-02 13:10:00,24.4,9.7,30.15,West,275,5.0,15.0,53,0.00,,,0.00,VWS V14.01,2013-02-02 18:10:00,
2013-02-02 13:11:00,24.3,9.2,30.15,WNW,293,7.0,13.0,52,0.00,,,0.00,VWS V14.01,2013-02-02 18:11:00,
2013-02-02 13:12:00,24.3,9.2,30.15,WNW,282,6.0,13.0,52,0.00,,,0.00,VWS V14.01,2013-02-02 18:12:00,
2013-02-02 13:13:00,24.2,9.1,30.15,SSW,205,3.0,14.0,52,0.00,,,0.00,VWS V14.01,2013-02-02 18:13:00,
2013-02-02 13:14:00,24.2,9.1,30.15,WNW,298,6.0,14.0,52,0.00,,,0.00,VWS V14.01,2013-02-02 18:14:00,
2013-02-02 13:15:00,24.0,8.9,30.14,WSW,244,4.0,14.0,52,0.00,,,0.00,VWS V14.01,2013-02-02 18:15:00,
2013-02-02 13:16:00,24.0,8.9,30.14,WSW,251,10.0,14.0,52,0.00,,,0.00,VWS V14.01,2013-02-02 18:16:00,
2013-02-02 13:17:00,23.8,8.8,30.14,West,260,3.0,14.0,52,0.00,,,0.00,VWS V14.01,2013-02-02 18:17:00,
2013-02-02 13:18:00,23.7,8.7,30.14,WSW,240,2.0,14.0,52,0.00,,,0.00,VWS V14.01,2013-02-02 18:18:00,
2013-02-02 13:19:00,23.7,8.7,30.14,NW,307,6.0,14.0,52,0.00,,,0.00,VWS V14.01,2013-02-02 18:19:00,
2013-02-02 13:20:00,23.6,9.0,30.14,West,261,0.0,14.0,53,0.00,,,0.00,VWS V14.01,2013-02-02 18:20:00,
2013-02-02 13:21:00,23.6,9.0,30.14,WSW,257,4.0,4.0,53,0.00,,,0.00,VWS V14.01,2013-02-02 18:21:00,
2013-02-02 13:22:00,23.6,9.4,30.14,WSW,250,5.0,8.0,54,0.00,,,0.00,VWS V14.01,2013-02-02 18:22:00,
2013-02-02 13:23:00,23.6,9.0,30.14,SW,233,7.0,8.0,53,0.00,,,0.00,VWS V14.01,2013-02-02 18:23:00,
2013-02-02 13:24:00,23.6,9.0,30.14,West,269,5.0,8.0,53,0.00,,,0.00,VWS V14.01,2013-02-02 18:24:00,
2013-02-02 13:25:00,23.6,9.0,30.14,SW,227,1.0,8.0,53,0.00,,,0.00,VWS V14.01,2013-02-02 18:25:00,
2013-02-02 13:26:00,23.6,9.0,30.14,WSW,250,4.0,8.0,53,0.00,,,0.00,VWS V14.01,2013-02-02 18:26:00,
2013-02-02 13:27:00,23.6,9.4,30.14,West,268,4.0,15.0,54,0.00,,,0.00,VWS V14.01,2013-02-02 18:27:00,
2013-02-02 13:28:00,23.5,8.9,30.14,West,264,12.0,15.0,53,0.00,,,0.00,VWS V14.01,2013-02-02 18:28:00,
2013-02-02 13:29:00,23.5,8.9,30.14,SW,236,3.0,15.0,53,0.00,,,0.00,VWS V14.01,2013-02-02 18:29:00,
2013-02-02 13:30:00,23.4,8.8,30.13,WNW,286,6.0,15.0,53,0.00,,,0.00,VWS V14.01,2013-02-02 18:30:00,
2013-02-02 13:31:00,23.4,8.8,30.13,West,273,7.0,8.0,53,0.00,,,0.00,VWS V14.01,2013-02-02 18:31:00,
2013-02-02 13:32:00,23.3,8.7,30.13,WSW,250,2.0,8.0,53,0.00,,,0.00,VWS V14.01,2013-02-02 18:32:00,
2013-02-02 13:33:00,23.3,8.7,30.13,WNW,284,10.0,10.0,53,0.00,,,0.00,VWS V14.01,2013-02-02 18:33:00,
2013-02-02 13:34:00,23.3,8.7,30.13,WSW,238,5.0,10.0,53,0.00,,,0.00,VWS V14.01,2013-02-02 18:34:00,
2013-02-02 13:35:00,23.2,9.0,30.13,West,267,1.0,10.0,54,0.00,,,0.00,VWS V14.01,2013-02-02 18:35:00,
2013-02-02 13:36:00,23.2,9.0,30.13,WSW,238,5.0,10.0,54,0.00,,,0.00,VWS V14.01,2013-02-02 18:36:00,
2013-02-02 13:37:00,23.2,9.0,30.13,WSW,240,1.0,10.0,54,0.00,,,0.00,VWS V14.01,2013-02-02 18:37:00,
2013-02-02 13:38:00,23.1,9.4,30.13,WSW,240,9.0,10.0,55,0.00,,,0.00,VWS V14.01,2013-02-02 18:38:00,
2013-02-02 13:39:00,23.1,9.4,30.13,SW,230,5.0,11.0,55,0.00,,,0.00,VWS V14.01,2013-02-02 18:39:00,
2013-02-02 13:40:00,23.1,9.4,30.13,SSW,196,3.0,11.0,55,0.00,,,0.00,VWS V14.01,2013-02-02 18:40:00,
2013-02-02 13:41:00,23.1,9.4,30.13,SW,223,0.0,5.0,55,0.00,,,0.00,VWS V14.01,2013-02-02 18:41:00,
2013-02-02 13:42:00,23.1,9.4,30.13,WSW,254,4.0,7.0,55,0.00,,,0.00,VWS V14.01,2013-02-02 18:42:00,
2013-02-02 13:43:00,23.1,9.8,30.13,WSW,256,8.0,13.0,56,0.00,,,0.00,VWS V14.01,2013-02-02 18:43:00,
2013-02-02 13:44:00,23.1,9.8,30.13,SW,223,8.0,13.0,56,0.00,,,0.00,VWS V14.01,2013-02-02 18:44:00,
2013-02-02 13:45:00,23.1,9.8,30.13,WSW,243,8.0,13.0,56,0.00,,,0.00,VWS V14.01,2013-02-02 18:45:00,
2013-02-02 13:46:00,23.1,9.8,30.13,WSW,250,6.0,13.0,56,0.00,,,0.00,VWS V14.01,2013-02-02 18:46:00,
2013-02-02 13:47:00,23.0,9.7,30.13,SW,218,3.0,13.0,56,0.00,,,0.00,VWS V14.01,2013-02-02 18:47:00,
2013-02-02 13:48:00,23.0,9.7,30.13,WNW,287,7.0,13.0,56,0.00,,,0.00,VWS V14.01,2013-02-02 18:48:00,
2013-02-02 13:49:00,22.9,9.6,30.13,SSW,209,1.0,13.0,56,0.00,,,0.00,VWS V14.01,2013-02-02 18:49:00,
2013-02-02 13:50:00,23.0,10.1,30.13,SW,221,5.0,13.0,57,0.00,,,0.00,VWS V14.01,2013-02-02 18:50:00,
2013-02-02 13:51:00,22.9,10.0,30.13,West,280,4.0,9.0,57,0.00,,,0.00,VWS V14.01,2013-02-02 18:51:00,
2013-02-02 13:52:00,23.0,10.1,30.13,WSW,257,5.0,9.0,57,0.00,,,0.00,VWS V14.01,2013-02-02 18:52:00,
2013-02-02 13:53:00,22.9,10.0,30.13,SW,236,3.0,9.0,57,0.00,,,0.00,VWS V14.01,2013-02-02 18:53:00,
2013-02-02 13:54:00,22.9,10.0,30.13,WSW,254,1.0,9.0,57,0.00,,,0.00,VWS V14.01,2013-02-02 18:54:00,
2013-02-02 13:55:00,22.9,10.3,30.13,WNW,292,1.0,9.0,58,0.00,,,0.00,VWS V14.01,2013-02-02 18:55:00,
2013-02-02 13:56:00,22.9,10.3,30.13,West,265,5.0,9.0,58,0.00,,,0.00,VWS V14.01,2013-02-02 18:56:00,
2013-02-02 13:57:00,22.9,10.7,30.13,WSW,257,9.0,12.0,59,0.00,,,0.00,VWS V14.01,2013-02-02 18:57:00,
2013-02-02 13:58:00,22.9,10.3,30.13,WSW,256,5.0,12.0,58,0.00,,,0.00,VWS V14.01,2013-02-02 18:58:00,
2013-02-02 13:59:00,22.9,10.7,30.13,West,262,6.0,12.0,59,0.00,,,0.00,VWS V14.01,2013-02-02 18:59:00,
2013-02-02 14:00:00,22.9,10.7,30.12,West,279,2.0,12.0,59,0.00,,,0.00,VWS V14.01,2013-02-02 19:00:00,
2013-02-02 14:01:00,22.9,11.1,30.12,West,273,0.0,4.0,60,0.00,,,0.00,VWS V14.01,2013-02-02 19:01:00,
2013-02-02 14:02:00,22.9,11.1,30.12,West,273,0.0,4.0,60,0.00,,,0.00,VWS V14.01,2013-02-02 19:02:00,
2013-02-02 14:03:00,22.9,11.1,30.12,WSW,252,3.0,8.0,60,0.00,,,0.00,VWS V14.01,2013-02-02 19:03:00,
2013-02-02 14:04:00,22.9,11.1,30.12,West,275,5.0,8.0,60,0.00,,,0.00,VWS V14.01,2013-02-02 19:04:00,
2013-02-02 14:05:00,22.9,11.1,30.12,WSW,252,3.0,8.0,60,0.00,,,0.00,VWS V14.01,2013-02-02 19:05:00,
2013-02-02 14:06:00,22.9,11.1,30.12,WSW,240,3.0,8.0,60,0.00,,,0.00,VWS V14.01,2013-02-02 19:06:00,
2013-02-02 14:07:00,22.9,11.1,30.12,NW,309,1.0,8.0,60,0.00,,,0.00,VWS V14.01,2013-02-02 19:07:00,
2013-02-02 14:08:00,22.9,11.1,30.12,NW,309,0.0,8.0,60,0.00,,,0.00,VWS V14.01,2013-02-02 19:08:00,
2013-02-02 14:09:00,22.9,11.1,30.12,West,271,4.0,8.0,60,0.00,,,0.00,VWS V14.01,2013-02-02 19:09:00,
2013-02-02 14:10:00,23.0,11.6,30.12,West,277,5.0,8.0,61,0.00,,,0.00,VWS V14.01,2013-02-02 19:10:00,
2013-02-02 14:11:00,23.0,11.6,30.12,West,264,0.0,5.0,61,0.00,,,0.00,VWS V14.01,2013-02-02 19:11:00,
2013-02-02 14:12:00,23.0,11.6,30.12,WSW,245,4.0,5.0,61,0.00,,,0.00,VWS V14.01,2013-02-02 19:12:00,
2013-02-02 14:13:00,23.1,11.7,30.12,West,269,1.0,6.0,61,0.00,,,0.00,VWS V14.01,2013-02-02 19:13:00,
2013-02-02 14:14:00,23.0,11.6,30.12,WNW,299,4.0,7.0,61,0.00,,,0.00,VWS V14.01,2013-02-02 19:14:00,
2013-02-02 14:15:00,23.1,11.7,30.12,WNW,282,3.0,7.0,61,0.00,,,0.00,VWS V14.01,2013-02-02 19:15:00,
2013-02-02 14:16:00,23.1,11.7,30.12,WSW,252,5.0,7.0,61,0.00,,,0.00,VWS V14.01,2013-02-02 19:16:00,
2013-02-02 14:17:00,23.1,11.7,30.12,West,271,4.0,7.0,61,0.00,,,0.00,VWS V14.01,2013-02-02 19:17:00,
2013-02-02 14:18:00,23.1,11.7,30.12,SW,216,5.0,8.0,61,0.00,,,0.00,VWS V14.01,2013-02-02 19:18:00,
2013-02-02 14:19:00,23.1,11.7,30.12,SW,233,4.0,8.0,61,0.00,,,0.00,VWS V14.01,2013-02-02 19:19:00,
2013-02-02 14:20:00,23.1,11.7,30.12,SW,221,5.0,8.0,61,0.00,,,0.00,VWS V14.01,2013-02-02 19:20:00,
2013-02-02 14:21:00,23.0,11.9,30.12,SSW,211,4.0,7.0,62,0.00,,,0.00,VWS V14.01,2013-02-02 19:21:00,
2013-02-02 14:22:00,23.0,11.9,30.12,SSW,200,5.0,7.0,62,0.00,,,0.00,VWS V14.01,2013-02-02 19:22:00,
2013-02-02 14:23:00,23.0,11.9,30.12,West,265,1.0,7.0,62,0.00,,,0.00,VWS V14.01,2013-02-02 19:23:00,
2013-02-02 14:24:00,22.9,12.2,30.12,SSW,211,7.0,9.0,63,0.00,,,0.00,VWS V14.01,2013-02-02 19:24:00,
2013-02-02 14:25:00,22.9,12.2,30.12,WSW,249,7.0,9.0,63,0.00,,,0.00,VWS V14.01,2013-02-02 19:25:00,
2013-02-02 14:26:00,22.8,12.1,30.12,WSW,243,4.0,9.0,63,0.00,,,0.00,VWS V14.01,2013-02-02 19:26:00,
2013-02-02 14:27:00,22.7,12.4,30.12,West,267,2.0,9.0,64,0.00,,,0.00,VWS V14.01,2013-02-02 19:27:00,
2013-02-02 14:28:00,22.7,12.7,30.12,West,264,3.0,9.0,65,0.00,,,0.00,VWS V14.01,2013-02-02 19:28:00,
2013-02-02 14:29:00,22.6,12.6,30.12,SW,223,4.0,9.0,65,0.00,,,0.00,VWS V14.01,2013-02-02 19:29:00,
2013-02-02 14:30:00,22.6,12.6,30.12,SW,224,4.0,9.0,65,0.00,,,0.00,VWS V14.01,2013-02-02 19:30:00,
2013-02-02 14:31:00,22.6,13.0,30.12,SW,225,5.0,8.0,66,0.00,,,0.00,VWS V14.01,2013-02-02 19:31:00,
2013-02-02 14:32:00,22.5,12.9,30.12,WSW,250,5.0,8.0,66,0.00,,,0.00,VWS V14.01,2013-02-02 19:32:00,
2013-02-02 14:33:00,22.5,12.9,30.12,WSW,245,8.0,8.0,66,0.00,,,0.00,VWS V14.01,2013-02-02 19:33:00,
2013-02-02 14:34:00,22.4,12.4,30.12,West,272,2.0,8.0,65,0.00,,,0.00,VWS V14.01,2013-02-02 19:34:00,
2013-02-02 14:35:00,22.4,12.8,30.12,WSW,258,1.0,8.0,66,0.00,,,0.00,VWS V14.01,2013-02-02 19:35:00,
2013-02-02 14:36:00,22.4,12.8,30.12,WSW,258,0.0,8.0,66,0.00,,,0.00,VWS V14.01,2013-02-02 19:36:00,
2013-02-02 14:37:00,22.4,12.8,30.12,WSW,240,3.0,11.0,66,0.00,,,0.00,VWS V14.01,2013-02-02 19:37:00,
2013-02-02 14:38:00,22.4,12.8,30.12,West,275,4.0,11.0,66,0.00,,,0.00,VWS V14.01,2013-02-02 19:38:00,
2013-02-02 14:39:00,22.3,12.7,30.12,West,264,2.0,11.0,66,0.00,,,0.00,VWS V14.01,2013-02-02 19:39:00,
2013-02-02 14:40:00,22.4,13.1,30.12,West,261,2.0,11.0,67,0.00,,,0.00,VWS V14.01,2013-02-02 19:40:00,
2013-02-02 14:41:00,22.4,13.1,30.12,NW,304,4.0,8.0,67,0.00,,,0.00,VWS V14.01,2013-02-02 19:41:00,
2013-02-02 14:42:00,22.4,13.1,30.12,SSW,207,4.0,8.0,67,0.00,,,0.00,VWS V14.01,2013-02-02 19:42:00,
2013-02-02 14:43:00,22.3,12.7,30.12,SW,226,4.0,8.0,66,0.00,,,0.00,VWS V14.01,2013-02-02 19:43:00,
2013-02-02 14:44:00,22.3,12.7,30.12,West,263,4.0,8.0,66,0.00,,,0.00,VWS V14.01,2013-02-02 19:44:00,
2013-02-02 14:45:00,22.2,12.6,30.11,West,263,1.0,8.0,66,0.00,,,0.00,VWS V14.01,2013-02-02 19:45:00,
2013-02-02 14:46:00,22.2,12.6,30.11,SSW,210,5.0,8.0,66,0.00,,,0.00,VWS V14.01,2013-02-02 19:46:00,
2013-02-02 14:47:00,22.2,12.9,30.11,WNW,292,8.0,8.0,67,0.00,,,0.00,VWS V14.01,2013-02-02 19:47:00,
2013-02-02 14:48:00,22.2,12.9,30.11,West,259,6.0,9.0,67,0.00,,,0.00,VWS V14.01,2013-02-02 19:48:00,
2013-02-02 14:49:00,22.1,12.8,30.11,West,264,3.0,9.0,67,0.00,,,0.00,VWS V14.01,2013-02-02 19:49:00,
2013-02-02 14:50:00,22.0,12.7,30.11,WNW,284,0.0,9.0,67,0.00,,,0.00,VWS V14.01,2013-02-02 19:50:00,
2013-02-02 14:51:00,22.0,13.1,30.11,WSW,257,7.0,9.0,68,0.00,,,0.00,VWS V14.01,2013-02-02 19:51:00,
2013-02-02 14:52:00,21.9,13.0,30.11,West,263,3.0,9.0,68,0.00,,,0.00,VWS V14.01,2013-02-02 19:52:00,
2013-02-02 14:53:00,21.9,13.0,30.11,West,264,4.0,9.0,68,0.00,,,0.00,VWS V14.01,2013-02-02 19:53:00,
2013-02-02 14:54:00,21.8,12.9,30.11,WSW,248,1.0,9.0,68,0.00,,,0.00,VWS V14.01,2013-02-02 19:54:00,
2013-02-02 14:55:00,21.8,12.9,30.11,West,273,5.0,10.0,68,0.00,,,0.00,VWS V14.01,2013-02-02 19:55:00,
2013-02-02 14:56:00,21.7,12.8,30.11,West,267,0.0,10.0,68,0.00,,,0.00,VWS V14.01,2013-02-02 19:56:00,
2013-02-02 14:57:00,21.7,12.8,30.11,West,275,2.0,10.0,68,0.00,,,0.00,VWS V14.01,2013-02-02 19:57:00,
2013-02-02 14:58:00,21.7,13.1,30.11,WSW,245,6.0,10.0,69,0.00,,,0.00,VWS V14.01,2013-02-02 19:58:00,
2013-02-02 14:59:00,21.7,13.1,30.11,WNW,284,3.0,10.0,69,0.00,,,0.00,VWS V14.01,2013-02-02 19:59:00,
2013-02-02 15:00:00,21.6,13.0,30.11,West,278,11.0,12.0,69,0.00,,,0.00,VWS V14.01,2013-02-02 20:00:00,
2013-02-02 15:01:00,21.6,13.0,30.11,WSW,254,6.0,11.0,69,0.00,,,0.00,VWS V14.01,2013-02-02 20:01:00,
2013-02-02 15:02:00,21.6,13.3,30.11,West,278,4.0,11.0,70,0.00,,,0.00,VWS V14.01,2013-02-02 20:02:00,
2013-02-02 15:03:00,21.5,13.2,30.11,West,261,1.0,11.0,70,0.00,,,0.00,VWS V14.01,2013-02-02 20:03:00,
2013-02-02 15:04:00,21.5,13.2,30.11,West,261,0.0,11.0,70,0.00,,,0.00,VWS V14.01,2013-02-02 20:04:00,
2013-02-02 15:05:00,21.5,13.2,30.11,West,269,7.0,11.0,70,0.00,,,0.00,VWS V14.01,2013-02-02 20:05:00,
2013-02-02 15:06:00,21.5,13.6,30.11,West,273,11.0,11.0,71,0.00,,,0.00,VWS V14.01,2013-02-02 20:06:00,
2013-02-02 15:07:00,21.5,13.6,30.11,West,267,1.0,11.0,71,0.00,,,0.00,VWS V14.01,2013-02-02 20:07:00,
2013-02-02 15:08:00,21.4,13.1,30.11,WSW,239,4.0,11.0,70,0.00,,,0.00,VWS V14.01,2013-02-02 20:08:00,
2013-02-02 15:09:00,21.4,13.5,30.11,WSW,247,3.0,11.0,71,0.00,,,0.00,VWS V14.01,2013-02-02 20:09:00,
2013-02-02 15:10:00,21.4,13.5,30.11,WSW,251,2.0,11.0,71,0.00,,,0.00,VWS V14.01,2013-02-02 20:10:00,
2013-02-02 15:11:00,21.4,13.5,30.11,West,273,8.0,8.0,71,0.00,,,0.00,VWS V14.01,2013-02-02 20:11:00,
2013-02-02 15:12:00,21.4,13.5,30.11,SW,214,4.0,10.0,71,0.00,,,0.00,VWS V14.01,2013-02-02 20:12:00,
2013-02-02 15:13:00,21.3,13.4,30.11,WSW,257,3.0,10.0,71,0.00,,,0.00,VWS V14.01,2013-02-02 20:13:00,
2013-02-02 15:14:00,21.3,13.4,30.11,West,261,4.0,10.0,71,0.00,,,0.00,VWS V14.01,2013-02-02 20:14:00,
2013-02-02 15:15:00,21.3,13.7,30.11,West,273,1.0,10.0,72,0.00,,,0.00,VWS V14.01,2013-02-02 20:15:00,
2013-02-02 15:16:00,21.4,13.5,30.11,WSW,248,4.0,10.0,71,0.00,,,0.00,VWS V14.01,2013-02-02 20:16:00,
2013-02-02 15:17:00,21.4,13.8,30.11,West,273,1.0,10.0,72,0.00,,,0.00,VWS V14.01,2013-02-02 20:17:00,
2013-02-02 15:18:00,21.4,13.8,30.11,WNW,284,1.0,10.0,72,0.00,,,0.00,VWS V14.01,2013-02-02 20:18:00,
2013-02-02 15:19:00,21.4,13.8,30.11,West,269,10.0,10.0,72,0.00,,,0.00,VWS V14.01,2013-02-02 20:19:00,
2013-02-02 15:20:00,21.3,13.4,30.11,SSW,196,0.0,10.0,71,0.00,,,0.00,VWS V14.01,2013-02-02 20:20:00,
2013-02-02 15:21:00,21.4,13.5,30.11,WSW,238,2.0,5.0,71,0.00,,,0.00,VWS V14.01,2013-02-02 20:21:00,
2013-02-02 15:22:00,21.4,13.8,30.11,WSW,254,0.0,5.0,72,0.00,,,0.00,VWS V14.01,2013-02-02 20:22:00,
2013-02-02 15:23:00,21.3,13.7,30.11,West,265,4.0,5.0,72,0.00,,,0.00,VWS V14.01,2013-02-02 20:23:00,
2013-02-02 15:24:00,21.4,13.8,30.11,WNW,284,4.0,6.0,72,0.00,,,0.00,VWS V14.01,2013-02-02 20:24:00,
2013-02-02 15:25:00,21.3,13.7,30.11,WNW,283,2.0,6.0,72,0.00,,,0.00,VWS V14.01,2013-02-02 20:25:00,
2013-02-02 15:26:00,21.4,13.8,30.11,WSW,250,0.0,7.0,72,0.00,,,0.00,VWS V14.01,2013-02-02 20:26:00,
2013-02-02 15:27:00,21.4,13.8,30.11,West,270,3.0,7.0,72,0.00,,,0.00,VWS V14.01,2013-02-02 20:27:00,
2013-02-02 15:28:00,21.4,13.8,30.11,West,270,0.0,7.0,72,0.00,,,0.00,VWS V14.01,2013-02-02 20:28:00,
2013-02-02 15:29:00,21.4,13.5,30.11,SSW,210,3.0,7.0,71,0.00,,,0.00,VWS V14.01,2013-02-02 20:29:00,
2013-02-02 15:30:00,21.5,13.9,30.10,SW,217,2.0,7.0,72,0.00,,,0.00,VWS V14.01,2013-02-02 20:30:00,
2013-02-02 15:31:00,21.5,13.9,30.10,SW,215,1.0,3.0,72,0.00,,,0.00,VWS V14.01,2013-02-02 20:31:00,
2013-02-02 15:32:00,21.6,14.0,30.10,West,274,4.0,4.0,72,0.00,,,0.00,VWS V14.01,2013-02-02 20:32:00,
2013-02-02 15:33:00,21.6,14.0,30.10,West,261,5.0,7.0,72,0.00,,,0.00,VWS V14.01,2013-02-02 20:33:00,
2013-02-02 15:34:00,21.6,14.0,30.10,West,271,5.0,7.0,72,0.00,,,0.00,VWS V14.01,2013-02-02 20:34:00,
2013-02-02 15:35:00,21.6,14.0,30.10,West,271,0.0,7.0,72,0.00,,,0.00,VWS V14.01,2013-02-02 20:35:00,
2013-02-02 15:36:00,21.6,14.0,30.10,West,266,1.0,7.0,72,0.00,,,0.00,VWS V14.01,2013-02-02 20:36:00,
2013-02-02 15:37:00,21.6,14.0,30.10,SW,228,3.0,7.0,72,0.00,,,0.00,VWS V14.01,2013-02-02 20:37:00,
2013-02-02 15:38:00,21.7,14.1,30.10,WSW,254,4.0,7.0,72,0.00,,,0.00,VWS V14.01,2013-02-02 20:38:00,
2013-02-02 15:39:00,21.7,14.1,30.10,WNW,283,2.0,7.0,72,0.00,,,0.00,VWS V14.01,2013-02-02 20:39:00,
2013-02-02 15:40:00,21.7,14.1,30.10,West,281,2.0,7.0,72,0.00,,,0.00,VWS V14.01,2013-02-02 20:40:00,
2013-02-02 15:41:00,21.7,13.8,30.10,West,281,2.0,2.0,71,0.00,,,0.00,VWS V14.01,2013-02-02 20:41:00,
2013-02-02 15:42:00,21.7,13.8,30.10,WSW,258,1.0,4.0,71,0.00,,,0.00,VWS V14.01,2013-02-02 20:42:00,
2013-02-02 15:43:00,21.7,14.1,30.10,WSW,238,1.0,5.0,72,0.00,,,0.00,VWS V14.01,2013-02-02 20:43:00,
2013-02-02 15:44:00,21.7,14.1,30.10,WSW,238,2.0,5.0,72,0.00,,,0.00,VWS V14.01,2013-02-02 20:44:00,
2013-02-02 15:45:00,21.7,14.1,30.10,WSW,243,1.0,5.0,72,0.00,,,0.00,VWS V14.01,2013-02-02 20:45:00,
2013-02-02 15:46:00,21.7,14.1,30.10,West,277,4.0,5.0,72,0.00,,,0.00,VWS V14.01,2013-02-02 20:46:00,
2013-02-02 15:47:00,21.7,14.1,30.10,West,267,4.0,5.0,72,0.00,,,0.00,VWS V14.01,2013-02-02 20:47:00,
2013-02-02 15:48:00,21.7,14.1,30.10,West,281,4.0,5.0,72,0.00,,,0.00,VWS V14.01,2013-02-02 20:48:00,
2013-02-02 15:49:00,21.7,14.1,30.10,West,259,1.0,5.0,72,0.00,,,0.00,VWS V14.01,2013-02-02 20:49:00,
2013-02-02 15:50:00,21.7,14.1,30.10,West,261,2.0,5.0,72,0.00,,,0.00,VWS V14.01,2013-02-02 20:50:00,
2013-02-02 15:51:00,21.7,14.1,30.10,West,261,0.0,2.0,72,0.00,,,0.00,VWS V14.01,2013-02-02 20:51:00,
2013-02-02 15:52:00,21.8,14.2,30.10,WSW,257,0.0,2.0,72,0.00,,,0.00,VWS V14.01,2013-02-02 20:52:00,
2013-02-02 15:53:00,21.7,14.1,30.10,West,262,4.0,8.0,72,0.00,,,0.00,VWS V14.01,2013-02-02 20:53:00,
2013-02-02 15:54:00,21.7,14.1,30.10,WSW,239,4.0,10.0,72,0.00,,,0.00,VWS V14.01,2013-02-02 20:54:00,
2013-02-02 15:55:00,21.7,14.1,30.10,West,275,8.0,10.0,72,0.00,,,0.00,VWS V14.01,2013-02-02 20:55:00,
2013-02-02 15:56:00,21.7,14.1,30.10,West,265,4.0,10.0,72,0.00,,,0.00,VWS V14.01,2013-02-02 20:56:00,
2013-02-02 15:57:00,21.7,14.4,30.10,WSW,252,1.0,10.0,73,0.00,,,0.00,VWS V14.01,2013-02-02 20:57:00,
2013-02-02 15:58:00,21.7,14.4,30.10,West,270,8.0,10.0,73,0.00,,,0.00,VWS V14.01,2013-02-02 20:58:00,
2013-02-02 15:59:00,21.7,14.4,30.10,West,260,1.0,10.0,73,0.00,,,0.00,VWS V14.01,2013-02-02 20:59:00,
2013-02-02 16:00:00,21.7,14.4,30.09,West,260,1.0,10.0,73,0.00,,,0.00,VWS V14.01,2013-02-02 21:00:00,
2013-02-02 16:01:00,21.7,14.4,30.09,West,267,5.0,8.0,73,0.00,,,0.00,VWS V14.01,2013-02-02 21:01:00,
2013-02-02 16:02:00,21.7,14.7,30.09,West,279,2.0,9.0,74,0.00,,,0.00,VWS V14.01,2013-02-02 21:02:00,
2013-02-02 16:03:00,21.6,14.6,30.09,WNW,285,7.0,9.0,74,0.00,,,0.00,VWS V14.01,2013-02-02 21:03:00,
2013-02-02 16:04:00,21.6,14.6,30.09,WSW,254,1.0,9.0,74,0.00,,,0.00,VWS V14.01,2013-02-02 21:04:00,
2013-02-02 16:05:00,21.6,14.6,30.09,WNW,298,2.0,9.0,74,0.00,,,0.00,VWS V14.01,2013-02-02 21:05:00,
2013-02-02 16:06:00,21.6,14.6,30.09,WNW,298,0.0,9.0,74,0.00,,,0.00,VWS V14.01,2013-02-02 21:06:00,
2013-02-02 16:07:00,21.6,14.6,30.09,West,265,5.0,9.0,74,0.00,,,0.00,VWS V14.01,2013-02-02 21:07:00,
2013-02-02 16:08:00,21.5,14.5,30.09,West,273,4.0,10.0,74,0.00,,,0.00,VWS V14.01,2013-02-02 21:08:00,
2013-02-02 16:09:00,21.5,14.8,30.09,West,260,7.0,13.0,75,0.00,,,0.00,VWS V14.01,2013-02-02 21:09:00,
2013-02-02 16:10:00,21.4,14.7,30.09,WSW,257,3.0,16.0,75,0.00,,,0.00,VWS V14.01,2013-02-02 21:10:00,
2013-02-02 16:11:00,21.4,14.7,30.09,West,267,6.0,8.0,75,0.00,,,0.00,VWS V14.01,2013-02-02 21:11:00,
2013-02-02 16:12:00,21.3,14.6,30.09,West,263,6.0,8.0,75,0.00,,,0.00,VWS V14.01,2013-02-02 21:12:00,
2013-02-02 16:13:00,21.3,14.9,30.09,SW,235,2.0,8.0,76,0.00,,,0.00,VWS V14.01,2013-02-02 21:13:00,
2013-02-02 16:14:00,21.3,14.9,30.09,West,261,5.0,8.0,76,0.00,,,0.00,VWS V14.01,2013-02-02 21:14:00,
2013-02-02 16:15:00,21.3,14.9,30.09,West,263,5.0,9.0,76,0.00,,,0.00,VWS V14.01,2013-02-02 21:15:00,
2013-02-02 16:16:00,21.2,14.8,30.09,WSW,257,1.0,9.0,76,0.00,,,0.00,VWS V14.01,2013-02-02 21:16:00,
2013-02-02 16:17:00,21.2,14.8,30.09,West,264,2.0,9.0,76,0.00,,,0.00,VWS V14.01,2013-02-02 21:17:00,
2013-02-02 16:18:00,21.2,14.8,30.09,West,278,6.0,9.0,76,0.00,,,0.00,VWS V14.01,2013-02-02 21:18:00,
2013-02-02 16:19:00,21.1,14.7,30.09,WSW,257,4.0,9.0,76,0.00,,,0.00,VWS V14.01,2013-02-02 21:19:00,
2013-02-02 16:20:00,21.1,14.7,30.09,WNW,288,0.0,9.0,76,0.00,,,0.00,VWS V14.01,2013-02-02 21:20:00,
2013-02-02 16:21:00,21.1,14.7,30.09,WSW,244,5.0,5.0,76,0.00,,,0.00,VWS V14.01,2013-02-02 21:21:00,
2013-02-02 16:22:00,21.1,14.7,30.09,WSW,244,2.0,5.0,76,0.00,,,0.00,VWS V14.01,2013-02-02 21:22:00,
2013-02-02 16:23:00,21.1,14.7,30.09,West,272,3.0,5.0,76,0.00,,,0.00,VWS V14.01,2013-02-02 21:23:00,
2013-02-02 16:24:00,21.1,15.0,30.09,WSW,238,4.0,5.0,77,0.00,,,0.00,VWS V14.01,2013-02-02 21:24:00,
2013-02-02 16:25:00,21.1,15.0,30.09,West,265,2.0,6.0,77,0.00,,,0.00,VWS V14.01,2013-02-02 21:25:00,
2013-02-02 16:26:00,21.1,15.0,30.09,West,273,6.0,6.0,77,0.00,,,0.00,VWS V14.01,2013-02-02 21:26:00,
2013-02-02 16:27:00,21.1,15.0,30.09,West,264,1.0,6.0,77,0.00,,,0.00,VWS V14.01,2013-02-02 21:27:00,
2013-02-02 16:28:00,21.0,14.9,30.09,West,265,4.0,6.0,77,0.00,,,0.00,VWS V14.01,2013-02-02 21:28:00,
2013-02-02 16:29:00,21.0,14.9,30.09,West,265,4.0,6.0,77,0.00,,,0.00,VWS V14.01,2013-02-02 21:29:00,
2013-02-02 16:30:00,21.0,14.9,30.10,West,267,3.0,6.0,77,0.00,,,0.00,VWS V14.01,2013-02-02 21:30:00,
2013-02-02 16:31:00,20.9,14.8,30.10,SW,224,4.0,4.0,77,0.00,,,0.00,VWS V14.01,2013-02-02 21:31:00,
2013-02-02 16:32:00,20.9,14.8,30.10,WNW,289,2.0,4.0,77,0.00,,,0.00,VWS V14.01,2013-02-02 21:32:00,
2013-02-02 16:33:00,20.9,14.8,30.10,WNW,288,1.0,4.0,77,0.00,,,0.00,VWS V14.01,2013-02-02 21:33:00,
2013-02-02 16:34:00,20.9,14.8,30.10,West,262,2.0,5.0,77,0.00,,,0.00,VWS V14.01,2013-02-02 21:34:00,
2013-02-02 16:35:00,20.9,15.1,30.10,NW,316,3.0,7.0,78,0.00,,,0.00,VWS V14.01,2013-02-02 21:35:00,
2013-02-02 16:36:00,20.9,15.1,30.10,WSW,242,2.0,7.0,78,0.00,,,0.00,VWS V14.01,2013-02-02 21:36:00,
2013-02-02 16:37:00,20.9,15.1,30.10,SW,215,2.0,7.0,78,0.00,,,0.00,VWS V14.01,2013-02-02 21:37:00,
2013-02-02 16:38:00,20.9,15.1,30.10,WNW,292,2.0,7.0,78,0.00,,,0.00,VWS V14.01,2013-02-02 21:38:00,
2013-02-02 16:39:00,20.9,15.1,30.10,WNW,286,0.0,7.0,78,0.00,,,0.00,VWS V14.01,2013-02-02 21:39:00,
2013-02-02 16:40:00,20.9,15.1,30.10,West,271,4.0,7.0,78,0.00,,,0.00,VWS V14.01,2013-02-02 21:40:00,
2013-02-02 16:41:00,20.8,15.3,30.10,West,268,5.0,6.0,79,0.00,,,0.00,VWS V14.01,2013-02-02 21:41:00,
2013-02-02 16:42:00,20.8,15.0,30.10,West,269,2.0,6.0,78,0.00,,,0.00,VWS V14.01,2013-02-02 21:42:00,
2013-02-02 16:43:00,20.8,15.3,30.10,West,274,4.0,6.0,79,0.00,,,0.00,VWS V14.01,2013-02-02 21:43:00,
2013-02-02 16:44:00,20.8,15.3,30.10,WNW,286,0.0,6.0,79,0.00,,,0.00,VWS V14.01,2013-02-02 21:44:00,
2013-02-02 16:45:00,20.7,15.2,30.09,West,281,0.0,6.0,79,0.00,,,0.00,VWS V14.01,2013-02-02 21:45:00,
2013-02-02 16:46:00,20.7,15.2,30.09,SW,216,3.0,6.0,79,0.00,,,0.00,VWS V14.01,2013-02-02 21:46:00,
2013-02-02 16:47:00,20.7,15.2,30.09,West,271,3.0,8.0,79,0.00,,,0.00,VWS V14.01,2013-02-02 21:47:00,
2013-02-02 16:48:00,20.7,15.2,30.09,West,262,0.0,8.0,79,0.00,,,0.00,VWS V14.01,2013-02-02 21:48:00,
2013-02-02 16:49:00,20.7,15.2,30.09,West,281,6.0,8.0,79,0.00,,,0.00,VWS V14.01,2013-02-02 21:49:00,
2013-02-02 16:50:00,20.7,15.2,30.09,WSW,243,2.0,8.0,79,0.00,,,0.00,VWS V14.01,2013-02-02 21:50:00,
2013-02-02 16:51:00,20.6,15.1,30.09,SW,225,3.0,8.0,79,0.00,,,0.00,VWS V14.01,2013-02-02 21:51:00,
2013-02-02 16:52:00,20.6,15.1,30.09,SW,223,2.0,8.0,79,0.00,,,0.00,VWS V14.01,2013-02-02 21:52:00,
2013-02-02 16:53:00,20.6,15.1,30.09,WSW,254,5.0,8.0,79,0.00,,,0.00,VWS V14.01,2013-02-02 21:53:00,
2013-02-02 16:54:00,20.6,15.4,30.09,West,279,7.0,8.0,80,0.00,,,0.00,VWS V14.01,2013-02-02 21:54:00,
2013-02-02 16:55:00,20.5,15.3,30.09,West,259,1.0,8.0,80,0.00,,,0.00,VWS V14.01,2013-02-02 21:55:00,
2013-02-02 16:56:00,20.5,15.3,30.09,WSW,252,2.0,8.0,80,0.00,,,0.00,VWS V14.01,2013-02-02 21:56:00,
2013-02-02 16:57:00,20.5,15.3,30.09,West,265,2.0,8.0,80,0.00,,,0.00,VWS V14.01,2013-02-02 21:57:00,
2013-02-02 16:58:00,20.5,15.3,30.09,WSW,256,4.0,8.0,80,0.00,,,0.00,VWS V14.01,2013-02-02 21:58:00,
2013-02-02 16:59:00,20.4,15.2,30.09,WNW,282,2.0,8.0,80,0.00,,,0.00,VWS V14.01,2013-02-02 21:59:00,
2013-02-02 17:00:00,20.4,15.2,30.09,West,276,2.0,8.0,80,0.00,,,0.00,VWS V14.01,2013-02-02 22:00:00,
2013-02-02 17:01:00,20.4,15.5,30.09,West,277,0.0,1.0,81,0.00,,,0.00,VWS V14.01,2013-02-02 22:01:00,
2013-02-02 17:02:00,20.4,15.5,30.09,West,281,0.0,2.0,81,0.00,,,0.00,VWS V14.01,2013-02-02 22:02:00,
2013-02-02 17:03:00,20.4,15.5,30.09,WNW,286,8.0,9.0,81,0.00,,,0.00,VWS V14.01,2013-02-02 22:03:00,
2013-02-02 17:04:00,20.4,15.5,30.09,West,276,3.0,9.0,81,0.00,,,0.00,VWS V14.01,2013-02-02 22:04:00,
2013-02-02 17:05:00,20.4,15.5,30.09,West,261,4.0,9.0,81,0.00,,,0.00,VWS V14.01,2013-02-02 22:05:00,
2013-02-02 17:06:00,20.4,15.5,30.09,West,265,3.0,9.0,81,0.00,,,0.00,VWS V14.01,2013-02-02 22:06:00,
2013-02-02 17:07:00,20.4,15.5,30.09,West,265,0.0,9.0,81,0.00,,,0.00,VWS V14.01,2013-02-02 22:07:00,
2013-02-02 17:08:00,20.4,15.5,30.09,West,265,0.0,9.0,81,0.00,,,0.00,VWS V14.01,2013-02-02 22:08:00,
2013-02-02 17:09:00,20.3,15.7,30.09,WSW,252,1.0,9.0,82,0.00,,,0.00,VWS V14.01,2013-02-02 22:09:00,
2013-02-02 17:10:00,20.3,15.7,30.09,WSW,252,1.0,9.0,82,0.00,,,0.00,VWS V14.01,2013-02-02 22:10:00,
2013-02-02 17:11:00,20.3,15.7,30.09,WSW,249,1.0,3.0,82,0.00,,,0.00,VWS V14.01,2013-02-02 22:11:00,
2013-02-02 17:12:00,20.3,15.7,30.09,WSW,252,5.0,5.0,82,0.00,,,0.00,VWS V14.01,2013-02-02 22:12:00,
2013-02-02 17:13:00,20.3,15.7,30.09,SW,215,3.0,5.0,82,0.00,,,0.00,VWS V14.01,2013-02-02 22:13:00,
2013-02-02 17:14:00,20.3,15.7,30.09,SW,223,2.0,5.0,82,0.00,,,0.00,VWS V14.01,2013-02-02 22:14:00,
2013-02-02 17:15:00,20.3,15.7,30.09,WSW,248,0.0,5.0,82,0.00,,,0.00,VWS V14.01,2013-02-02 22:15:00,
2013-02-02 17:16:00,20.3,15.7,30.09,WSW,248,1.0,5.0,82,0.00,,,0.00,VWS V14.01,2013-02-02 22:16:00,
2013-02-02 17:17:00,20.3,16.0,30.09,WSW,254,4.0,5.0,83,0.00,,,0.00,VWS V14.01,2013-02-02 22:17:00,
2013-02-02 17:18:00,20.3,16.0,30.09,West,271,2.0,5.0,83,0.00,,,0.00,VWS V14.01,2013-02-02 22:18:00,
2013-02-02 17:19:00,20.3,16.0,30.09,West,267,2.0,5.0,83,0.00,,,0.00,VWS V14.01,2013-02-02 22:19:00,
2013-02-02 17:20:00,20.3,16.0,30.09,WSW,248,6.0,8.0,83,0.00,,,0.00,VWS V14.01,2013-02-02 22:20:00,
2013-02-02 17:21:00,20.2,15.9,30.09,West,265,3.0,9.0,83,0.00,,,0.00,VWS V14.01,2013-02-02 22:21:00,
2013-02-02 17:22:00,20.2,15.9,30.09,West,263,4.0,9.0,83,0.00,,,0.00,VWS V14.01,2013-02-02 22:22:00,
2013-02-02 17:23:00,20.1,15.8,30.09,West,266,9.0,9.0,83,0.00,,,0.00,VWS V14.01,2013-02-02 22:23:00,
2013-02-02 17:24:00,20.1,15.8,30.09,West,276,1.0,9.0,83,0.00,,,0.00,VWS V14.01,2013-02-02 22:24:00,
2013-02-02 17:25:00,20.0,15.7,30.09,West,275,1.0,9.0,83,0.00,,,0.00,VWS V14.01,2013-02-02 22:25:00,
2013-02-02 17:26:00,20.0,15.7,30.09,West,271,3.0,9.0,83,0.00,,,0.00,VWS V14.01,2013-02-02 22:26:00,
2013-02-02 17:27:00,20.0,15.9,30.09,West,269,6.0,9.0,84,0.00,,,0.00,VWS V14.01,2013-02-02 22:27:00,
2013-02-02 17:28:00,20.0,15.9,30.09,West,275,2.0,9.0,84,0.00,,,0.00,VWS V14.01,2013-02-02 22:28:00,
2013-02-02 17:29:00,20.0,15.9,30.09,West,281,1.0,9.0,84,0.00,,,0.00,VWS V14.01,2013-02-02 22:29:00,
2013-02-02 17:30:00,20.0,15.9,30.08,WSW,255,2.0,9.0,84,0.00,,,0.00,VWS V14.01,2013-02-02 22:30:00,
2013-02-02 17:31:00,20.0,15.9,30.08,SW,232,4.0,5.0,84,0.00,,,0.00,VWS V14.01,2013-02-02 22:31:00,
2013-02-02 17:32:00,20.0,15.9,30.08,WSW,249,5.0,6.0,84,0.00,,,0.00,VWS V14.01,2013-02-02 22:32:00,
2013-02-02 17:33:00,19.9,15.9,30.08,West,273,4.0,6.0,84,0.00,,,0.00,VWS V14.01,2013-02-02 22:33:00,
2013-02-02 17:34:00,19.9,15.9,30.08,WSW,248,5.0,6.0,84,0.00,,,0.00,VWS V14.01,2013-02-02 22:34:00,
2013-02-02 17:35:00,19.9,15.9,30.08,West,263,6.0,8.0,84,0.00,,,0.00,VWS V14.01,2013-02-02 22:35:00,
2013-02-02 17:36:00,19.9,15.9,30.08,West,269,2.0,8.0,84,0.00,,,0.00,VWS V14.01,2013-02-02 22:36:00,
2013-02-02 17:37:00,19.8,15.8,30.08,WNW,285,8.0,8.0,84,0.00,,,0.00,VWS V14.01,2013-02-02 22:37:00,
2013-02-02 17:38:00,19.8,15.8,30.08,West,272,3.0,8.0,84,0.00,,,0.00,VWS V14.01,2013-02-02 22:38:00,
2013-02-02 17:39:00,19.8,16.0,30.08,West,265,5.0,8.0,85,0.00,,,0.00,VWS V14.01,2013-02-02 22:39:00,
2013-02-02 17:40:00,19.8,16.0,30.08,West,272,3.0,8.0,85,0.00,,,0.00,VWS V14.01,2013-02-02 22:40:00,
2013-02-02 17:41:00,19.8,16.0,30.08,West,281,3.0,4.0,85,0.00,,,0.00,VWS V14.01,2013-02-02 22:41:00,
2013-02-02 17:42:00,19.8,16.0,30.08,West,271,1.0,4.0,85,0.00,,,0.00,VWS V14.01,2013-02-02 22:42:00,
2013-02-02 17:43:00,19.8,16.0,30.08,West,271,0.0,4.0,85,0.00,,,0.00,VWS V14.01,2013-02-02 22:43:00,
2013-02-02 17:44:00,19.8,16.0,30.08,West,271,0.0,4.0,85,0.00,,,0.00,VWS V14.01,2013-02-02 22:44:00,
2013-02-02 17:45:00,19.8,16.0,30.08,WSW,258,1.0,4.0,85,0.00,,,0.00,VWS V14.01,2013-02-02 22:45:00,
2013-02-02 17:46:00,19.8,16.0,30.08,West,261,3.0,4.0,85,0.00,,,0.00,VWS V14.01,2013-02-02 22:46:00,
2013-02-02 17:47:00,19.8,16.0,30.08,WNW,284,4.0,6.0,85,0.00,,,0.00,VWS V14.01,2013-02-02 22:47:00,
2013-02-02 17:48:00,19.8,16.0,30.08,West,279,2.0,6.0,85,0.00,,,0.00,VWS V14.01,2013-02-02 22:48:00,
2013-02-02 17:49:00,19.8,16.3,30.08,West,269,5.0,7.0,86,0.00,,,0.00,VWS V14.01,2013-02-02 22:49:00,
2013-02-02 17:50:00,19.8,16.0,30.08,West,273,4.0,7.0,85,0.00,,,0.00,VWS V14.01,2013-02-02 22:50:00,
2013-02-02 17:51:00,19.8,16.3,30.08,WSW,246,4.0,5.0,86,0.00,,,0.00,VWS V14.01,2013-02-02 22:51:00,
2013-02-02 17:52:00,19.8,16.3,30.08,West,261,5.0,7.0,86,0.00,,,0.00,VWS V14.01,2013-02-02 22:52:00,
2013-02-02 17:53:00,19.7,16.2,30.08,WSW,246,5.0,7.0,86,0.00,,,0.00,VWS V14.01,2013-02-02 22:53:00,
2013-02-02 17:54:00,19.7,16.2,30.08,WSW,241,3.0,7.0,86,0.00,,,0.00,VWS V14.01,2013-02-02 22:54:00,
2013-02-02 17:55:00,19.7,16.2,30.08,West,267,5.0,7.0,86,0.00,,,0.00,VWS V14.01,2013-02-02 22:55:00,
2013-02-02 17:56:00,19.7,16.2,30.08,West,275,5.0,7.0,86,0.00,,,0.00,VWS V14.01,2013-02-02 22:56:00,
2013-02-02 17:57:00,19.7,16.2,30.08,West,281,4.0,7.0,86,0.00,,,0.00,VWS V14.01,2013-02-02 22:57:00,
2013-02-02 17:58:00,19.7,16.2,30.08,WNW,284,0.0,7.0,86,0.00,,,0.00,VWS V14.01,2013-02-02 22:58:00,
2013-02-02 17:59:00,19.7,16.2,30.08,WNW,284,0.0,7.0,86,0.00,,,0.00,VWS V14.01,2013-02-02 22:59:00,
2013-02-02 18:00:00,19.7,16.2,30.08,WNW,284,1.0,7.0,86,0.00,,,0.00,VWS V14.01,2013-02-02 23:00:00,
2013-02-02 18:01:00,19.7,16.2,30.08,West,278,3.0,4.0,86,0.00,,,0.00,VWS V14.01,2013-02-02 23:01:00,
2013-02-02 18:02:00,19.7,16.2,30.08,West,280,5.0,5.0,86,0.00,,,0.00,VWS V14.01,2013-02-02 23:02:00,
2013-02-02 18:03:00,19.7,16.2,30.08,West,272,2.0,6.0,86,0.00,,,0.00,VWS V14.01,2013-02-02 23:03:00,
2013-02-02 18:04:00,19.7,16.2,30.08,West,272,3.0,8.0,86,0.00,,,0.00,VWS V14.01,2013-02-02 23:04:00,
2013-02-02 18:05:00,19.7,16.2,30.08,West,274,0.0,8.0,86,0.00,,,0.00,VWS V14.01,2013-02-02 23:05:00,
2013-02-02 18:06:00,19.7,16.2,30.08,West,274,3.0,8.0,86,0.00,,,0.00,VWS V14.01,2013-02-02 23:06:00,
2013-02-02 18:07:00,19.7,16.2,30.08,SW,231,4.0,8.0,86,0.00,,,0.00,VWS V14.01,2013-02-02 23:07:00,
2013-02-02 18:08:00,19.7,16.2,30.08,WSW,248,1.0,8.0,86,0.00,,,0.00,VWS V14.01,2013-02-02 23:08:00,
2013-02-02 18:09:00,19.7,16.2,30.08,WNW,283,5.0,8.0,86,0.00,,,0.00,VWS V14.01,2013-02-02 23:09:00,
2013-02-02 18:10:00,19.7,16.2,30.08,West,281,2.0,8.0,86,0.00,,,0.00,VWS V14.01,2013-02-02 23:10:00,
2013-02-02 18:11:00,19.7,16.5,30.08,SW,235,2.0,5.0,87,0.00,,,0.00,VWS V14.01,2013-02-02 23:11:00,
2013-02-02 18:12:00,19.7,16.5,30.08,West,259,4.0,5.0,87,0.00,,,0.00,VWS V14.01,2013-02-02 23:12:00,
2013-02-02 18:13:00,19.7,16.5,30.08,West,267,4.0,5.0,87,0.00,,,0.00,VWS V14.01,2013-02-02 23:13:00,
2013-02-02 18:14:00,19.7,16.5,30.08,West,267,0.0,5.0,87,0.00,,,0.00,VWS V14.01,2013-02-02 23:14:00,
2013-02-02 18:15:00,19.7,16.5,30.08,West,267,0.0,5.0,87,0.00,,,0.00,VWS V14.01,2013-02-02 23:15:00,
2013-02-02 18:16:00,19.7,16.5,30.08,West,259,3.0,5.0,87,0.00,,,0.00,VWS V14.01,2013-02-02 23:16:00,
2013-02-02 18:17:00,19.7,16.5,30.08,West,259,0.0,5.0,87,0.00,,,0.00,VWS V14.01,2013-02-02 23:17:00,
2013-02-02 18:18:00,19.7,16.5,30.08,WSW,258,4.0,5.0,87,0.00,,,0.00,VWS V14.01,2013-02-02 23:18:00,
2013-02-02 18:19:00,19.7,16.5,30.08,West,263,0.0,5.0,87,0.00,,,0.00,VWS V14.01,2013-02-02 23:19:00,
2013-02-02 18:20:00,19.7,16.5,30.08,SW,228,3.0,5.0,87,0.00,,,0.00,VWS V14.01,2013-02-02 23:20:00,
2013-02-02 18:21:00,19.7,16.5,30.08,WSW,242,0.0,3.0,87,0.00,,,0.00,VWS V14.01,2013-02-02 23:21:00,
2013-02-02 18:22:00,19.7,16.5,30.08,WNW,284,2.0,5.0,87,0.00,,,0.00,VWS V14.01,2013-02-02 23:22:00,
2013-02-02 18:23:00,19.7,16.5,30.08,WNW,286,1.0,5.0,87,0.00,,,0.00,VWS V14.01,2013-02-02 23:23:00,
2013-02-02 18:24:00,19.8,16.6,30.08,WNW,286,1.0,5.0,87,0.00,,,0.00,VWS V14.01,2013-02-02 23:24:00,
2013-02-02 18:25:00,19.8,16.6,30.08,WNW,286,1.0,5.0,87,0.00,,,0.00,VWS V14.01,2013-02-02 23:25:00,
2013-02-02 18:26:00,19.8,16.6,30.08,WNW,286,0.0,5.0,87,0.00,,,0.00,VWS V14.01,2013-02-02 23:26:00,
2013-02-02 18:27:00,19.8,16.6,30.08,WNW,286,0.0,5.0,87,0.00,,,0.00,VWS V14.01,2013-02-02 23:27:00,
2013-02-02 18:28:00,19.8,16.6,30.08,WNW,286,1.0,5.0,87,0.00,,,0.00,VWS V14.01,2013-02-02 23:28:00,
2013-02-02 18:29:00,19.8,16.6,30.08,WNW,288,1.0,5.0,87,0.00,,,0.00,VWS V14.01,2013-02-02 23:29:00,
2013-02-02 18:30:00,19.8,16.6,30.08,WNW,286,0.0,5.0,87,0.00,,,0.00,VWS V14.01,2013-02-02 23:30:00,
2013-02-02 18:31:00,19.9,16.7,30.08,WNW,286,0.0,2.0,87,0.00,,,0.00,VWS V14.01,2013-02-02 23:31:00,
2013-02-02 18:32:00,19.9,16.7,30.08,WNW,286,0.0,3.0,87,0.00,,,0.00,VWS V14.01,2013-02-02 23:32:00,
2013-02-02 18:33:00,19.9,16.7,30.08,West,275,4.0,4.0,87,0.00,,,0.00,VWS V14.01,2013-02-02 23:33:00,
2013-02-02 18:34:00,19.9,16.7,30.08,WSW,257,0.0,4.0,87,0.00,,,0.00,VWS V14.01,2013-02-02 23:34:00,
2013-02-02 18:35:00,19.9,16.7,30.08,WSW,257,0.0,4.0,87,0.00,,,0.00,VWS V14.01,2013-02-02 23:35:00,
2013-02-02 18:36:00,19.9,16.7,30.08,WSW,257,0.0,4.0,87,0.00,,,0.00,VWS V14.01,2013-02-02 23:36:00,
2013-02-02 18:37:00,19.9,16.7,30.08,WSW,257,0.0,4.0,87,0.00,,,0.00,VWS V14.01,2013-02-02 23:37:00,
2013-02-02 18:38:00,19.9,16.9,30.08,WSW,257,0.0,4.0,88,0.00,,,0.00,VWS V14.01,2013-02-02 23:38:00,
2013-02-02 18:39:00,19.9,16.9,30.08,WSW,257,3.0,4.0,88,0.00,,,0.00,VWS V14.01,2013-02-02 23:39:00,
2013-02-02 18:40:00,19.9,16.7,30.08,West,261,2.0,4.0,87,0.00,,,0.00,VWS V14.01,2013-02-02 23:40:00,
2013-02-02 18:41:00,19.9,16.7,30.08,West,280,2.0,4.0,87,0.00,,,0.00,VWS V14.01,2013-02-02 23:41:00,
2013-02-02 18:42:00,19.9,16.7,30.08,West,280,0.0,4.0,87,0.00,,,0.00,VWS V14.01,2013-02-02 23:42:00,
2013-02-02 18:43:00,19.9,16.7,30.08,West,280,1.0,4.0,87,0.00,,,0.00,VWS V14.01,2013-02-02 23:43:00,
2013-02-02 18:44:00,19.9,16.7,30.08,West,280,0.0,4.0,87,0.00,,,0.00,VWS V14.01,2013-02-02 23:44:00,
2013-02-02 18:45:00,19.9,16.7,30.08,West,276,4.0,4.0,87,0.00,,,0.00,VWS V14.01,2013-02-02 23:45:00,
2013-02-02 18:46:00,19.9,16.9,30.08,West,261,3.0,5.0,88,0.00,,,0.00,VWS V14.01,2013-02-02 23:46:00,
2013-02-02 18:47:00,19.9,16.9,30.08,WSW,256,1.0,5.0,88,0.00,,,0.00,VWS V14.01,2013-02-02 23:47:00,
2013-02-02 18:48:00,19.9,16.9,30.08,WSW,255,0.0,5.0,88,0.00,,,0.00,VWS V14.01,2013-02-02 23:48:00,
2013-02-02 18:49:00,19.9,16.9,30.08,WSW,255,0.0,5.0,88,0.00,,,0.00,VWS V14.01,2013-02-02 23:49:00,
2013-02-02 18:50:00,19.9,16.9,30.08,WSW,257,1.0,5.0,88,0.00,,,0.00,VWS V14.01,2013-02-02 23:50:00,
2013-02-02 18:51:00,19.9,16.9,30.08,WSW,257,2.0,2.0,88,0.00,,,0.00,VWS V14.01,2013-02-02 23:51:00,
2013-02-02 18:52:00,19.9,16.9,30.08,West,271,3.0,3.0,88,0.00,,,0.00,VWS V14.01,2013-02-02 23:52:00,
2013-02-02 18:53:00,19.9,16.9,30.08,West,270,2.0,3.0,88,0.00,,,0.00,VWS V14.01,2013-02-02 23:53:00,
2013-02-02 18:54:00,19.9,16.9,30.08,West,269,2.0,3.0,88,0.00,,,0.00,VWS V14.01,2013-02-02 23:54:00,
2013-02-02 18:55:00,19.9,16.9,30.08,West,269,1.0,5.0,88,0.00,,,0.00,VWS V14.01,2013-02-02 23:55:00,
2013-02-02 18:56:00,19.9,16.9,30.08,West,269,0.0,5.0,88,0.00,,,0.00,VWS V14.01,2013-02-02 23:56:00,
2013-02-02 18:57:00,19.9,16.9,30.08,West,269,1.0,5.0,88,0.00,,,0.00,VWS V14.01,2013-02-02 23:57:00,
2013-02-02 18:58:00,19.9,16.9,30.08,West,269,2.0,5.0,88,0.00,,,0.00,VWS V14.01,2013-02-02 23:58:00,
2013-02-02 18:59:00,19.9,16.9,30.08,West,273,1.0,5.0,88,0.00,,,0.00,VWS V14.01,2013-02-02 23:59:00,
2013-02-02 19:00:00,19.9,16.9,30.08,West,273,1.0,5.0,88,0.00,,,0.00,VWS V14.01,2013-02-03 00:00:00,
2013-02-02 19:01:00,19.9,16.9,30.08,West,273,1.0,3.0,88,0.00,,,0.00,VWS V14.01,2013-02-03 00:01:00,
2013-02-02 19:02:00,19.9,16.9,30.08,West,273,1.0,3.0,88,0.00,,,0.00,VWS V14.01,2013-02-03 00:02:00,
2013-02-02 19:03:00,19.9,16.9,30.08,West,275,4.0,4.0,88,0.00,,,0.00,VWS V14.01,2013-02-03 00:03:00,
2013-02-02 19:04:00,19.9,16.9,30.08,West,274,0.0,4.0,88,0.00,,,0.00,VWS V14.01,2013-02-03 00:04:00,
2013-02-02 19:05:00,19.9,16.9,30.08,West,274,2.0,4.0,88,0.00,,,0.00,VWS V14.01,2013-02-03 00:05:00,
2013-02-02 19:06:00,19.9,16.9,30.08,West,276,3.0,5.0,88,0.00,,,0.00,VWS V14.01,2013-02-03 00:06:00,
2013-02-02 19:07:00,19.9,16.9,30.08,West,276,1.0,5.0,88,0.00,,,0.00,VWS V14.01,2013-02-03 00:07:00,
2013-02-02 19:08:00,19.9,16.9,30.08,West,276,2.0,5.0,88,0.00,,,0.00,VWS V14.01,2013-02-03 00:08:00,
2013-02-02 19:09:00,19.9,16.9,30.08,West,274,0.0,5.0,88,0.00,,,0.00,VWS V14.01,2013-02-03 00:09:00,
2013-02-02 19:10:00,19.9,16.9,30.08,West,274,0.0,5.0,88,0.00,,,0.00,VWS V14.01,2013-02-03 00:10:00,
2013-02-02 19:11:00,19.9,16.9,30.08,West,274,0.0,0.0,88,0.00,,,0.00,VWS V14.01,2013-02-03 00:11:00,
2013-02-02 19:12:00,19.9,16.9,30.08,West,274,0.0,2.0,88,0.00,,,0.00,VWS V14.01,2013-02-03 00:12:00,
2013-02-02 19:13:00,20.0,17.0,30.08,West,274,0.0,2.0,88,0.00,,,0.00,VWS V14.01,2013-02-03 00:13:00,
2013-02-02 19:14:00,19.9,16.9,30.08,West,274,0.0,2.0,88,0.00,,,0.00,VWS V14.01,2013-02-03 00:14:00,
2013-02-02 19:15:00,20.0,17.0,30.08,West,277,0.0,2.0,88,0.00,,,0.00,VWS V14.01,2013-02-03 00:15:00,
2013-02-02 19:16:00,20.0,17.0,30.08,West,277,1.0,2.0,88,0.00,,,0.00,VWS V14.01,2013-02-03 00:16:00,
2013-02-02 19:17:00,20.0,17.0,30.08,West,277,1.0,2.0,88,0.00,,,0.00,VWS V14.01,2013-02-03 00:17:00,
2013-02-02 19:18:00,20.0,17.0,30.08,West,277,1.0,2.0,88,0.00,,,0.00,VWS V14.01,2013-02-03 00:18:00,
2013-02-02 19:19:00,20.0,17.0,30.08,West,277,1.0,2.0,88,0.00,,,0.00,VWS V14.01,2013-02-03 00:19:00,
2013-02-02 19:20:00,20.0,17.0,30.08,West,277,1.0,2.0,88,0.00,,,0.00,VWS V14.01,2013-02-03 00:20:00,
2013-02-02 19:21:00,20.0,17.0,30.08,West,277,0.0,2.0,88,0.00,,,0.00,VWS V14.01,2013-02-03 00:21:00,
2013-02-02 19:22:00,20.0,17.0,30.08,West,277,0.0,2.0,88,0.00,,,0.00,VWS V14.01,2013-02-03 00:22:00,
2013-02-02 19:23:00,20.0,17.0,30.08,West,277,0.0,2.0,88,0.00,,,0.00,VWS V14.01,2013-02-03 00:23:00,
2013-02-02 19:24:00,20.0,17.0,30.08,West,277,0.0,2.0,88,0.00,,,0.00,VWS V14.01,2013-02-03 00:24:00,
2013-02-02 19:25:00,20.0,17.0,30.08,West,277,0.0,2.0,88,0.00,,,0.00,VWS V14.01,2013-02-03 00:25:00,
2013-02-02 19:26:00,20.0,17.0,30.08,West,277,2.0,2.0,88,0.00,,,0.00,VWS V14.01,2013-02-03 00:26:00,
2013-02-02 19:27:00,20.0,17.0,30.08,West,277,0.0,2.0,88,0.00,,,0.00,VWS V14.01,2013-02-03 00:27:00,
2013-02-02 19:28:00,20.0,17.0,30.08,West,277,1.0,2.0,88,0.00,,,0.00,VWS V14.01,2013-02-03 00:28:00,
2013-02-02 19:29:00,20.0,17.0,30.08,West,277,0.0,2.0,88,0.00,,,0.00,VWS V14.01,2013-02-03 00:29:00,
2013-02-02 19:30:00,20.0,17.0,30.08,West,277,0.0,2.0,88,0.00,,,0.00,VWS V14.01,2013-02-03 00:30:00,
2013-02-02 19:31:00,20.0,17.0,30.08,West,276,3.0,3.0,88,0.00,,,0.00,VWS V14.01,2013-02-03 00:31:00,
2013-02-02 19:32:00,20.0,17.0,30.08,West,276,0.0,3.0,88,0.00,,,0.00,VWS V14.01,2013-02-03 00:32:00,
2013-02-02 19:33:00,20.0,17.0,30.08,West,275,1.0,4.0,88,0.00,,,0.00,VWS V14.01,2013-02-03 00:33:00,
2013-02-02 19:34:00,20.0,17.0,30.08,West,275,0.0,4.0,88,0.00,,,0.00,VWS V14.01,2013-02-03 00:34:00,
2013-02-02 19:35:00,20.0,17.0,30.08,West,275,0.0,4.0,88,0.00,,,0.00,VWS V14.01,2013-02-03 00:35:00,
2013-02-02 19:36:00,20.0,17.0,30.08,West,275,2.0,4.0,88,0.00,,,0.00,VWS V14.01,2013-02-03 00:36:00,
2013-02-02 19:37:00,20.1,17.1,30.08,West,275,0.0,4.0,88,0.00,,,0.00,VWS V14.01,2013-02-03 00:37:00,
2013-02-02 19:38:00,20.1,17.4,30.08,West,275,2.0,4.0,89,0.00,,,0.00,VWS V14.01,2013-02-03 00:38:00,
2013-02-02 19:39:00,20.1,17.4,30.08,West,275,0.0,4.0,89,0.00,,,0.00,VWS V14.01,2013-02-03 00:39:00,
2013-02-02 19:40:00,20.1,17.4,30.08,West,275,0.0,4.0,89,0.00,,,0.00,VWS V14.01,2013-02-03 00:40:00,
2013-02-02 19:41:00,20.1,17.4,30.08,West,275,0.0,2.0,89,0.00,,,0.00,VWS V14.01,2013-02-03 00:41:00,
2013-02-02 19:42:00,20.1,17.4,30.08,West,275,0.0,2.0,89,0.00,,,0.00,VWS V14.01,2013-02-03 00:42:00,
2013-02-02 19:43:00,20.1,17.4,30.08,West,275,0.0,2.0,89,0.00,,,0.00,VWS V14.01,2013-02-03 00:43:00,
2013-02-02 19:44:00,20.1,17.1,30.08,West,275,0.0,2.0,88,0.00,,,0.00,VWS V14.01,2013-02-03 00:44:00,
2013-02-02 19:45:00,20.1,17.1,30.08,West,275,0.0,2.0,88,0.00,,,0.00,VWS V14.01,2013-02-03 00:45:00,
2013-02-02 19:46:00,20.1,17.1,30.08,West,275,0.0,2.0,88,0.00,,,0.00,VWS V14.01,2013-02-03 00:46:00,
2013-02-02 19:47:00,20.2,17.2,30.08,West,274,0.0,3.0,88,0.00,,,0.00,VWS V14.01,2013-02-03 00:47:00,
2013-02-02 19:48:00,20.2,17.2,30.08,West,274,0.0,3.0,88,0.00,,,0.00,VWS V14.01,2013-02-03 00:48:00,
2013-02-02 19:49:00,20.2,17.2,30.08,West,274,0.0,3.0,88,0.00,,,0.00,VWS V14.01,2013-02-03 00:49:00,
2013-02-02 19:50:00,20.2,17.2,30.08,West,273,1.0,3.0,88,0.00,,,0.00,VWS V14.01,2013-02-03 00:50:00,
2013-02-02 19:51:00,20.2,17.2,30.08,West,273,0.0,1.0,88,0.00,,,0.00,VWS V14.01,2013-02-03 00:51:00,
2013-02-02 19:52:00,20.2,17.2,30.08,West,273,0.0,3.0,88,0.00,,,0.00,VWS V14.01,2013-02-03 00:52:00,
2013-02-02 19:53:00,20.2,17.2,30.08,West,273,0.0,3.0,88,0.00,,,0.00,VWS V14.01,2013-02-03 00:53:00,
2013-02-02 19:54:00,20.2,17.2,30.08,West,273,1.0,3.0,88,0.00,,,0.00,VWS V14.01,2013-02-03 00:54:00,
2013-02-02 19:55:00,20.2,17.2,30.08,West,273,0.0,3.0,88,0.00,,,0.00,VWS V14.01,2013-02-03 00:55:00,
2013-02-02 19:56:00,20.2,17.5,30.08,West,273,0.0,3.0,89,0.00,,,0.00,VWS V14.01,2013-02-03 00:56:00,
2013-02-02 19:57:00,20.2,17.5,30.08,West,273,0.0,3.0,89,0.00,,,0.00,VWS V14.01,2013-02-03 00:57:00,
2013-02-02 19:58:00,20.2,17.5,30.08,West,273,0.0,3.0,89,0.00,,,0.00,VWS V14.01,2013-02-03 00:58:00,
2013-02-02 19:59:00,20.2,17.5,30.08,West,273,0.0,3.0,89,0.00,,,0.00,VWS V14.01,2013-02-03 00:59:00,
2013-02-02 20:00:00,20.2,17.5,30.08,West,273,0.0,3.0,89,0.00,,,0.00,VWS V14.01,2013-02-03 01:00:00,
2013-02-02 20:01:00,20.2,17.5,30.08,West,273,0.0,0.0,89,0.01,,,0.01,VWS V14.01,2013-02-03 01:01:00,
2013-02-02 20:02:00,20.2,17.5,30.08,West,273,0.0,0.0,89,0.01,,,0.01,VWS V14.01,2013-02-03 01:02:00,
2013-02-02 20:03:00,20.3,17.6,30.08,West,273,1.0,1.0,89,0.01,,,0.01,VWS V14.01,2013-02-03 01:03:00,
2013-02-02 20:04:00,20.2,17.5,30.08,West,273,0.0,1.0,89,0.01,,,0.01,VWS V14.01,2013-02-03 01:04:00,
2013-02-02 20:05:00,20.3,17.6,30.08,West,273,0.0,1.0,89,0.01,,,0.01,VWS V14.01,2013-02-03 01:05:00,
2013-02-02 20:06:00,20.3,17.6,30.08,West,273,0.0,1.0,89,0.01,,,0.01,VWS V14.01,2013-02-03 01:06:00,
2013-02-02 20:07:00,20.3,17.6,30.08,West,273,2.0,3.0,89,0.01,,,0.01,VWS V14.01,2013-02-03 01:07:00,
2013-02-02 20:08:00,20.3,17.6,30.08,West,273,0.0,3.0,89,0.01,,,0.01,VWS V14.01,2013-02-03 01:08:00,
2013-02-02 20:09:00,20.3,17.6,30.08,West,273,0.0,3.0,89,0.01,,,0.01,VWS V14.01,2013-02-03 01:09:00,
2013-02-02 20:10:00,20.3,17.6,30.08,West,273,0.0,3.0,89,0.01,,,0.01,VWS V14.01,2013-02-03 01:10:00,
2013-02-02 20:11:00,20.4,17.7,30.08,West,273,0.0,0.0,89,0.01,,,0.01,VWS V14.01,2013-02-03 01:11:00,
2013-02-02 20:12:00,20.4,17.7,30.08,West,277,3.0,4.0,89,0.01,,,0.01,VWS V14.01,2013-02-03 01:12:00,
2013-02-02 20:13:00,20.4,17.7,30.08,West,277,0.0,4.0,89,0.01,,,0.01,VWS V14.01,2013-02-03 01:13:00,
2013-02-02 20:14:00,20.4,17.7,30.08,West,277,3.0,4.0,89,0.01,,,0.01,VWS V14.01,2013-02-03 01:14:00,
2013-02-02 20:15:00,20.4,17.7,30.08,West,277,2.0,4.0,89,0.01,,,0.01,VWS V14.01,2013-02-03 01:15:00,
2013-02-02 20:16:00,20.4,17.7,30.08,West,277,1.0,4.0,89,0.01,,,0.01,VWS V14.01,2013-02-03 01:16:00,
2013-02-02 20:17:00,20.4,17.7,30.08,West,277,0.0,4.0,89,0.01,,,0.01,VWS V14.01,2013-02-03 01:17:00,
2013-02-02 20:18:00,20.4,17.7,30.08,West,277,3.0,4.0,89,0.01,,,0.01,VWS V14.01,2013-02-03 01:18:00,
2013-02-02 20:19:00,20.4,17.7,30.08,West,277,0.0,4.0,89,0.01,,,0.01,VWS V14.01,2013-02-03 01:19:00,
2013-02-02 20:20:00,20.4,17.7,30.08,West,277,0.0,4.0,89,0.01,,,0.01,VWS V14.01,2013-02-03 01:20:00,
2013-02-02 20:21:00,20.4,17.7,30.08,West,277,0.0,0.0,89,0.01,,,0.01,VWS V14.01,2013-02-03 01:21:00,
2013-02-02 20:22:00,20.4,17.7,30.08,West,277,0.0,0.0,89,0.01,,,0.01,VWS V14.01,2013-02-03 01:22:00,
2013-02-02 20:23:00,20.3,17.6,30.08,West,277,0.0,0.0,89,0.01,,,0.01,VWS V14.01,2013-02-03 01:23:00,
2013-02-02 20:24:00,20.4,17.7,30.08,West,277,0.0,0.0,89,0.01,,,0.01,VWS V14.01,2013-02-03 01:24:00,
2013-02-02 20:25:00,20.4,17.7,30.08,West,277,0.0,0.0,89,0.01,,,0.01,VWS V14.01,2013-02-03 01:25:00,
2013-02-02 20:26:00,20.4,17.7,30.08,West,277,0.0,1.0,89,0.01,,,0.01,VWS V14.01,2013-02-03 01:26:00,
2013-02-02 20:27:00,20.4,17.7,30.08,West,277,0.0,1.0,89,0.01,,,0.01,VWS V14.01,2013-02-03 01:27:00,
2013-02-02 20:28:00,20.4,17.7,30.08,West,277,0.0,1.0,89,0.01,,,0.01,VWS V14.01,2013-02-03 01:28:00,
2013-02-02 20:29:00,20.4,17.7,30.08,West,277,0.0,1.0,89,0.01,,,0.01,VWS V14.01,2013-02-03 01:29:00,
2013-02-02 20:30:00,20.4,17.7,30.09,West,277,0.0,1.0,89,0.01,,,0.01,VWS V14.01,2013-02-03 01:30:00,
2013-02-02 20:31:00,20.4,17.7,30.09,West,277,0.0,0.0,89,0.01,,,0.01,VWS V14.01,2013-02-03 01:31:00,
2013-02-02 20:32:00,20.4,17.7,30.09,West,277,0.0,0.0,89,0.01,,,0.01,VWS V14.01,2013-02-03 01:32:00,
2013-02-02 20:33:00,20.4,17.7,30.09,West,277,0.0,1.0,89,0.01,,,0.01,VWS V14.01,2013-02-03 01:33:00,
2013-02-02 20:34:00,20.5,17.8,30.09,West,277,0.0,1.0,89,0.01,,,0.01,VWS V14.01,2013-02-03 01:34:00,
2013-02-02 20:35:00,20.5,17.8,30.09,West,277,0.0,1.0,89,0.01,,,0.01,VWS V14.01,2013-02-03 01:35:00,
2013-02-02 20:36:00,20.5,17.8,30.09,West,277,0.0,1.0,89,0.01,,,0.01,VWS V14.01,2013-02-03 01:36:00,
2013-02-02 20:37:00,20.5,17.8,30.09,West,277,0.0,1.0,89,0.01,,,0.01,VWS V14.01,2013-02-03 01:37:00,
2013-02-02 20:38:00,20.5,17.8,30.09,West,277,0.0,1.0,89,0.01,,,0.01,VWS V14.01,2013-02-03 01:38:00,
2013-02-02 20:39:00,20.5,17.8,30.09,West,277,0.0,1.0,89,0.01,,,0.01,VWS V14.01,2013-02-03 01:39:00,
2013-02-02 20:40:00,20.5,17.8,30.09,West,277,0.0,1.0,89,0.01,,,0.01,VWS V14.01,2013-02-03 01:40:00,
2013-02-02 20:41:00,20.5,17.8,30.09,West,277,0.0,0.0,89,0.01,,,0.01,VWS V14.01,2013-02-03 01:41:00,
2013-02-02 20:42:00,20.5,17.8,30.09,West,277,0.0,0.0,89,0.01,,,0.01,VWS V14.01,2013-02-03 01:42:00,
2013-02-02 20:43:00,20.5,17.8,30.09,West,277,0.0,0.0,89,0.02,,,0.02,VWS V14.01,2013-02-03 01:43:00,
2013-02-02 20:44:00,20.5,17.8,30.09,West,277,0.0,0.0,89,0.02,,,0.02,VWS V14.01,2013-02-03 01:44:00,
2013-02-02 20:45:00,20.5,17.8,30.08,West,277,0.0,0.0,89,0.02,,,0.02,VWS V14.01,2013-02-03 01:45:00,
2013-02-02 20:46:00,20.5,17.8,30.08,West,277,0.0,0.0,89,0.02,,,0.02,VWS V14.01,2013-02-03 01:46:00,
2013-02-02 20:47:00,20.5,17.8,30.08,West,277,2.0,2.0,89,0.02,,,0.02,VWS V14.01,2013-02-03 01:47:00,
2013-02-02 20:48:00,20.5,17.8,30.08,West,277,0.0,2.0,89,0.02,,,0.02,VWS V14.01,2013-02-03 01:48:00,
2013-02-02 20:49:00,20.6,17.9,30.08,West,277,0.0,2.0,89,0.02,,,0.02,VWS V14.01,2013-02-03 01:49:00,
2013-02-02 20:50:00,20.6,17.9,30.08,West,277,0.0,2.0,89,0.02,,,0.02,VWS V14.01,2013-02-03 01:50:00,
2013-02-02 20:51:00,20.6,17.9,30.08,West,277,0.0,1.0,89,0.02,,,0.02,VWS V14.01,2013-02-03 01:51:00,
2013-02-02 20:52:00,20.6,17.9,30.08,West,277,0.0,1.0,89,0.02,,,0.02,VWS V14.01,2013-02-03 01:52:00,
2013-02-02 20:53:00,20.6,17.9,30.08,West,277,0.0,1.0,89,0.02,,,0.02,VWS V14.01,2013-02-03 01:53:00,
2013-02-02 20:54:00,20.6,17.9,30.08,West,277,0.0,1.0,89,0.02,,,0.02,VWS V14.01,2013-02-03 01:54:00,
2013-02-02 20:55:00,20.6,17.9,30.08,West,277,0.0,1.0,89,0.02,,,0.02,VWS V14.01,2013-02-03 01:55:00,
2013-02-02 20:56:00,20.6,17.9,30.08,West,277,0.0,1.0,89,0.02,,,0.02,VWS V14.01,2013-02-03 01:56:00,
2013-02-02 20:57:00,20.6,17.9,30.08,West,277,0.0,1.0,89,0.02,,,0.02,VWS V14.01,2013-02-03 01:57:00,
2013-02-02 20:58:00,20.6,17.9,30.08,West,277,0.0,1.0,89,0.02,,,0.02,VWS V14.01,2013-02-03 01:58:00,
2013-02-02 20:59:00,20.7,18.0,30.08,West,277,0.0,1.0,89,0.02,,,0.02,VWS V14.01,2013-02-03 01:59:00,
2013-02-02 21:00:00,20.6,17.9,30.08,West,277,1.0,2.0,89,0.02,,,0.02,VWS V14.01,2013-02-03 02:00:00,
2013-02-02 21:01:00,20.7,18.0,30.08,West,277,0.0,1.0,89,0.02,,,0.02,VWS V14.01,2013-02-03 02:01:00,
2013-02-02 21:02:00,20.6,17.9,30.08,West,277,0.0,1.0,89,0.02,,,0.02,VWS V14.01,2013-02-03 02:02:00,
2013-02-02 21:03:00,20.7,18.0,30.08,West,277,1.0,2.0,89,0.02,,,0.02,VWS V14.01,2013-02-03 02:03:00,
2013-02-02 21:04:00,20.6,17.9,30.08,West,277,0.0,2.0,89,0.02,,,0.02,VWS V14.01,2013-02-03 02:04:00,
2013-02-02 21:05:00,20.7,18.0,30.08,West,277,0.0,2.0,89,0.02,,,0.02,VWS V14.01,2013-02-03 02:05:00,
2013-02-02 21:06:00,20.6,17.9,30.08,West,277,0.0,2.0,89,0.02,,,0.02,VWS V14.01,2013-02-03 02:06:00,
2013-02-02 21:07:00,20.7,18.0,30.08,West,277,0.0,2.0,89,0.02,,,0.02,VWS V14.01,2013-02-03 02:07:00,
2013-02-02 21:08:00,20.6,17.9,30.08,West,277,1.0,2.0,89,0.02,,,0.02,VWS V14.01,2013-02-03 02:08:00,
2013-02-02 21:09:00,20.7,18.0,30.08,West,277,0.0,2.0,89,0.02,,,0.02,VWS V14.01,2013-02-03 02:09:00,
2013-02-02 21:10:00,20.7,18.0,30.08,West,277,0.0,2.0,89,0.02,,,0.02,VWS V14.01,2013-02-03 02:10:00,
2013-02-02 21:11:00,20.7,18.2,30.08,West,277,0.0,0.0,90,0.01,,,0.02,VWS V14.01,2013-02-03 02:11:00,
2013-02-02 21:12:00,20.7,18.2,30.08,West,277,1.0,1.0,90,0.02,,,0.03,VWS V14.01,2013-02-03 02:12:00,
2013-02-02 21:13:00,20.7,18.2,30.08,West,277,1.0,2.0,90,0.02,,,0.03,VWS V14.01,2013-02-03 02:13:00,
2013-02-02 21:14:00,20.7,18.2,30.08,West,277,0.0,2.0,90,0.02,,,0.03,VWS V14.01,2013-02-03 02:14:00,
2013-02-02 21:15:00,20.7,18.2,30.08,West,277,0.0,2.0,90,0.02,,,0.03,VWS V14.01,2013-02-03 02:15:00,
2013-02-02 21:16:00,20.7,18.2,30.08,West,277,0.0,2.0,90,0.02,,,0.03,VWS V14.01,2013-02-03 02:16:00,
2013-02-02 21:17:00,20.7,18.2,30.08,West,277,0.0,2.0,90,0.02,,,0.03,VWS V14.01,2013-02-03 02:17:00,
2013-02-02 21:18:00,20.7,18.2,30.08,West,274,0.0,4.0,90,0.02,,,0.03,VWS V14.01,2013-02-03 02:18:00,
2013-02-02 21:19:00,20.7,18.2,30.08,West,274,0.0,4.0,90,0.02,,,0.03,VWS V14.01,2013-02-03 02:19:00,
2013-02-02 21:20:00,20.7,18.2,30.08,West,274,0.0,4.0,90,0.02,,,0.03,VWS V14.01,2013-02-03 02:20:00,
2013-02-02 21:21:00,20.7,18.2,30.08,West,274,2.0,2.0,90,0.02,,,0.03,VWS V14.01,2013-02-03 02:21:00,
2013-02-02 21:22:00,20.7,18.2,30.08,West,274,0.0,2.0,90,0.02,,,0.03,VWS V14.01,2013-02-03 02:22:00,
2013-02-02 21:23:00,20.7,18.2,30.08,West,274,0.0,2.0,90,0.02,,,0.03,VWS V14.01,2013-02-03 02:23:00,
2013-02-02 21:24:00,20.7,18.2,30.08,West,274,0.0,2.0,90,0.02,,,0.03,VWS V14.01,2013-02-03 02:24:00,
2013-02-02 21:25:00,20.7,18.2,30.08,West,274,0.0,2.0,90,0.02,,,0.03,VWS V14.01,2013-02-03 02:25:00,
2013-02-02 21:26:00,20.7,18.2,30.08,West,274,0.0,2.0,90,0.02,,,0.03,VWS V14.01,2013-02-03 02:26:00,
2013-02-02 21:27:00,20.7,18.2,30.08,West,274,0.0,2.0,90,0.02,,,0.03,VWS V14.01,2013-02-03 02:27:00,
2013-02-02 21:28:00,20.7,18.2,30.08,WSW,241,1.0,2.0,90,0.02,,,0.03,VWS V14.01,2013-02-03 02:28:00,
2013-02-02 21:29:00,20.7,18.2,30.08,WSW,241,0.0,2.0,90,0.02,,,0.03,VWS V14.01,2013-02-03 02:29:00,
2013-02-02 21:30:00,20.7,18.2,30.08,WSW,241,0.0,2.0,90,0.02,,,0.03,VWS V14.01,2013-02-03 02:30:00,
2013-02-02 21:31:00,20.7,18.2,30.08,WSW,241,0.0,0.0,90,0.02,,,0.03,VWS V14.01,2013-02-03 02:31:00,
2013-02-02 21:32:00,20.7,18.2,30.08,WSW,241,0.0,0.0,90,0.02,,,0.03,VWS V14.01,2013-02-03 02:32:00,
2013-02-02 21:33:00,20.7,18.2,30.08,WSW,241,0.0,0.0,90,0.02,,,0.03,VWS V14.01,2013-02-03 02:33:00,
2013-02-02 21:34:00,20.7,18.2,30.08,WSW,241,0.0,0.0,90,0.02,,,0.03,VWS V14.01,2013-02-03 02:34:00,
2013-02-02 21:35:00,20.7,18.2,30.08,WSW,241,0.0,0.0,90,0.02,,,0.03,VWS V14.01,2013-02-03 02:35:00,
2013-02-02 21:36:00,20.8,18.3,30.08,WSW,241,0.0,0.0,90,0.02,,,0.03,VWS V14.01,2013-02-03 02:36:00,
2013-02-02 21:37:00,20.8,18.3,30.08,WSW,241,0.0,0.0,90,0.02,,,0.03,VWS V14.01,2013-02-03 02:37:00,
2013-02-02 21:38:00,20.8,18.3,30.08,WSW,241,2.0,2.0,90,0.02,,,0.03,VWS V14.01,2013-02-03 02:38:00,
2013-02-02 21:39:00,20.8,18.3,30.08,WSW,247,2.0,3.0,90,0.02,,,0.03,VWS V14.01,2013-02-03 02:39:00,
2013-02-02 21:40:00,20.8,18.3,30.08,WSW,247,0.0,3.0,90,0.02,,,0.03,VWS V14.01,2013-02-03 02:40:00,
2013-02-02 21:41:00,20.8,18.3,30.08,WSW,248,1.0,2.0,90,0.02,,,0.03,VWS V14.01,2013-02-03 02:41:00,
2013-02-02 21:42:00,20.8,18.3,30.08,WSW,248,0.0,2.0,90,0.02,,,0.03,VWS V14.01,2013-02-03 02:42:00,
2013-02-02 21:43:00,20.8,18.3,30.08,WSW,248,0.0,2.0,90,0.02,,,0.03,VWS V14.01,2013-02-03 02:43:00,
2013-02-02 21:44:00,20.8,18.3,30.08,WSW,248,0.0,2.0,90,0.02,,,0.03,VWS V14.01,2013-02-03 02:44:00,
2013-02-02 21:45:00,20.8,18.3,30.07,WSW,248,0.0,2.0,90,0.02,,,0.03,VWS V14.01,2013-02-03 02:45:00,
2013-02-02 21:46:00,20.8,18.3,30.07,WSW,248,0.0,2.0,90,0.02,,,0.03,VWS V14.01,2013-02-03 02:46:00,
2013-02-02 21:47:00,20.9,18.4,30.07,WSW,248,0.0,2.0,90,0.02,,,0.03,VWS V14.01,2013-02-03 02:47:00,
2013-02-02 21:48:00,20.9,18.4,30.07,WSW,248,0.0,2.0,90,0.02,,,0.03,VWS V14.01,2013-02-03 02:48:00,
2013-02-02 21:49:00,20.8,18.3,30.07,WSW,248,0.0,2.0,90,0.02,,,0.03,VWS V14.01,2013-02-03 02:49:00,
2013-02-02 21:50:00,20.8,18.3,30.07,WSW,248,0.0,2.0,90,0.02,,,0.03,VWS V14.01,2013-02-03 02:50:00,
2013-02-02 21:51:00,20.8,18.3,30.07,WSW,248,0.0,1.0,90,0.01,,,0.03,VWS V14.01,2013-02-03 02:51:00,
2013-02-02 21:52:00,20.8,18.3,30.07,WSW,248,0.0,1.0,90,0.02,,,0.04,VWS V14.01,2013-02-03 02:52:00,
2013-02-02 21:53:00,20.8,18.3,30.07,WSW,248,0.0,1.0,90,0.02,,,0.04,VWS V14.01,2013-02-03 02:53:00,
2013-02-02 21:54:00,20.8,18.3,30.07,WSW,248,0.0,1.0,90,0.02,,,0.04,VWS V14.01,2013-02-03 02:54:00,
2013-02-02 21:55:00,20.8,18.3,30.07,WSW,248,0.0,1.0,90,0.02,,,0.04,VWS V14.01,2013-02-03 02:55:00,
2013-02-02 21:56:00,20.8,18.3,30.07,WSW,248,0.0,1.0,90,0.02,,,0.04,VWS V14.01,2013-02-03 02:56:00,
2013-02-02 21:57:00,20.8,18.3,30.07,WSW,248,0.0,1.0,90,0.02,,,0.04,VWS V14.01,2013-02-03 02:57:00,
2013-02-02 21:58:00,20.8,18.3,30.07,WSW,248,0.0,1.0,90,0.02,,,0.04,VWS V14.01,2013-02-03 02:58:00,
2013-02-02 21:59:00,20.8,18.3,30.07,WSW,248,0.0,1.0,90,0.02,,,0.04,VWS V14.01,2013-02-03 02:59:00,
2013-02-02 22:00:00,20.9,18.4,30.07,WSW,248,0.0,1.0,90,0.02,,,0.04,VWS V14.01,2013-02-03 03:00:00,
2013-02-02 22:01:00,20.9,18.4,30.07,WSW,248,0.0,1.0,90,0.02,,,0.04,VWS V14.01,2013-02-03 03:01:00,
2013-02-02 22:02:00,20.9,18.4,30.07,WSW,248,0.0,1.0,90,0.02,,,0.04,VWS V14.01,2013-02-03 03:02:00,
2013-02-02 22:03:00,20.9,18.4,30.07,WSW,248,0.0,1.0,90,0.02,,,0.04,VWS V14.01,2013-02-03 03:03:00,
2013-02-02 22:04:00,20.9,18.4,30.07,WSW,248,0.0,1.0,90,0.02,,,0.04,VWS V14.01,2013-02-03 03:04:00,
2013-02-02 22:05:00,20.9,18.4,30.07,WSW,248,0.0,1.0,90,0.02,,,0.04,VWS V14.01,2013-02-03 03:05:00,
2013-02-02 22:06:00,20.9,18.4,30.07,WSW,248,0.0,1.0,90,0.02,,,0.04,VWS V14.01,2013-02-03 03:06:00,
2013-02-02 22:07:00,20.9,18.4,30.07,WSW,248,0.0,1.0,90,0.02,,,0.04,VWS V14.01,2013-02-03 03:07:00,
2013-02-02 22:08:00,20.9,18.4,30.07,WSW,248,0.0,1.0,90,0.02,,,0.04,VWS V14.01,2013-02-03 03:08:00,
2013-02-02 22:09:00,20.9,18.4,30.07,WSW,248,0.0,1.0,90,0.02,,,0.04,VWS V14.01,2013-02-03 03:09:00,
2013-02-02 22:10:00,20.9,18.4,30.07,WSW,248,0.0,1.0,90,0.02,,,0.04,VWS V14.01,2013-02-03 03:10:00,
2013-02-02 22:11:00,20.9,18.4,30.07,WSW,248,0.0,0.0,90,0.02,,,0.04,VWS V14.01,2013-02-03 03:11:00,
2013-02-02 22:12:00,20.9,18.4,30.07,WSW,248,0.0,0.0,90,0.02,,,0.04,VWS V14.01,2013-02-03 03:12:00,
2013-02-02 22:13:00,20.9,18.4,30.07,WSW,248,0.0,1.0,90,0.02,,,0.04,VWS V14.01,2013-02-03 03:13:00,
2013-02-02 22:14:00,20.9,18.4,30.07,WSW,248,1.0,1.0,90,0.02,,,0.04,VWS V14.01,2013-02-03 03:14:00,
2013-02-02 22:15:00,20.9,18.4,30.06,WSW,248,0.0,1.0,90,0.02,,,0.04,VWS V14.01,2013-02-03 03:15:00,
2013-02-02 22:16:00,20.9,18.4,30.06,WSW,248,0.0,1.0,90,0.02,,,0.04,VWS V14.01,2013-02-03 03:16:00,
2013-02-02 22:17:00,20.9,18.4,30.06,WSW,248,0.0,1.0,90,0.02,,,0.04,VWS V14.01,2013-02-03 03:17:00,
2013-02-02 22:18:00,20.9,18.4,30.06,WSW,248,0.0,1.0,90,0.02,,,0.04,VWS V14.01,2013-02-03 03:18:00,
2013-02-02 22:19:00,20.9,18.4,30.06,WSW,248,0.0,1.0,90,0.02,,,0.04,VWS V14.01,2013-02-03 03:19:00,
2013-02-02 22:20:00,20.9,18.4,30.06,WSW,248,0.0,1.0,90,0.02,,,0.04,VWS V14.01,2013-02-03 03:20:00,
2013-02-02 22:21:00,20.9,18.4,30.06,WSW,248,0.0,0.0,90,0.01,,,0.04,VWS V14.01,2013-02-03 03:21:00,
2013-02-02 22:22:00,20.9,18.4,30.06,WSW,248,0.0,0.0,90,0.01,,,0.04,VWS V14.01,2013-02-03 03:22:00,
2013-02-02 22:23:00,20.9,18.4,30.06,WSW,248,0.0,0.0,90,0.01,,,0.04,VWS V14.01,2013-02-03 03:23:00,
2013-02-02 22:24:00,20.9,18.4,30.06,WSW,248,1.0,1.0,90,0.01,,,0.04,VWS V14.01,2013-02-03 03:24:00,
2013-02-02 22:25:00,20.9,18.4,30.06,WSW,248,0.0,1.0,90,0.01,,,0.04,VWS V14.01,2013-02-03 03:25:00,
2013-02-02 22:26:00,20.9,18.4,30.06,WSW,248,0.0,1.0,90,0.01,,,0.04,VWS V14.01,2013-02-03 03:26:00,
2013-02-02 22:27:00,20.9,18.4,30.06,WSW,248,2.0,2.0,90,0.01,,,0.04,VWS V14.01,2013-02-03 03:27:00,
2013-02-02 22:28:00,20.9,18.4,30.06,WSW,248,0.0,2.0,90,0.01,,,0.04,VWS V14.01,2013-02-03 03:28:00,
2013-02-02 22:29:00,20.9,18.4,30.06,WSW,248,0.0,2.0,90,0.01,,,0.04,VWS V14.01,2013-02-03 03:29:00,
2013-02-02 22:30:00,20.9,18.4,30.06,WSW,248,1.0,2.0,90,0.01,,,0.04,VWS V14.01,2013-02-03 03:30:00,
2013-02-02 22:31:00,20.9,18.4,30.06,WSW,248,0.0,1.0,90,0.01,,,0.04,VWS V14.01,2013-02-03 03:31:00,
2013-02-02 22:32:00,20.9,18.4,30.06,WSW,248,1.0,2.0,90,0.01,,,0.04,VWS V14.01,2013-02-03 03:32:00,
2013-02-02 22:33:00,20.9,18.4,30.06,WSW,248,1.0,2.0,90,0.01,,,0.04,VWS V14.01,2013-02-03 03:33:00,
2013-02-02 22:34:00,20.9,18.4,30.06,WSW,248,0.0,2.0,90,0.01,,,0.04,VWS V14.01,2013-02-03 03:34:00,
2013-02-02 22:35:00,20.9,18.4,30.06,WSW,248,0.0,2.0,90,0.01,,,0.04,VWS V14.01,2013-02-03 03:35:00,
2013-02-02 22:36:00,20.9,18.4,30.06,WSW,248,0.0,2.0,90,0.01,,,0.04,VWS V14.01,2013-02-03 03:36:00,
2013-02-02 22:37:00,20.9,18.4,30.06,WSW,248,0.0,2.0,90,0.01,,,0.04,VWS V14.01,2013-02-03 03:37:00,
2013-02-02 22:38:00,20.9,18.4,30.06,WSW,248,0.0,2.0,90,0.01,,,0.04,VWS V14.01,2013-02-03 03:38:00,
2013-02-02 22:39:00,20.9,18.4,30.06,WSW,248,0.0,2.0,90,0.01,,,0.04,VWS V14.01,2013-02-03 03:39:00,
2013-02-02 22:40:00,21.0,18.5,30.06,WSW,248,0.0,2.0,90,0.01,,,0.04,VWS V14.01,2013-02-03 03:40:00,
2013-02-02 22:41:00,20.9,18.4,30.06,WSW,248,0.0,0.0,90,0.01,,,0.04,VWS V14.01,2013-02-03 03:41:00,
2013-02-02 22:42:00,21.0,18.5,30.06,WSW,248,0.0,0.0,90,0.01,,,0.04,VWS V14.01,2013-02-03 03:42:00,
2013-02-02 22:43:00,21.0,18.5,30.06,WSW,246,0.0,1.0,90,0.01,,,0.04,VWS V14.01,2013-02-03 03:43:00,
2013-02-02 22:44:00,21.0,18.5,30.06,WSW,246,0.0,1.0,90,0.01,,,0.04,VWS V14.01,2013-02-03 03:44:00,
2013-02-02 22:45:00,21.0,18.5,30.05,WSW,246,0.0,1.0,90,0.01,,,0.04,VWS V14.01,2013-02-03 03:45:00,
2013-02-02 22:46:00,20.9,18.4,30.05,WSW,246,0.0,1.0,90,0.01,,,0.04,VWS V14.01,2013-02-03 03:46:00,
2013-02-02 22:47:00,21.0,18.5,30.05,WSW,246,0.0,1.0,90,0.01,,,0.04,VWS V14.01,2013-02-03 03:47:00,
2013-02-02 22:48:00,21.0,18.5,30.05,WSW,246,0.0,1.0,90,0.01,,,0.04,VWS V14.01,2013-02-03 03:48:00,
2013-02-02 22:49:00,21.0,18.5,30.05,WSW,246,0.0,1.0,90,0.01,,,0.04,VWS V14.01,2013-02-03 03:49:00,
2013-02-02 22:50:00,21.0,18.5,30.05,WSW,246,0.0,1.0,90,0.01,,,0.04,VWS V14.01,2013-02-03 03:50:00,
2013-02-02 22:51:00,21.0,18.5,30.05,WSW,246,0.0,0.0,90,0.01,,,0.04,VWS V14.01,2013-02-03 03:51:00,
2013-02-02 22:52:00,21.0,18.5,30.05,WSW,246,0.0,0.0,90,0.01,,,0.04,VWS V14.01,2013-02-03 03:52:00,
2013-02-02 22:53:00,21.0,18.5,30.05,WSW,246,0.0,0.0,90,0.01,,,0.04,VWS V14.01,2013-02-03 03:53:00,
2013-02-02 22:54:00,21.0,18.5,30.05,WSW,246,0.0,0.0,90,0.01,,,0.04,VWS V14.01,2013-02-03 03:54:00,
2013-02-02 22:55:00,21.0,18.5,30.05,WSW,246,0.0,0.0,90,0.01,,,0.04,VWS V14.01,2013-02-03 03:55:00,
2013-02-02 22:56:00,21.0,18.5,30.05,WSW,246,0.0,0.0,90,0.01,,,0.04,VWS V14.01,2013-02-03 03:56:00,
2013-02-02 22:57:00,21.0,18.5,30.05,WSW,246,0.0,0.0,90,0.01,,,0.04,VWS V14.01,2013-02-03 03:57:00,
2013-02-02 22:58:00,21.0,18.5,30.05,WSW,246,0.0,0.0,90,0.01,,,0.04,VWS V14.01,2013-02-03 03:58:00,
2013-02-02 22:59:00,21.0,18.5,30.05,WSW,246,0.0,0.0,90,0.01,,,0.04,VWS V14.01,2013-02-03 03:59:00,
2013-02-02 23:00:00,21.0,18.5,30.05,WSW,246,0.0,0.0,90,0.01,,,0.04,VWS V14.01,2013-02-03 04:00:00,
2013-02-02 23:01:00,21.0,18.5,30.05,WSW,246,0.0,0.0,90,0.00,,,0.04,VWS V14.01,2013-02-03 04:01:00,
2013-02-02 23:02:00,21.0,18.5,30.05,WSW,246,0.0,0.0,90,0.00,,,0.04,VWS V14.01,2013-02-03 04:02:00,
2013-02-02 23:03:00,21.0,18.5,30.05,WSW,246,0.0,0.0,90,0.00,,,0.04,VWS V14.01,2013-02-03 04:03:00,
2013-02-02 23:04:00,21.0,18.5,30.05,WSW,246,0.0,0.0,90,0.00,,,0.04,VWS V14.01,2013-02-03 04:04:00,
2013-02-02 23:05:00,21.0,18.5,30.05,WSW,246,0.0,0.0,90,0.00,,,0.04,VWS V14.01,2013-02-03 04:05:00,
2013-02-02 23:06:00,21.0,18.5,30.05,WSW,246,0.0,0.0,90,0.00,,,0.04,VWS V14.01,2013-02-03 04:06:00,
2013-02-02 23:07:00,21.0,18.5,30.05,WSW,246,0.0,0.0,90,0.00,,,0.04,VWS V14.01,2013-02-03 04:07:00,
2013-02-02 23:08:00,21.0,18.5,30.05,WSW,246,0.0,0.0,90,0.00,,,0.04,VWS V14.01,2013-02-03 04:08:00,
2013-02-02 23:09:00,21.1,18.6,30.05,WSW,246,0.0,0.0,90,0.00,,,0.04,VWS V14.01,2013-02-03 04:09:00,
2013-02-02 23:10:00,21.0,18.5,30.05,WSW,246,0.0,2.0,90,0.00,,,0.04,VWS V14.01,2013-02-03 04:10:00,
2013-02-02 23:11:00,21.1,18.6,30.05,WSW,246,0.0,1.0,90,0.00,,,0.04,VWS V14.01,2013-02-03 04:11:00,
2013-02-02 23:12:00,21.0,18.5,30.05,WSW,246,0.0,1.0,90,0.00,,,0.04,VWS V14.01,2013-02-03 04:12:00,
2013-02-02 23:13:00,21.0,18.5,30.05,WSW,246,0.0,1.0,90,0.00,,,0.04,VWS V14.01,2013-02-03 04:13:00,
2013-02-02 23:14:00,21.1,18.6,30.05,WSW,246,0.0,1.0,90,0.00,,,0.04,VWS V14.01,2013-02-03 04:14:00,
2013-02-02 23:15:00,21.1,18.6,30.04,WSW,246,0.0,1.0,90,0.00,,,0.04,VWS V14.01,2013-02-03 04:15:00,
2013-02-02 23:16:00,21.1,18.6,30.04,WSW,246,0.0,1.0,90,0.00,,,0.04,VWS V14.01,2013-02-03 04:16:00,
2013-02-02 23:17:00,21.1,18.6,30.04,WSW,246,2.0,2.0,90,0.00,,,0.04,VWS V14.01,2013-02-03 04:17:00,
2013-02-02 23:18:00,21.1,18.6,30.04,WSW,246,0.0,3.0,90,0.00,,,0.04,VWS V14.01,2013-02-03 04:18:00,
2013-02-02 23:19:00,21.1,18.6,30.04,WSW,246,0.0,3.0,90,0.00,,,0.04,VWS V14.01,2013-02-03 04:19:00,
2013-02-02 23:20:00,21.1,18.6,30.04,WSW,246,0.0,3.0,90,0.00,,,0.04,VWS V14.01,2013-02-03 04:20:00,
2013-02-02 23:21:00,21.1,18.6,30.04,WSW,246,0.0,1.0,90,0.00,,,0.04,VWS V14.01,2013-02-03 04:21:00,
2013-02-02 23:22:00,21.1,18.6,30.04,WSW,246,0.0,1.0,90,0.00,,,0.04,VWS V14.01,2013-02-03 04:22:00,
2013-02-02 23:23:00,21.1,18.6,30.04,WSW,246,0.0,1.0,90,0.00,,,0.04,VWS V14.01,2013-02-03 04:23:00,
2013-02-02 23:24:00,21.1,18.6,30.04,WSW,246,0.0,1.0,90,0.00,,,0.04,VWS V14.01,2013-02-03 04:24:00,
2013-02-02 23:25:00,21.1,18.6,30.04,WSW,246,0.0,1.0,90,0.01,,,0.05,VWS V14.01,2013-02-03 04:25:00,
2013-02-02 23:26:00,21.1,18.6,30.04,WSW,246,0.0,1.0,90,0.01,,,0.05,VWS V14.01,2013-02-03 04:26:00,
2013-02-02 23:27:00,21.1,18.6,30.04,WSW,246,0.0,1.0,90,0.01,,,0.05,VWS V14.01,2013-02-03 04:27:00,
2013-02-02 23:28:00,21.1,18.6,30.04,WSW,246,0.0,1.0,90,0.01,,,0.05,VWS V14.01,2013-02-03 04:28:00,
2013-02-02 23:29:00,21.1,18.6,30.04,WSW,246,0.0,1.0,90,0.01,,,0.05,VWS V14.01,2013-02-03 04:29:00,
2013-02-02 23:30:00,21.1,18.6,30.04,WSW,246,0.0,1.0,90,0.01,,,0.05,VWS V14.01,2013-02-03 04:30:00,
2013-02-02 23:31:00,21.1,18.6,30.04,WSW,246,0.0,0.0,90,0.01,,,0.05,VWS V14.01,2013-02-03 04:31:00,
2013-02-02 23:32:00,21.1,18.6,30.04,WSW,246,0.0,0.0,90,0.01,,,0.05,VWS V14.01,2013-02-03 04:32:00,
2013-02-02 23:33:00,21.1,18.6,30.04,WSW,246,0.0,0.0,90,0.01,,,0.05,VWS V14.01,2013-02-03 04:33:00,
2013-02-02 23:34:00,21.1,18.6,30.04,WSW,246,0.0,0.0,90,0.01,,,0.05,VWS V14.01,2013-02-03 04:34:00,
2013-02-02 23:35:00,21.1,18.6,30.04,WSW,246,0.0,0.0,90,0.01,,,0.05,VWS V14.01,2013-02-03 04:35:00,
2013-02-02 23:36:00,21.1,18.6,30.04,WSW,246,0.0,0.0,90,0.01,,,0.05,VWS V14.01,2013-02-03 04:36:00,
2013-02-02 23:37:00,21.1,18.6,30.04,WSW,246,0.0,0.0,90,0.01,,,0.05,VWS V14.01,2013-02-03 04:37:00,
2013-02-02 23:38:00,21.1,18.6,30.04,WSW,246,0.0,0.0,90,0.01,,,0.05,VWS V14.01,2013-02-03 04:38:00,
2013-02-02 23:39:00,21.1,18.6,30.04,WSW,246,0.0,0.0,90,0.01,,,0.05,VWS V14.01,2013-02-03 04:39:00,
2013-02-02 23:40:00,21.1,18.6,30.04,WSW,246,0.0,0.0,90,0.01,,,0.05,VWS V14.01,2013-02-03 04:40:00,
2013-02-02 23:41:00,21.1,18.6,30.04,WSW,246,0.0,0.0,90,0.01,,,0.05,VWS V14.01,2013-02-03 04:41:00,
2013-02-02 23:42:00,21.1,18.6,30.04,WSW,246,0.0,0.0,90,0.01,,,0.05,VWS V14.01,2013-02-03 04:42:00,
2013-02-02 23:43:00,21.1,18.6,30.04,WSW,246,0.0,0.0,90,0.01,,,0.05,VWS V14.01,2013-02-03 04:43:00,
2013-02-02 23:44:00,21.1,18.6,30.04,WSW,246,0.0,0.0,90,0.01,,,0.05,VWS V14.01,2013-02-03 04:44:00,
2013-02-02 23:45:00,21.1,18.6,30.04,WSW,246,0.0,0.0,90,0.01,,,0.05,VWS V14.01,2013-02-03 04:45:00,
2013-02-02 23:46:00,21.1,18.6,30.04,WSW,246,0.0,0.0,90,0.01,,,0.05,VWS V14.01,2013-02-03 04:46:00,
2013-02-02 23:47:00,21.1,18.6,30.04,WSW,246,0.0,0.0,90,0.01,,,0.05,VWS V14.01,2013-02-03 04:47:00,
2013-02-02 23:48:00,21.1,18.6,30.04,WSW,246,0.0,0.0,90,0.01,,,0.05,VWS V14.01,2013-02-03 04:48:00,
2013-02-02 23:49:00,21.2,18.7,30.04,WSW,246,0.0,0.0,90,0.01,,,0.05,VWS V14.01,2013-02-03 04:49:00,
2013-02-02 23:50:00,21.2,18.7,30.04,WSW,246,0.0,0.0,90,0.01,,,0.05,VWS V14.01,2013-02-03 04:50:00,
2013-02-02 23:51:00,21.2,18.7,30.04,WSW,246,0.0,0.0,90,0.01,,,0.05,VWS V14.01,2013-02-03 04:51:00,
2013-02-02 23:52:00,21.2,18.7,30.04,WSW,246,0.0,0.0,90,0.01,,,0.05,VWS V14.01,2013-02-03 04:52:00,
2013-02-02 23:53:00,21.2,18.7,30.04,WSW,246,0.0,0.0,90,0.01,,,0.05,VWS V14.01,2013-02-03 04:53:00,
2013-02-02 23:54:00,21.1,18.6,30.04,WSW,246,0.0,0.0,90,0.01,,,0.05,VWS V14.01,2013-02-03 04:54:00,
2013-02-02 23:55:00,21.2,18.7,30.04,WSW,246,0.0,0.0,90,0.01,,,0.05,VWS V14.01,2013-02-03 04:55:00,
2013-02-02 23:56:00,21.1,18.6,30.04,WSW,246,0.0,0.0,90,0.01,,,0.05,VWS V14.01,2013-02-03 04:56:00,
2013-02-02 23:57:00,21.1,18.6,30.04,WSW,246,1.0,1.0,90,0.01,,,0.05,VWS V14.01,2013-02-03 04:57:00,
2013-02-02 23:58:00,21.1,18.6,30.04,WSW,246,0.0,1.0,90,0.01,,,0.05,VWS V14.01,2013-02-03 04:58:00,
2013-02-02 23:59:00,21.1,18.6,30.04,WSW,246,0.0,1.0,90,0.01,,,0.05,VWS V14.01,2013-02-03 04:59:00,